     2              OBSERVATION DATA    GPS                 RINEX VERSION / TYPE
teqc 2002Apr3 20050208 23:02:01UTC                          PGM / RUN BY / DATE
                                                            COMMENT
L2: 1 -> 1; 150 -> 5; 250 -> 9                              COMMENT
L2: 1 -> 1; 150 -> 5; 250 -> 9                              COMMENT
L2: 1 -> 1; 150 -> 5; 250 -> 9                              COMMENT
L2: 1 -> 1; 150 -> 5; 250 -> 9                              COMMENT
L2: 1 -> 1; 150 -> 5; 250 -> 9                              COMMENT
Original Marker Name: NORC                                  COMMENT
Campaign Name: CSUSB June 2004                              COMMENT
4-Character Station Name: NORC                              COMMENT
6-Character Antenna Code: DMRCHT                            COMMENT
Vertical Measurement Point: BCR                             COMMENT
Vertical Offset to Rinex Ref. Point: 0.0348                 COMMENT
Radial Measurement Point: ECF                               COMMENT
Radial Offset to Rinex Ref. Point: 0.1897                   COMMENT
Antenna Height from Field Measurement: 0.8950 m             COMMENT
Additional Antenna Identification Info.:                    COMMENT
Turborogue and Ashtech Choke Ring                           COMMENT
Original XYZ: -2451136.5000 -4696399.7500 3540565.1000      COMMENT
New XYZ position is based on association with SCEC monument COMMENT
E1D0O3O1+0011. Position of that monument is believed to be  COMMENT
valid to within 1 m horizontally; vertical accuracy         COMMENT
should be no worse than 3-times this value.                 COMMENT
                                                            COMMENT
Revised Rinex header created by UCSD GPS archive for        COMMENT
GSAC on 20-Apr-2005 (2005:110) 16:16:08 GMT                 COMMENT
For assistance contact dagnew@ucsd.edu                      COMMENT
or anderson@python.ucsd.edu                                 COMMENT
                                                            COMMENT
NORC                                                        MARKER NAME
___ CSUSB                                                   OBSERVER / AGENCY
1602 ASHTECH Z-X ZB00                                       REC # / TYPE / VERS
1403 DORNE-MARGOL. TYPE T                                   ANT # / TYPE
 -2451083.0000 -4696385.0000  3540593.0000                  APPROX POSITION XYZ
        0.8399        0.0000        0.0000                  ANTENNA: DELTA H/E/N
     1     1     0                                          WAVELENGTH FACT L1/2
     7    C1    L1    L2    P1    P2    S1    S2            # / TYPES OF OBSERV
     0                                                      INTERVAL
  2004     6    17    15    28   40.000000                  TIME OF FIRST OBS
  2004     6    18     0    10    0.000000                  TIME OF LAST OBS
                                                            END OF HEADER
 04  6 17 15 28 40.0000000  0  4G30G26G 6G10
  23887746.2804    7705308.33153   5994764.45052  23887748.7284   23887745.4514
        47.0004         40.0004
  21891592.0314    7510877.33553   5859230.72752  21891593.3944   21891590.2184
        51.0004         45.0004
  20377986.8394    7595289.87654   5919036.12252  20377988.1774   20377984.8664
        57.0004         51.0004
  24440335.4534    7716447.47253   6000140.75452  24440336.0734   24440336.9384
        45.0004         39.0004
 04  6 17 15 29  0.0000000  0  4G30G26G 6G10
  23900566.8354    7772682.73843   6047263.91242  23900568.8414   23900567.4034
        47.0004         40.0004
  21888356.9194    7493879.81643   5845985.91642  21888358.7634   21888356.5544
        51.0004         45.0004
  20381311.5874    7612762.56944   5932651.19742  20381313.2634   20381309.9524
        57.0004         51.0004
  24453843.6634    7787434.35143   6055455.17642  24453845.1514   24453844.6204
        45.0004         39.0004
 04  6 17 15 29 20.0000000  0  4G30G26G 6G10
  23913386.0904    7840049.08743   6099757.10242  23913387.3304   23913385.9214
        47.0004         40.0004
  21885174.2794    7477154.09343   5832952.88542  21885175.4704   21885172.7744
        51.0004         45.0004
  20384676.6794    7630445.50244   5946430.09242  20384677.9204   20384674.8894
        57.0004         51.0004
  24467354.3014    7858432.89943   6110778.65642  24467354.8124   24467355.6544
        44.0004         39.0004
 04  6 17 15 29 40.0000000  0  6G30G26G 6G16G10G21
  23926209.5004    7907435.56643   6152265.96942  23926211.3024   23926210.6864
        47.0004         40.0004
  21882048.6664    7460729.63343   5820154.60642  21882050.6264   21882047.9584
        51.0004         45.0004
  20388087.2044    7648367.64944   5960395.38842  20388088.5384   20388085.6474
        57.0004         51.0004
  23827003.2414    -349615.74953   -265333.19252  23827005.2174   23827001.5944
        44.0004         38.0004
  24480872.3954    7929471.26143   6166133.16242  24480872.9894   24480872.4274
        45.0004         38.0004
  21045699.2094    -353897.27854   -268498.04952  21045700.3594   21045695.9834
        57.0004         49.0004
 04  6 17 15 30  0.0000000  0  6G30G26G 6G16G10G21
  23939030.5404    7974810.59043   6204765.90542  23939033.0514   23939030.1334
        47.0004         40.0004
  21878975.3144    7444576.27543   5807567.58342  21878976.4984   21878975.2854
        52.0004         45.0004
  20391537.3614    7666498.34343   5974523.20242  20391538.7184   20391535.4194
        56.0004         50.0004
  23821746.3214    -377240.57043   -286859.01042  23821747.7954   23821745.2844
        43.0004         38.0004
  24494391.8514     123418.39153     83494.48652  24494394.0334   24494391.5744
        40.0004         36.0004
  21041839.1504    -374182.00844   -284304.35642  21041839.9694   21041836.2804
        57.0004         50.0004
 04  6 17 15 30 20.0000000  0  9G30G26G17G 6G16G10G15G21G22
  23951842.5524    8042140.35443   6257230.58842  23951844.3944   23951842.5144
        47.0004         40.0004
  21875946.2874    7428661.56343   5795166.49842  21875948.4764   21875945.5424
        49.0004         44.0004
  24087420.0714     -83736.62753    -70073.80152  24087419.6584   24087420.9334
        39.0004         36.0004
  20395020.8104    7684804.53244   5988787.73842  20395022.4174   20395019.2464
        57.0004         51.0004
  23816525.7084    -404678.94143   -308239.57342  23816527.0094   23816523.1644
        40.0004         38.0004
  24507907.0814     194440.37743    138836.27442  24507908.4394   24507907.8634
        45.0004         37.0004
  23981384.0614    -407694.21653   -305726.27652  23981385.3024   23981383.4344
        44.0004         40.0004
  21037985.6874    -394431.96244   -300083.52542  21037986.8594   21037982.6434
        57.0004         49.0004
  23561253.4154    -465592.13853   -321220.53052  23561252.7554   23561249.4794
        48.0004         41.0004
 04  6 17 15 30 40.0000000  0  9G30G26G17G 6G18G10G15G21G22
  23964656.3534    8109477.66843   6309701.15342  23964658.6644   23964657.6294
        46.0004         40.0004
  21872974.1534    7413039.37643   5782993.37242  21872975.1764   21872973.2544
        50.0004         44.0004
  24096004.3714     -38624.88153                                  24096006.7754
        44.0004
  20398548.0304    7703339.96344   6003230.89542  20398549.3474   20398546.5974
        57.0004         51.0004
  21217906.0904    -360032.89453   -273037.95352  21217907.1744   21217903.7004
        55.0004         49.0004
  24521428.4044     265490.31553    194199.79652  24521427.4504   24521427.2284
        43.0004         37.0004
  23971953.0844    -457255.45143   -344345.39942  23971953.8514   23971952.6044
        39.0004         40.0004
  21034149.2094    -414593.25743   -315793.63042  21034151.3774   21034146.3264
        51.0004         47.0004
  23549037.1464    -529789.42543   -371244.35742  23549037.1184   23549034.5674
        47.0004         41.0004
 04  6 17 15 31  0.0000000  0  9G30G26G17G 6G16G18G15G21G22
  23977468.4654    8176802.35243   6362161.86742  23977472.6974   23977466.9064
        46.0004         39.0004
  21870053.2944    7397691.00643   5771033.57442  21870055.3714   21870051.5194
        53.0004         45.0004
  24104593.3304       6506.13953       245.38552  24104593.8924   24104590.2404
        40.0004         35.0004
  20402115.5674    7722085.28644   6017837.62442  20402116.6954   20402113.6644
        57.0004         51.0004
  23806219.463
        45.000
  21210387.7304    -399541.50243   -303823.88442  21210389.2314   21210385.8254
        56.0004         49.0004
  23962526.0984    -506798.14743   -382950.10242  23962526.0724   23962527.7444
        46.0004         39.0004
  21030326.0414    -434685.08444   -331449.60742  21030326.9624   21030322.6714
        57.0004         49.0004
  23536839.0854    -593889.93143   -421192.78642  23536840.7714   23536834.8444
        46.0004         41.0004
 04  6 17 15 31 20.0000000  0 10G30G26G17G 6G16G18G10G15G21G22
  23990277.9354    8244116.64943   6414614.47942  23990278.6754   23990278.7454
        46.0004         39.0004
  21867185.1744    7382620.00343   5759289.94042  21867186.2464   21867184.0534
        51.0004         45.0004
  24113185.4284      51660.50543     35430.58442  24113184.8434   24113184.6514
        44.0004         37.0004
  20405722.8864    7741043.66044   6032610.37342  20405724.3634   20405721.3984
        57.0004         51.0004
  23801124.9384    -192207.73453   -145001.23852  23801127.5844   23801124.6404
        44.0004         37.0004
  21202904.2624    -438867.30543   -334467.37142  21202905.6384   21202901.9364
        56.0004         49.0004
  24548473.700
        45.000
  23953101.8954    -556319.78043   -421538.37942  23953101.4454   23953101.5124
        46.0004         40.0004
  21026516.4614    -454704.65244   -347049.27042  21026517.4214   21026513.0014
        57.0004         49.0004
  23524659.9484    -657890.06743   -471062.99042  23524659.5344   23524656.2864
        48.0004         41.0004
 04  6 17 15 31 40.0000000  0 10G30G26G17G 6G16G18G10G15G21G22
  24003085.6934    8311421.89343   6467060.03142  24003088.4444   24003086.0784
        46.0004         39.0004
  21864370.6964    7367829.03043   5747764.50142  21864371.8284   21864370.1744
        51.0004         45.0004
  24121782.2974      96840.46543     70635.70942  24121783.0304   24121782.2384
        44.0004         38.0004
  20409371.5754    7760217.19344   6047550.77042  20409372.9704   20409369.8994
        57.0004         51.0004
  23796076.8064    -218733.19443   -165670.40642  23796079.8984   23796076.5294
        43.0004         38.0004
  21195456.1844    -478007.76543   -364966.42842  21195457.2274   21195453.8334
        56.0004         49.0004
  24562000.4134     -35561.22253    -32834.55452  24561999.9164   24562002.3934
        44.0004         38.0004
  23943682.2094    -605818.00543   -460108.41942  23943683.0444   23943682.2974
        46.0004         40.0004
  21022721.0674    -474649.72344   -362590.89242  21022721.7454   21022717.6344
        57.0004         49.0004
  23512500.5164    -721786.98743   -520852.76742  23512499.4784   23512497.1394
        48.0004         41.0004
 04  6 17 15 32  0.0000000  0 10G30G26G17G 6G16G18G10G15G21G22
  24015891.5804    8378716.47143   6519497.28142  24015892.0954   24015892.2424
        45.0004         39.0004
  21861609.4734    7353317.60443   5736456.89142  21861610.0504   21861607.5184
        51.0004         45.0004
  24130384.4604     142045.09643    105860.04842  24130385.3234   24130385.0524
        44.0004         38.0004
  20413061.0214    7779605.04744   6062658.17642  20413062.4424   20413059.2784
        57.0004         51.0004
  23791072.9834    -245032.28143   -186163.19542  23791073.1454   23791069.9694
        43.0004         38.0004
  21188043.1844    -516963.62443   -395321.64542  21188044.1804   21188040.4414
        56.0004         49.0004
  24575527.8934      35529.39143     22560.74842  24575527.5224   24575527.8324
        44.0004         38.0004
  23934267.7824    -655293.75643   -498660.94342  23934268.5524   23934267.3304
        46.0004         40.0004
  21018939.6304    -494520.99544   -378075.00542  21018940.7284   21018936.4144
        57.0004         49.0004
  23500361.2934    -785581.30643   -570562.59242  23500360.8084   23500358.0954
        47.0004         41.0004
 04  6 17 15 32 20.0000000  0 10G30G26G17G 6G16G18G10G15G21G22
  24028694.5464    8445997.64843   6571924.09442  24028697.6344   24028694.1184
        46.0004         39.0004
  21858900.7794    7339084.41443   5725366.08942  21858902.7044   21858899.0144
        51.0004         45.0004
  24138990.8024     187272.61743    141102.21342  24138991.7644   24138990.2634
        43.0004         38.0004
  20416790.8324    7799205.43944   6077931.19542  20416792.2524   20416788.9014
        57.0004         51.0004
  23786110.4694    -271106.50043   -206480.77742  23786111.9624   23786110.7384
        43.0004         37.0004
  21180665.0514    -555736.47743   -425534.25742  21180666.2044   21180662.0944
        56.0004         49.0004
  24589057.5454     106627.94943     77962.18642  24589057.6144   24589057.4674
        43.0004         37.0004
  23924857.1144    -704748.84843   -537197.36542  23924857.2194   23924857.6494
        46.0004         40.0004
  21015171.8924    -514320.30344   -393503.03942  21015172.9784   21015168.5734
        57.0004         50.0004
  23488240.8874    -849274.35243   -620193.51042  23488240.8824   23488238.2324
        48.0004         41.0004
 04  6 17 15 32 40.0000000  0 10G30G26G17G 6G16G18G10G15G21G22
  24041496.3694    8513269.25943   6624343.44242  24041497.6574   24041496.5294
        45.0004         39.0004
  21856246.3304    7325134.53043   5714496.04442  21856248.2914   21856245.8314
        51.0004         45.0004
  24147603.4024     232527.71943    176365.88642  24147604.3324   24147604.2754
        44.0004         38.0004
  20420561.8434    7819022.92244   6093373.37442  20420563.4594   20420560.2194
        57.0004         51.0004
  23781193.5754    -296950.95443   -226619.31442  23781194.0204   23781191.6084
        44.0004         37.0004
  21173322.4584    -594321.48743   -455600.50242  21173323.3634   21173319.8684
        56.0004         49.0004
  24602589.4924     177738.41843    133372.88642  24602589.5894   24602590.3394
        44.0004         38.0004
  23915451.1694    -754178.69243   -575714.12042  23915451.9344   23915450.1684
        46.0004         40.0004
  21011419.0484    -534042.90644   -408871.30742  21011420.1314   21011415.8354
        57.0004         49.0004
  23476140.5904    -912861.02843   -669741.53842  23476140.9234   23476137.5004
        48.0004         42.0004
 04  6 17 15 33  0.0000000  0 10G30G26G17G 6G16G18G10G15G21G22
  24054294.2354    8580522.30143   6676748.33142  24054296.8704   24054295.4404
        45.0004         39.0004
  21853643.9764    7311460.22643   5703840.74242  21853645.7384   21853643.9094
        52.0004         45.0004
  24156218.6804     277802.17643    211644.66042  24156218.5194   24156217.7354
        44.0004         38.0004
  20424372.8624    7839049.46644   6108978.46342  20424374.3144   20424371.0364
        57.0004         51.0004
  23776315.8724    -322573.57643   -246585.00942  23776318.5694   23776316.9464
        43.0004         37.0004
  21166014.1404    -632726.45243   -485526.44742  21166015.1694   21166011.7174
        56.0004         49.0004
  24616121.9494     248852.21243    188786.18142  24616121.9874   24616121.5994
        44.0004         38.0004
  23906047.6224    -803591.23343   -614217.39142  23906048.7184   23906046.8904
        46.0004         40.0004
  21007678.6674    -553697.19944   -424186.34742  21007680.1514   21007675.3724
        57.0004         49.0004
  23464059.4034    -976348.95043   -719212.61842  23464060.3544   23464056.5634
        49.0004         42.0004
 04  6 17 15 33 20.0000000  0 10G30G26G17G 6G16G18G10G15G21G22
  24067089.3484    8647759.79543   6729141.09542  24067090.5524   24067090.4254
        45.0004         38.0004
  21851095.4014    7298065.73243   5693403.46642  21851097.7284   21851094.6514
        52.0004         45.0004
  24164838.1204     323099.89443    246941.53042  24164837.4474   24164839.1694
        43.0004         38.0004
  20428224.2504    7859288.81444   6124749.36642  20428225.7784   20428222.7124
        57.0004         51.0004
  23771484.3064    -347970.13943   -266374.54142  23771486.8444   23771483.7814
        43.0004         38.0004
  21158740.9874    -670947.39043   -515308.99642  21158742.4734   21158738.4014
        56.0004         49.0004
  24629655.9994     319972.49843    244204.52142  24629656.5894   24629656.3144
        44.0004         38.0004
  23896649.2004    -852982.75343   -652704.29542  23896649.4724   23896647.5434
        46.0004         40.0004
  21003952.3864    -573279.16244   -439445.02542  21003953.5774   21003949.0614
        57.0004         50.0004
  23451997.6324   -1039733.92943   -768603.48942  23451998.4464   23451994.2904
        49.0004         42.0004
 04  6 17 15 33 40.0000000  0 10G30G26G17G 6G16G18G10G15G21G22
  24079880.4694    8714982.07043   6781522.01042  24079882.5144   24079880.7284
        44.0004         39.0004
  21848599.5964    7284952.48543   5683185.34642  21848601.4964   21848597.8324
        52.0004         45.0004
  24173462.6824     368421.87243    282257.32442  24173463.9954   24173462.8964
        43.0004         38.0004
  20432116.3044    7879741.99144   6140686.89342  20432118.0194   20432114.9074
        57.0004         51.0004
  23766695.4584    -373139.45043   -285987.00942  23766696.2264   23766694.1014
        43.0004         38.0004
  21151503.0214    -708983.04743   -544947.16942  21151504.1134   21151500.4244
        56.0004         49.0004
  24643191.5264     391099.55743    299628.15342  24643191.1844   24643191.8734
        44.0004         39.0004
  23887253.9884    -902352.36043   -691174.11042  23887255.6614   23887255.5634
        47.0004         40.0004
  21000240.3514    -592787.84044   -454646.59642  21000241.1094   21000237.0024
        57.0004         49.0004
  23439955.7504   -1103014.44943   -817912.96342  23439956.3884   23439952.6514
        49.0004         42.0004
 04  6 17 15 34  0.0000000  0 10G30G26G17G 6G16G18G10G15G21G22
  24092669.9874    8782186.67843   6833889.14242  24092671.4844   24092669.2734
        45.0004         38.0004
  21846157.7814    7272119.45743   5673185.57742  21846159.6684   21846156.5674
        52.0004         45.0004
  24182091.6534     413766.76043    317590.96142  24182091.1594   24182092.2674
        42.0004         38.0004
  20436049.0394    7900407.63544   6156789.97742  20436050.3544   20436047.4154
        57.0004         51.0004
  23761948.6324    -398082.76143   -305423.36742  23761949.0554   23761946.5094
        44.0004         38.0004
  21144300.0384    -746834.81143   -574442.05142  21144301.6054   21144297.7224
        56.0004         49.0004
  24656726.6174     462231.26843    355055.39442  24656726.9834   24656727.0844
        44.0004         38.0004
  23877863.1254    -951701.64743   -729628.09342  23877864.3434   23877863.0224
        47.0004         40.0004
  20996541.2964    -612224.78544   -469792.26742  20996542.3874   20996538.0194
        57.0004         50.0004
  23427933.5194   -1166191.68743   -867141.95342  23427934.2874   23427930.3614
        49.0004         42.0004
 04  6 17 15 34 20.0000000  0 10G30G26G17G 6G16G18G10G15G21G22
  24105456.7764    8849378.85443   6886246.58842  24105459.4914   24105456.7044
        46.0004         39.0004
  21843770.1474    7259572.95143   5663409.07042  21843772.1494   21843768.9274
        52.0004         45.0004
  24190725.4874     459140.56543    352947.13642  24190726.6624   24190726.4074
        43.0004         38.0004
  20440023.0694    7921291.53444   6173063.12742  20440024.5444   20440021.6384
        57.0004         51.0004
  23757246.5794    -422793.53643   -324678.51742  23757248.4034   23757244.6604
        44.0004         38.0004
  21137133.3534    -784496.36443   -603788.72142  21137134.5824   21137130.7194
        56.0004         49.0004
  24670264.6064     533373.09243    410490.50142  24670265.2354   24670262.9634
        43.0004         38.0004
  23868477.2634   -1001024.62043   -768061.57742  23868478.4334   23868476.4894
        47.0004         40.0004
  20992857.7554    -631583.45344   -484876.95742  20992858.4814   20992854.1254
        57.0004         50.0004
  23415932.4874   -1229259.02843   -916285.30742  23415932.0184   23415928.4554
        49.0004         42.0004
 04  6 17 15 34 40.0000000  0 10G30G26G17G 6G16G18G10G15G21G22
  24118236.8694    8916542.40643   6938581.73542  24118239.0074   24118238.1374
        45.0004         38.0004
  21841434.3494    7247298.23843   5653844.35442  21841435.5184   21841433.0884
        52.0004         45.0004
  24199362.7524     504527.84843    388313.80342  24199364.8994   24199362.8474
        44.0004         38.0004
  20444035.7174    7942378.45144   6189494.47442  20444037.3014   20444034.2414
        57.0004         51.0004
  23752584.5034    -447287.24443   -343764.55042  23752588.1374   23752584.0814
        43.0004         38.0004
  21130000.0474    -821982.86043   -632998.97342  21130000.9814   21129997.4984
        56.0004         49.0004
  24683802.2194     604509.05343    465921.06642  24683802.5964   24683801.8424
        43.0004         38.0004
  23859093.8904   -1050336.64943   -806486.52742  23859094.1734   23859093.4434
        47.0004         40.0004
  20989185.7724    -650879.50444   -499912.84642  20989186.5584   20989182.3784
        57.0004         50.0004
  23403949.1214   -1292231.43243   -965354.69242  23403949.2484   23403944.1374
        50.0004         42.0004
 04  6 17 15 35  0.0000000  0  9G30G26G17G 6G16G18G15G21G22
  24131016.2514    8983698.52643   6990911.09342  24131019.0634   24131017.3644
        46.0004         38.0004
  21839154.6074    7235317.39943   5644508.62842  21839156.6494   21839153.9364
        52.0004         45.0004
  24208006.9084     549950.62943    423708.15042  24208007.5094   24208006.8444
        44.0004         38.0004
  20448091.3464    7963690.10944   6206100.94542  20448092.6134   20448090.0314
        57.0004         51.0004
  23747970.1114    -471541.55343   -362664.01442  23747970.1894   23747967.9734
        43.0004         38.0004
  21122904.0764    -859272.15843   -662055.56642  21122904.9794   21122901.2554
        56.0004         49.0004
  23849716.0264   -1099615.78543   -844885.84142  23849716.8854   23849714.3964
        47.0004         40.0004
  20985529.9114    -670090.91544   -514882.78042  20985530.9464   20985526.5644
        57.0004         50.0004
  23391987.8034   -1355086.47243  -1014332.62442  23391988.4134   23391985.2444
        50.0004         42.0004
 04  6 17 15 35 20.0000000  0  9G30G26G17G 6G16G18G15G21G22
  24143790.6954    9050826.70143   7043218.68342  24143793.0944   24143791.4964
        45.0004         38.0004
  21836926.6404    7223611.39743   5635387.05942  21836928.7174   21836926.0804
        52.0004         45.0004
  24216653.8604     595389.23043    459114.82342  24216653.1244   24216652.7204
        44.0004         38.0004
  20452185.9394    7985207.15544   6222867.45742  20452187.2854   20452184.2534
        57.0004         51.0004
  23743395.7824    -495575.82043   -381392.01842  23743397.5174   23743395.6754
        44.0004         38.0004
  21115841.9724    -896383.86943   -690973.78042  21115843.0024   21115839.4884
        56.0004         49.0004
  23840340.7494   -1148881.61243   -883274.77442  23840342.5934   23840341.1594
        47.0004         40.0004
  20981886.5714    -689237.13944   -529801.92242  20981887.5454   20981883.3954
        57.0004         50.0004
  23380045.8334   -1417843.41543  -1063234.12442  23380045.7514   23380041.7534
        50.0004         42.0004
 04  6 17 15 35 40.0000000  0  9G30G26G17G 6G16G18G15G21G22
  24156561.9824    9117936.91643   7095512.26642  24156563.0474   24156563.1014
        44.0004         38.0004
  21834754.0004    7212191.49143   5626488.42542  21834755.8774   21834752.6104
        52.0004         46.0004
  24225305.0104     640854.59643    494542.34142  24225305.3494   24225305.3454
        43.0004         38.0004
  20456321.5304    8006940.14244   6239802.23642  20456323.1004   20456319.9284
        57.0004         51.0004
  23738866.9134    -519378.95843   -399939.93042  23738867.8434   23738864.0964
        44.0004         38.0004
  21108815.6984    -933306.91043   -719744.97442  21108816.9554   21108813.4514
        56.0004         49.0004
  23830970.8094   -1198123.40243   -921644.99042  23830972.1994   23830968.9984
        47.0004         40.0004
  20978257.5594    -708307.50944   -544661.95542  20978258.5964   20978254.6664
        57.0004         50.0004
  23368124.4484   -1480491.06343  -1112050.44642  23368124.7784   23368121.6304
        49.0004         43.0004
 04  6 17 15 36  0.0000000  0  9G30G26G17G 6G16G18G15G21G22
  24169326.2614    9185021.44043   7147785.82742  24169329.2374   24169328.0754
        44.0004         38.0004
  21832633.8794    7201050.89843   5617807.43542  21832635.1064   21832632.5244
        52.0004         46.0004
  24233960.7454     686339.67843    529985.21942  24233960.9964   24233960.7944
        44.0004         38.0004
  20460496.9454    8028882.12444   6256899.86342  20460498.3424   20460495.2284
        57.0004         51.0004
  23734379.8544    -542957.76943   -418313.04742  23734381.9814   23734378.4194
        44.0004         38.0004
  21101824.0664    -970048.06643   -748374.44142  21101825.3154   21101821.4524
        56.0004         49.0004
  23821603.2244   -1247348.16543   -960001.93942  23821603.9104   23821603.3214
        47.0004         40.0004
  20974641.7704    -727309.18944   -559468.46642  20974642.6054   20974638.7814
        57.0004         50.0004
  23356222.5224   -1543035.79243  -1160786.57442  23356223.0234   23356218.2954
        50.0004         43.0004
 04  6 17 15 36 20.0000000  0  9G30G26G17G 6G16G18G15G21G22
  24182089.8584    9252084.54343   7200042.69842  24182092.3484   24182089.6324
        45.0004         38.0004
  21830568.1914    7190195.33043   5609348.53742  21830569.9784   21830567.4194
        52.0004         46.0004
  24242621.4844     731849.70143    565447.53242  24242622.0114   24242620.8764
        44.0004         38.0004
  20464713.0924    8051038.30544   6274164.40542  20464714.8374   20464711.5064
        57.0004         51.0004
  23729936.9894    -566306.95843   -436507.22642  23729937.7034   23729935.4944
        44.0004         38.0004
  21094867.9654   -1006602.00243   -776858.02442  21094869.5164   21094865.3984
        56.0004         49.0004
  23812240.5104   -1296550.69443   -998341.55342  23812240.8774   23812240.6024
        47.0004         40.0004
  20971039.9054    -746236.50244   -574217.02642  20971041.1054   20971036.6904
        57.0004         50.0004
  23344340.9554   -1605472.10043  -1209438.22142  23344342.1604   23344337.9364
        49.0004         43.0004
 04  6 17 15 36 40.0000000  0  9G30G26G17G 6G16G18G15G21G22
  24194845.6184    9319127.76243   7252284.08242  24194848.5734   24194846.6194
        45.0004         38.0004
  21828557.4394    7179627.28743   5601113.69142  21828559.2774   21828556.5164
        52.0004         46.0004
  24251286.4234     777386.97543    600931.09042  24251286.2274   24251286.8864
        43.0004         38.0004
  20468970.5284    8073410.87644   6291597.55742  20468971.9494   20468968.7584
        57.0004         51.0004
  23725538.1544    -589423.83243   -454520.38942  23725539.6904   23725536.3624
        44.0004         38.0004
  21087948.2154   -1042966.10043   -805193.67542  21087949.2184   21087945.7924
        56.0004         50.0004
  23802882.1794   -1345728.82643  -1036662.15842  23802882.9034   23802882.6184
        46.0004         40.0004
  20967452.8234    -765087.43244   -588906.06642  20967453.9124   20967449.9384
        57.0004         50.0004
  23332481.1064   -1667797.27543  -1258003.27042  23332481.1374   23332476.9054
        50.0004         43.0004
 04  6 17 15 37  0.0000000  0  9G30G26G17G 6G16G18G15G21G22
  24207599.9924    9386143.60843   7304504.13042  24207601.7674   24207599.6834
        45.0004         38.0004
  21826600.1854    7169340.43443   5593097.94942  21826601.0864   21826597.8174
        53.0004         46.0004
  24259955.5744     822944.77243    636430.63242  24259956.7324   24259956.5234
        43.0004         38.0004
  20473267.6994    8095993.01344   6309194.00842  20473269.2464   20473266.3054
        57.0004         51.0004
  23721181.9824    -612315.02543   -472357.68342  23721182.8364   23721180.0654
        45.0004         38.0004
  21081063.3524   -1079147.00844   -833386.58642  21081064.5474   21081060.9484
        57.0004         50.0004
  23793527.2874   -1394889.36643  -1074969.07242  23793529.3634   23793527.1484
        46.0004         40.0004
  20963878.8604    -783868.35644   -603540.55942  20963879.7204   20963875.6804
        57.0004         50.0004
  23320640.7824   -1730017.52743  -1306486.55542  23320640.7904   23320637.2994
        50.0004         43.0004
 04  6 17 15 37 20.0000000  0  9G30G26G17G 6G16G18G15G21G22
  24220347.8814    9453134.77843   7356704.95142  24220349.6244   24220348.6404
        45.0004         38.0004
  21824696.5554    7159338.71743   5585304.39942  21824697.9414   21824695.3724
        53.0004         46.0004
  24268630.4784     868526.57043    671948.86742  24268630.7684   24268630.6934
        44.0004         38.0004
  20477605.6924    8118788.19044   6326956.46542  20477607.1854   20477604.1554
        57.0004         51.0004
  23716869.3954    -634976.70843   -490016.16242  23716870.7944   23716867.8934
        44.0004         38.0004
  21074213.7554   -1115141.21343   -861434.01142  21074215.1364   21074211.1104
        56.0004         50.0004
  23784176.0564   -1444028.85443  -1113259.57942  23784177.6354   23784176.6284
        47.0004         40.0004
  20960318.8914    -802575.73744   -618117.74742  20960320.1444   20960315.8454
        57.0004         50.0004
  23308821.4364   -1792128.99043  -1354885.07542  23308822.3014   23308818.8944
        50.0004         43.0004
 04  6 17 15 37 40.0000000  0  9G30G26G17G 6G16G18G15G21G22
  24233092.2814    9520100.72343   7408886.10842  24233096.2734   24233094.2044
        46.0004         38.0004
  21822847.6324    7149622.90443   5577733.62742  21822849.0284   21822846.8834
        53.0004         46.0004
  24277308.5004     914132.91643    707486.23742  24277308.3984   24277309.2954
        44.0004         38.0004
  20481984.0724    8141796.77044   6344885.21142  20481985.4504   20481982.1814
        57.0004         51.0004
  23712601.1274    -657408.43143   -507495.44342  23712603.0884   23712598.6994
        44.0004         38.0004
  21067399.9324   -1150948.13143   -889335.49642  21067401.1134   21067397.4544
        56.0004         50.0004
  23774829.5524   -1493146.80443  -1151533.29242  23774829.4244   23774829.1044
        47.0004         40.0004
  20956773.0414    -821209.60844   -632637.65042  20956774.0894   20956770.0084
        57.0004         50.0004
  23297023.0664   -1854130.86843  -1403198.20242  23297023.5094   23297020.4164
        50.0004         43.0004
 04  6 17 15 38  0.0000000  0  9G30G26G17G 6G16G18G15G21G22
  24245829.7084    9587040.29343   7461046.73542  24245830.4574   24245829.2494
        45.0004         38.0004
  21821053.2764    7140192.63243   5570385.35342  21821054.9874   21821052.3154
        53.0004         46.0004
  24285991.6004     959763.30843    743042.34742  24285992.4094   24285991.6654
        44.0004         38.0004
  20486402.9214    8165018.10544   6362979.73542  20486404.3904   20486401.3704
        57.0004         51.0004
  23708375.2084    -679610.54843   -524795.80742  23708377.7544   23708373.9214
        44.0004         38.0004
  21060621.8454   -1186567.92444   -917091.17242  21060623.0494   21060619.3154
        57.0004         50.0004
  23765486.7374   -1542243.88543  -1189790.74242  23765486.9764   23765487.4134
        46.0004         40.0004
  20953241.1374    -839770.41244   -647100.61842  20953242.0224   20953237.8914
        57.0004         50.0004
  23285245.2164   -1916023.13443  -1451425.91942  23285245.1144   23285241.5074
        50.0004         43.0004
 04  6 17 15 38 20.0000000  0  9G30G26G17G 6G16G18G15G21G22
  24258562.9434    9653952.09943   7513185.71142  24258565.1084   24258564.2164
        45.0004         38.0004
  21819313.1784    7131047.95043   5563259.62542  21819314.2364   21819313.0334
        53.0004         46.0004
  24294679.3484    1005417.23043    778616.78542  24294677.9524   24294680.0444
        43.0004         38.0004
  20490862.2614    8188451.83144   6381239.76542  20490863.7184   20490860.6264
        57.0004         50.0004
  23704194.1124    -701583.05543   -541917.25442  23704195.0534   23704191.6514
        44.0004         38.0004
  21053879.0334   -1222000.94944   -944701.31042  21053880.1814   21053876.5724
        57.0004         50.0004
  23756147.9954   -1591320.28643  -1228032.07742  23756148.0944   23756147.5884
        47.0004         40.0004
  20949723.0614    -858258.24644   -661506.72142  20949723.9774   20949719.9944
        57.0004         50.0004
  23273488.3624   -1977805.66543  -1499568.13242  23273489.0174   23273483.8524
        50.0004         43.0004
 04  6 17 15 38 40.0000000  0  9G30G26G17G 6G16G18G15G21G22
  24271289.5724    9720833.84843   7565301.26442  24271291.2534   24271291.1444
        44.0004         39.0004
  21817627.1394    7122187.73043   5556355.55042  21817628.2884   21817626.0914
        53.0004         46.0004
  24303371.5854    1051093.24143    814208.44142  24303372.1764   24303372.1934
        43.0004         38.0004
  20495361.5464    8212096.29044   6399664.00542  20495362.7374   20495360.1014
        57.0004         50.0004
  23700056.8544    -723327.46343   -558860.96942  23700057.8474   23700054.9524
        43.0004         38.0004
  21047171.6424   -1257248.77944   -972167.14842  21047172.6954   21047169.1474
        57.0004         50.0004
  23746812.1734   -1640377.84143  -1266258.74042  23746812.0644   23746812.2354
        47.0004         41.0004
  20946218.5034    -876674.65044   -675857.16942  20946219.5384   20946215.5524
        57.0004         50.0004
  23261752.0554   -2039479.79543  -1547625.88342  23261752.9744   23261749.6404
        50.0004         43.0004
 04  6 17 15 39  0.0000000  0  9G30G26G17G 6G16G18G15G21G22
  24284011.4984    9787690.17843   7617397.01342  24284015.3674   24284015.4924
        44.0004         38.0004
  21815996.2134    7113617.53843   5549677.46542  21815997.4464   21815996.1124
        53.0004         46.0004
  24312069.0724    1096796.72143    849821.50042  24312069.5154   24312067.8944
        44.0004         38.0004
  20499902.1044    8235956.85144   6418256.62842  20499903.6454   20499900.6454
        57.0004         50.0004
  23695963.4674    -744838.03543   -575622.47142  23695964.5384   23695961.0494
        44.0004         38.0004
  21040500.4364   -1292305.66344   -999484.19342  21040501.7024   21040498.2164
        57.0004         50.0004
  23737481.2294   -1689410.98343  -1304466.38642  23737483.8664   23737481.9284
        48.0004         41.0004
  20942728.8684    -895013.35844   -690147.07542  20942729.6474   20942725.4964
        57.0004         50.0004
  23250037.5954   -2101039.67743  -1595594.60542  23250037.8094   23250034.6394
        50.0004         43.0004
 04  6 17 15 39 20.0000000  0  9G30G26G17G 6G16G18G15G21G22
  24296728.8914    9854515.78143   7669468.82242  24296731.1414   24296731.0954
        45.0004         38.0004
  21814419.9784    7105333.21643   5543222.13842  21814420.7414   21814419.1644
        53.0004         46.0004
  24320770.5304    1142523.22143    885452.49642  24320770.2044   24320770.0784
        43.0004         38.0004
  20504482.9124    8260028.75044   6437013.93342  20504484.2524   20504481.6194
        57.0004         50.0004
  23691913.2894    -766119.19143   -592205.20642  23691914.8094   23691911.7154
        44.0004         38.0004
  21033864.8614   -1327176.06444  -1026655.93042  21033865.9704   21033862.4754
        57.0004         50.0004
  23728154.7364   -1738424.41143  -1342658.65842  23728156.0614   23728155.2894
        48.0004         41.0004
  20939252.6184    -913280.54344   -704381.24542  20939253.7074   20939249.5494
        57.0004         50.0004
  23238344.1064   -2162489.49643  -1643477.55942  23238344.2094   23238341.1634
        50.0004         43.0004
 04  6 17 15 39 40.0000000  0  9G30G26G17G 6G16G18G15G21G22
  24309440.2584    9921312.21043   7721517.89342  24309440.9584   24309441.8954
        44.0004         38.0004
  21812898.2144    7097337.40743   5536991.62642  21812899.9824   21812897.1764
        53.0004         46.0004
  24329476.7884    1188275.02543    921103.21642  24329478.9684   24329477.8744
        44.0004         38.0004
  20509104.3534    8284314.47144   6455937.85642  20509105.7754   20509102.7704
        57.0004         50.0004
  23687908.3744    -787168.41443   -608607.21042  23687909.3344   23687908.2664
        45.0004         38.0004
  21027265.2774   -1361857.46344  -1053680.39442  21027266.4644   21027262.7464
        57.0004         50.0004
  23718831.9864   -1787415.69743  -1380833.68042  23718831.7354   23718831.9024
        47.0004         41.0004
  20935790.5674    -931473.11044   -718557.27442  20935791.6414   20935787.6414
        57.0004         50.0004
  23226671.8164   -2223826.50443  -1691272.61842  23226672.3664   23226669.1654
        50.0004         43.0004
 04  6 17 15 40  0.0000000  0  9G30G26G17G 6G16G18G15G21G22
  24322144.3794    9988076.62643   7773542.02342  24322145.2644   24322145.4704
        44.0004         38.0004
  21811431.2404    7089628.53143   5530984.70142  21811432.9904   21811430.3964
        53.0004         46.0004
  24338187.8874    1234050.35643    956772.27342  24338188.5474   24338188.3014
        44.0004         38.0004
  20513765.9964    8308811.87544   6475026.73042  20513767.4414   20513764.5184
        57.0004         50.0004
  23683945.7724    -807987.46343   -624829.86442  23683946.9674   23683946.1554
        44.0004         38.0004
  21020701.2264   -1396351.57644  -1080558.92042  21020702.3174   21020698.8604
        57.0004         50.0004
  23709513.1604   -1836386.76943  -1418992.95442  23709513.6834   23709513.2024
        48.0004         40.0004
  20932342.3114    -949594.02644   -732677.47042  20932343.6734   20932338.9694
        57.0004         50.0004
  23215021.1134   -2285052.10243  -1738980.85742  23215021.9764   23215016.8434
        50.0004         43.0004
 04  6 17 15 40 20.0000000  0  9G30G26G17G 6G16G18G15G21G22
  24334843.0124   10054806.98843   7825539.61642  24334844.2224   24334845.0024
        45.0004         38.0004
  21810018.6024    7082205.47743   5525200.49142  21810020.6324   21810017.9734
        53.0004         46.0004
  24346902.3454    1279847.68543    992458.47142  24346901.6994   24346903.9064
        43.0004         38.0004
  20518467.7544    8333519.56444   6494279.46042  20518469.4184   20518466.1244
        57.0004         51.0004
  23680028.6314    -828577.56743   -640874.10342  23680029.0304   23680025.4304
        44.0004         38.0004
  21014172.5494   -1430659.88543  -1107292.66542  21014173.7934   21014170.2464
        56.0004         50.0004
  23700198.0064   -1885339.14543  -1457137.65242  23700199.4074   23700197.1654
        48.0004         41.0004
  20928907.6864    -967642.77844   -746741.44042  20928909.1154   20928904.4594
        57.0004         50.0004
  23203391.3974   -2346167.23543  -1786603.01942  23203392.0394   23203387.9324
        50.0004         43.0004
 04  6 17 15 40 40.0000000  0  9G30G26G17G 6G16G18G15G21G22
  24347535.7214   10121505.99743   7877512.77242  24347537.2064   24347536.6174
        44.0004         39.0004
  21808661.1114    7075072.19043   5519642.07642  21808663.3094   21808660.7434
        53.0004         46.0004
  24355622.2244    1325670.83843   1028164.77642  24355622.4104   24355621.4434
        42.0004         37.0004
  20523210.1824    8358441.00344   6513698.74942  20523211.4674   20523208.8674
        57.0004         50.0004
  23676154.8234    -848935.01343   -656737.07242  23676156.2974   23676152.5214
        44.0004         38.0004
  21007679.9574   -1464778.51944  -1133878.61142  21007681.3414   21007677.4184
        57.0004         50.0004
  23690886.9384   -1934269.14343  -1495264.92042  23690887.7134   23690887.8084
        48.0004         41.0004
  20925487.8764    -985615.98744   -760746.54042  20925488.9084   20925484.0644
        57.0004         50.0004
  23191783.6514   -2407167.87243  -1834135.97242  23191784.4864   23191779.4904
        50.0004         43.0004
 04  6 17 15 41  0.0000000  0  9G30G26G17G 6G16G18G15G21G22
  24360220.0444   10188172.02143   7929460.23342  24360222.3094   24360222.2654
        44.0004         39.0004
  21807358.8654    7068227.93443   5514308.87542  21807361.1364   21807357.8534
        53.0004         46.0004
  24364346.6394    1371518.65243   1063890.29842  24364347.0334   24364345.4944
        42.0004         37.0004
  20527993.1394    8383575.04544   6533283.69942  20527994.3654   20527991.6484
        57.0004         51.0004
  23672324.8294    -869060.56143   -672419.34142  23672326.9404   23672323.6304
        44.0004         38.0004
  21001223.3544   -1498708.08244  -1160317.23042  21001224.7024   21001220.9594
        57.0004         50.0004
  23681579.5944   -1983177.89043  -1533375.64142  23681580.6674   23681579.7674
        48.0004         41.0004
  20922081.5844   -1003514.93244   -774693.77442  20922082.5294   20922078.1684
        57.0004         50.0004
  23180196.9724   -2468054.73543  -1881580.26642  23180197.7514   23180193.9844
        50.0004         43.0004
 04  6 17 15 41 20.0000000  0  9G30G26G17G 6G16G18G15G21G22
  24372899.9924   10254804.72543   7981381.72442  24372902.7784   24372901.4794
        44.0004         39.0004
  21806111.7354    7061673.64843   5509201.62842  21806112.9484   21806110.5944
        53.0004         46.0004
  24373076.3214    1417391.97243   1099635.69042  24373076.4614   24373077.9804
        40.0004         37.0004
  20532816.6344    8408922.47444   6553034.92542  20532818.1414   20532814.8374
        57.0004         51.0004
  23668538.9744    -888953.25443   -687920.15742  23668540.5644   23668538.7624
        44.0004         38.0004
  20994802.9394   -1532447.98844  -1186608.06542  20994804.1414   20994800.5654
        57.0004         50.0004
  23672276.8884   -2032064.59743  -1571469.16442  23672277.5074   23672275.6074
        48.0004         41.0004
  20918689.8394   -1021338.96044   -788582.63342  20918690.6254   20918686.5644
        57.0004         50.0004
  23168632.7024   -2528826.59543  -1928934.95242  23168633.5334   23168628.5624
        50.0004         43.0004
 04  6 17 15 41 40.0000000  0  9G30G26G17G 6G16G18G15G21G22
  24385573.7504   10321399.89643   8033273.95542  24385575.8464   24385575.8514
        44.0004         39.0004
  21804918.9564    7055406.10943   5504317.81842  21804920.3374   21804918.4624
        53.0004         46.0004
  24381809.2134    1463287.21943   1135398.17942  24381809.4104   24381809.8324
        42.0004         37.0004
  20537679.8994    8434479.54344   6572949.51042  20537681.1294   20537678.3074
        57.0004         51.0004
  23664797.2584    -908616.60843   -703242.26342  23664798.2074   23664796.2304
        44.0004         38.0004
  20988417.8114   -1566001.77843  -1212753.87342  20988419.1574   20988415.5144
        56.0004         50.0004
  23662977.4234   -2080932.94043  -1609548.38742  23662977.2384   23662976.4794
        48.0004         41.0004
  20915311.7304   -1039091.62444   -802415.88142  20915312.6624   20915308.3874
        57.0004         50.0004
  23157089.5594   -2589486.58943  -1976202.46542  23157090.1584   23157085.4874
        50.0004         43.0004
 04  6 17 15 42  0.0000000  0  9G30G26G17G 6G16G18G15G21G22
  24398239.5394   10387960.17843   8085139.01642  24398241.2134   24398240.2064
        44.0004         39.0004
  21803781.7214    7049428.89343   5499660.23542  21803783.3764   21803780.5924
        53.0004         46.0004
  24390547.6174    1509207.72043   1171180.33942  24390548.0314   24390548.9404
        41.0004         37.0004
  20542583.9224    8460249.51944   6593029.99342  20542585.1884   20542582.3074
        57.0004         51.0004
  23661100.5364    -928047.08743   -718382.91942  23661101.0794   23661096.3594
        44.0004         38.0004
  20982068.8504   -1599365.86843  -1238751.86442  20982070.0724   20982066.6764
        56.0004         50.0004
  23653682.3024   -2129779.44843  -1647610.60042  23653683.8794   23653681.9734
        48.0004         41.0004
  20911947.7024   -1056769.41444   -816190.78542  20911948.5574   20911944.6504
        57.0004         50.0004
  23145567.8604   -2650031.06543  -2023379.96342  23145567.8704   23145564.3994
        50.0004         43.0004
 04  6 17 15 42 20.0000000  0  9G30G26G17G 6G16G18G15G21G22
  24410898.5884   10454485.65143   8136976.94842  24410901.5714   24410900.8204
        45.0004         39.0004
  21802699.6674    7043743.34243   5495229.92342  21802701.2394   21802698.5884
        53.0004         46.0004
  24399289.6974    1555154.60543   1206983.04842  24399291.3574   24399290.3904
        43.0004         37.0004
  20547528.4444    8486233.22644   6613277.01442  20547530.0364   20547526.6774
        57.0004         51.0004
  23657446.2934    -947243.48443   -733341.15942  23657448.3464   23657444.9714
        44.0004         38.0004
  20975756.2614   -1632538.98444  -1264601.04142  20975757.1944   20975753.7194
        57.0004         50.0004
  23644391.1484   -2178603.11343  -1685655.01842  23644392.1174   23644390.7854
        48.0004         41.0004
  20908598.2154   -1074371.17344   -829906.44642  20908598.9534   20908595.1674
        57.0004         50.0004
  23134069.0074   -2710458.52343  -2070466.28742  23134070.3204   23134065.4424
        50.0004         43.0004
 04  6 17 15 42 40.0000000  0  9G30G26G17G 6G16G18G15G21G22
  24423552.4574   10520971.57443   8188784.06742  24423553.9774   24423554.5264
        46.0004         39.0004
  21801672.4074    7038345.61643   5491023.89442  21801674.1704   21801671.4994
        53.0004         46.0004
  24408038.7704    1601123.77343   1242803.12042  24408038.4884   24408039.3754
        43.0004         37.0004
  20552512.8174    8512426.60444   6633687.42142  20552514.2484   20552511.2834
        57.0004         51.0004
  23653837.7814    -966209.78643   -748120.10742  23653839.3444   23653836.6124
        44.0004         38.0004
  20969479.1834   -1665525.25143  -1290304.62342  20969480.4794   20969476.5484
        56.0004         50.0004
  23635104.2664   -2227408.11343  -1723684.88342  23635106.0004   23635106.1084
        48.0004         41.0004
  20905262.4374   -1091901.00244   -843566.05842  20905263.6244   20905259.2334
        57.0004         50.0004
  23122591.7314   -2770772.73343  -2117464.35742  23122592.2964   23122588.3004
        50.0004         44.0004
 04  6 17 15 43  0.0000000  0  8G30G26G 6G16G18G15G21G22
  24436199.6484   10587432.57543   8240571.76342  24436202.9324   24436200.4904
        46.0004         39.0004
  21800703.3814    7033251.34343   5487054.32042  21800704.8894   21800702.2924
        53.0004         46.0004
  20557540.1264    8538845.00344   6654273.16842  20557541.7734   20557538.5084
        57.0004         51.0004
  23650275.8014    -984930.26343   -762707.51542  23650277.0814   23650275.3594
        44.0004         38.0004
  20963240.5214   -1698309.07143  -1315850.45942  20963241.9004   20963237.9864
        56.0004         50.0004
  23625823.5134   -2276178.93043  -1761688.11842  23625825.4114   23625822.2014
        48.0004         41.0004
  20901943.1234   -1109343.70143   -857157.77642  20901943.9844   20901939.7364
        56.0004         50.0004
  23111138.7684   -2830957.71043  -2164361.73142  23111138.9724   23111136.1294
        50.0004         44.0004
 04  6 17 15 43 20.0000000  0  8G30G26G 6G16G18G15G21G22
  24448835.9394   10653840.86343   8292318.38442  24448839.5884   24448838.8024
        46.0004         39.0004
  21799786.2494    7028433.77443   5483300.36042  21799788.0614   21799785.9534
        53.0004         46.0004
  20562604.9694    8565461.06944   6675012.94242  20562606.5214   20562603.4714
        57.0004         51.0004
  23646755.2934   -1003431.99843   -777124.46342  23646755.8474   23646752.9764
        44.0004         38.0004
  20957035.4124   -1730917.32543  -1341259.48642  20957036.8144   20957032.7604
        56.0004         50.0004
  23616544.1184   -2324942.69743  -1799685.85942  23616547.3434   23616545.8324
        48.0004         41.0004
  20898635.4584   -1126725.92543   -870702.37342  20898636.3894   20898631.9124
        56.0004         50.0004
  23099705.3964   -2891040.21143  -2211179.25242  23099705.8164   23099702.5954
        50.0004         44.0004
 04  6 17 15 43 40.0000000  0  8G30G26G 6G16G18G15G21G22
  24461466.0824   10720210.15843   8344034.62042  24461470.2324   24461468.2384
        46.0004         39.0004
  21798924.9814    7023907.84843   5479773.65142  21798927.0314   21798923.8874
        53.0004         46.0004
  20567710.3564    8592289.47244   6695918.16942  20567711.8634   20567708.8874
        57.0004         51.0004
  23643277.7784   -1021700.29243   -791359.50942  23643280.1024   23643277.5474
        44.0004         38.0004
  20950866.5054   -1763335.30543  -1366520.25042  20950867.6404   20950864.0074
        56.0004         50.0004
  23607268.9304   -2373684.89943  -1837666.79842  23607270.2224   23607267.1114
        48.0004         41.0004
  20895342.0994   -1144033.14644   -884188.52242  20895342.7474   20895338.5824
        57.0004         50.0004
  23088294.5314   -2951005.15343  -2257905.16742  23088294.7374   23088291.4524
        50.0004         44.0004
 04  6 17 15 44  0.0000000  0  8G30G26G 6G16G18G15G21G22
  24474088.7254   10786542.63443   8395722.17942  24474090.8654   24474089.0104
        45.0004         39.0004
  21798119.9264    7019676.54243   5476476.51842  21798121.4094   21798118.9154
        53.0004         46.0004
  20572856.5944    8619332.87944   6716990.92942  20572857.9144   20572855.3804
        57.0004         51.0004
  23639847.2114   -1039732.06543   -805410.24642  23639847.3024   23639845.7154
        45.0004         38.0004
  20944734.4224   -1795559.97143  -1391630.37842  20944735.5244   20944732.0474
        56.0004         50.0004
  23597997.9724   -2422402.69443  -1875628.70442  23597998.2754   23597999.0544
        49.0004         41.0004
  20892063.3874   -1161262.31644   -897613.85842  20892064.2084   20892060.0354
        57.0004         50.0004
  23076906.3494   -3010849.27443  -2304536.94242  23076906.4244   23076903.8054
        50.0004         44.0004
 04  6 17 15 44 20.0000000  0  8G30G26G 6G16G18G15G21G22
  24486701.9694   10852830.57743   8447375.03142  24486704.6494   24486703.3324
        45.0004         39.0004
  21797369.3484    7015733.25443   5473403.81442  21797370.9614   21797368.1034
        53.0004         46.0004
  20578042.3094    8646584.19244   6738225.69742  20578043.6634   20578040.5594
        57.0004         51.0004
  23636459.8694   -1057534.11443   -819281.99442  23636461.0624   23636457.8304
        44.0004         38.0004
  20938637.7524   -1827598.20843  -1416595.23942  20938638.9464   20938635.4474
        56.0004         50.0004
  23588730.6574   -2471102.92043  -1913576.92342  23588731.2154   23588729.5774
        49.0004         41.0004
  20888798.4314   -1178420.16244   -910983.61442  20888799.6674   20888795.2664
        57.0004         50.0004
  23065540.2274   -3070579.13243  -2351079.67742  23065540.4174   23065536.9904
        50.0004         43.0004
 04  6 17 15 44 40.0000000  0  8G30G26G 6G16G18G15G21G22
  24499307.3054   10919076.72743   8498995.29942  24499310.4324   24499310.3784
        45.0004         39.0004
  21796674.3374    7012081.65443   5470558.39942  21796676.3234   21796673.6544
        53.0004         46.0004
  20583268.2844    8674046.96644   6759625.24442  20583269.7404   20583266.8314
        57.0004         51.0004
  23633116.4934   -1075102.76643   -832971.85742  23633117.7144   23633116.0884
        44.0004         38.0004
  20932577.2614   -1859446.35443  -1441411.97542  20932578.3244   20932574.8434
        56.0004         50.0004
  23579467.3294   -2519782.05143  -1951508.70642  23579466.7434   23579468.1744
        48.0004         41.0004
  20885547.4744   -1195503.31044   -924295.16042  20885548.5174   20885544.5894
        57.0004         50.0004
  23054196.4054   -3130190.82743  -2397530.33342  23054196.1964   23054192.7574
        50.0004         43.0004
 04  6 17 15 45  0.0000000  0  8G30G26G 6G16G18G15G21G22
  24511905.7344   10985282.92843   8550584.45042  24511907.9524   24511908.0964
        44.0004         39.0004
  21796036.1504    7008724.73543   5467942.60442  21796037.4364   21796034.4254
        52.0004         46.0004
  20588535.0294    8701723.63144   6781191.45342  20588536.4804   20588533.3124
        57.0004         51.0004
  23629818.2954   -1092435.25743   -846477.70342  23629819.7504   23629817.4104
        45.0004         38.0004
  20926553.5064   -1891101.57143  -1466078.38042  20926554.8494   20926550.9034
        56.0004         50.0004
  23570208.6174   -2568437.39643  -1989421.96042  23570209.1254   23570207.2934
        48.0004         41.0004
  20882311.6104   -1212508.96044   -937546.32542  20882312.5214   20882308.5634
        57.0004         50.0004
  23042875.6104   -3189681.27343  -2443886.51842  23042876.1704   23042871.3894
        50.0004         43.0004
 04  6 17 15 45 20.0000000  0  8G30G26G 6G16G18G15G21G22
  24524496.6204   11051442.55943   8602137.33242  24524494.5294   24524499.3424
        41.0004         39.0004
  21795452.3884    7005656.51643   5465551.77342  21795453.6484   21795451.4924
        53.0004         46.0004
  20593841.3314    8729608.00144   6802919.51442  20593843.0274   20593839.7364
        57.0004         51.0004
  23626564.3594   -1109537.46343   -859804.10842  23626565.1674   23626561.4064
        45.0004         38.0004
  20920565.2534   -1922569.88343  -1490599.14542  20920566.5924   20920562.7524
        56.0004         50.0004
  23560953.0424   -2617074.94543  -2027321.33842  23560953.3394   23560951.3944
        48.0004         41.0004
  20879089.0844   -1229443.03944   -950741.71942  20879089.8654   20879086.0544
        57.0004         50.0004
  23031577.1804   -3249055.99143  -2490152.51942  23031577.8754   23031573.8514
        50.0004         43.0004
 04  6 17 15 45 40.0000000  0  8G30G26G 6G16G18G15G21G22
  24537079.6874   11117558.74943   8653656.33842  24537079.6484   24537080.0494
        44.0004         39.0004
  21794923.9614    7002881.26643   5463389.23042  21794925.4984   21794923.1254
        52.0004         46.0004
  20599187.8254    8757703.99344   6824812.48242  20599189.2014   20599186.5424
        57.0004         51.0004
  23623354.0664   -1126405.35843   -872947.96142  23623355.6704   23623352.7274
        45.0004         38.0004
  20914613.4204   -1953847.19743  -1514971.07542  20914614.7204   20914610.8484
        56.0004         50.0004
  23551701.7384   -2665690.83643  -2065203.83842  23551702.9964   23551700.9584
        48.0004         41.0004
  20875880.9494   -1246301.70643   -963878.34642  20875881.6854   20875877.8724
        56.0004         50.0004
  23020301.5034   -3308310.75643  -2536325.04142  23020301.8424   23020298.6834
        50.0004         43.0004
 04  6 17 15 46  0.0000000  0  8G30G26G 6G16G18G15G21G22
  24549651.7874   11183630.03043   8705140.35142  24549652.4644   24549653.3284
        43.0004         38.0004
  21794451.5414    7000398.50543   5461454.59642  21794453.4254   21794450.9274
        52.0004         46.0004
  20604574.3714    8786010.78944   6846869.70442  20604575.5074   20604572.7354
        57.0004         51.0004
  23620189.2034   -1143039.63843   -885909.72742  23620189.0494   23620187.3644
        45.0004         38.0004
  20908697.6984   -1984934.13743  -1539194.66342  20908698.7844   20908695.3694
        56.0004         50.0004
  23542454.6544   -2714285.77343  -2103070.02742  23542456.8314   23542453.9884
        48.0004         41.0004
  20872687.3354   -1263085.38244   -976956.54142  20872688.0074   20872683.8154
        57.0004         50.0004
  23009048.6654   -3367445.97143  -2582404.42342  23009047.4644   23009044.8404
        50.0004         43.0004
 04  6 17 15 46 20.0000000  0  9G30G29G26G 6G16G18G15G21G22
  24562218.2164   11249655.55543   8756588.71142  24562220.4294   24562218.5224
        45.0004         38.0004
  22708031.039     -816281.88613   -635472.88712  22708032.314    22708030.175
        50.000          46.000
  21794034.5014    6998208.37443   5459747.99142  21794036.3434   21794033.6254
        52.0004         46.0004
  20610001.1604    8814528.20044   6869091.04642  20610002.4344   20609999.7824
        57.0004         51.0004
  23617067.1714   -1159439.89943   -898689.17042  23617069.7544   23617067.2424
        45.0004         38.0004
  20902818.3064   -2015830.68043  -1563269.88642  20902819.4724   20902815.9114
        56.0004         50.0004
  23533211.3854   -2762859.71443  -2140919.84342  23533211.7724   23533210.6364
        48.0004         41.0004
  20869507.5244   -1279793.96043   -989976.21742  20869508.6804   20869504.3154
        56.0004         50.0004
  22997818.1284   -3426461.00443  -2628390.15242  22997818.3504   22997814.4754
        50.0004         44.0004
 04  6 17 15 46 40.0000000  0  9G30G29G26G 6G16G18G15G21G22
  24574773.5284   11315636.77343   8808002.53642  24574777.9654   24574776.6664
        47.0004         38.0004
  22711506.749     -798016.570 3   -621240.189 2  22711508.625    22711505.835
        50.000          46.000
  21793674.0144    6996313.16743   5458271.18542  21793676.2144   21793673.4634
        52.0004         46.0004
  20615468.2394    8843258.20044   6891478.03742  20615469.5684   20615466.8424
        57.0004         51.0004
  23613990.9094   -1175604.13543   -911284.69642  23613992.8284   23613989.4984
        44.0004         39.0004
  20896975.5254   -2046534.43843  -1587194.89042  20896976.6914   20896973.2994
        56.0004         50.0004
  23523972.4214   -2811410.68943  -2178751.76342  23523974.1994   23523971.7114
        48.0004         41.0004
  20866342.8184   -1296425.32643  -1002935.73442  20866343.8874   20866339.3824
        56.0004         50.0004
  22986611.4644   -3485353.41143  -2674280.32542  22986611.9384   22986606.9664
        50.0004         44.0004
 04  6 17 15 47  0.0000000  0  9G30G29G26G 6G16G18G15G21G22
  24587317.8004   11381570.62243   8859379.47742  24587321.6144   24587320.0694
        45.0004         38.0004
  22715028.641     -779509.298 3   -606818.954 2  22715030.264    22715027.569
        50.000          46.000
  21793369.0784    6994710.87043   5457022.62542  21793371.3354   21793368.3364
        52.0004         46.0004
  20620975.4744    8872198.34144   6914028.78142  20620976.8154   20620973.9654
        57.0004         51.0004
  23610960.7394   -1191534.58343   -923698.04942  23610961.5904   23610958.0534
        45.0004         38.0004
  20891169.0234   -2077047.68543  -1610971.44342  20891170.2964   20891166.7794
        56.0004         50.0004
  23514736.9584   -2859940.92543  -2216567.52742  23514739.4774   23514736.7444
        48.0004         41.0004
  20863192.2464   -1312981.62444  -1015836.75342  20863193.5784   20863189.0514
        57.0004         50.0004
  22975427.4344   -3544125.25343  -2720076.55742  22975427.7374   22975423.8844
        50.0004         43.0004
 04  6 17 15 47 20.0000000  0  9G30G29G26G 6G16G18G15G21G22
  24599856.7774   11447454.25443   8910717.27142  24599858.6114   24599856.7774
        44.0004         38.0004
  22718595.719
        49.000
  21793119.6314    6993399.57243   5456000.81942  21793121.4634   21793119.0604
        52.0004         46.0004
  20626522.1544    8901346.40944   6936741.54442  20626523.6174   20626520.4734
        57.0004         51.0004
  23607973.1854   -1207233.27543   -935930.81042  23607974.4194   23607971.5654
        45.0004         38.0004
  20885398.5534   -2107372.60943  -1634601.25142  20885399.7404   20885395.9364
        56.0004         50.0004
  23505506.0304   -2908452.39443  -2254368.66842  23505506.8974   23505504.7644
        48.0004         41.0004
  20860055.6314   -1329465.02244  -1028680.96642  20860056.7734   20860052.5684
        57.0004         50.0004
  22964266.1584   -3602778.11443  -2765780.07242  22964266.7574   22964262.7514
        50.0004         44.0004
 04  6 17 15 47 40.0000000  0  9G30G29G26G 6G16G18G15G21G22
  24612386.0894   11513291.23843   8962018.73642  24612387.6764   24612387.5364
        45.0004         38.0004
  22722209.525     -741772.13413                                  22722202.315
        50.000
  21792926.3234    6992383.69843   5455209.21642  21792927.9054   21792925.5864
        52.0004         46.0004
  20632109.2674    8930706.51044   6959619.52742  20632110.5554   20632107.8084
        57.0004         51.0004
  23605031.0634   -1222695.76243   -947979.51442  23605030.4384   23605028.2674
        44.0004         38.0004
  20879664.5544   -2137504.80743  -1658080.88342  20879665.7724   20879662.1514
        56.0004         50.0004
  23496278.7524   -2956940.92243  -2292151.92242  23496279.5654   23496279.0204
        48.0004         41.0004
  20856933.6344   -1345871.06844  -1041464.90742  20856934.5244   20856930.3554
        57.0004         50.0004
  22953128.5644   -3661307.41243  -2811387.30342  22953129.0214   22953124.5114
        50.0004         44.0004
 04  6 17 15 48  0.0000000  0  9G30G29G26G 6G16G18G15G21G22
  24624904.6144   11579079.33543   9013282.09042  24624905.3944   24624903.2624
        43.0004         38.0004
  22725869.243     -722539.96413                                  22725877.357
        50.000
  21792789.0324    6991662.03843   5454646.86942  21792790.1594   21792787.9064
        52.0004         45.0004
  20637736.4114    8960277.08244   6982661.51042  20637737.5564   20637734.6914
        57.0004         51.0004
  23602132.5484   -1237923.29843   -959845.15142  23602134.7564   23602130.4384
        45.0004         39.0004
  20873967.0014   -2167445.59443  -1681411.36342  20873968.3874   20873964.6374
        56.0004         50.0004
  23487055.9194   -3005407.86043  -2329918.35642  23487058.3574   23487056.6214
        48.0004         41.0004
  20853826.1154   -1362201.27544  -1054189.75042  20853827.0714   20853822.7644
        57.0004         50.0004
  22942014.0094   -3719714.12743  -2856899.02142  22942014.9264   22942010.4534
        50.0004         43.0004
 04  6 17 15 48 20.0000000  0  9G30G29G26G 6G16G18G15G21G22
  24637413.2414   11644815.99143   9064505.35042  24637414.5584   24637413.3824
        43.0004         38.0004
  22729575.1204    -703067.78453   -528093.20852  22729576.0354   22729574.2344
        49.0004         43.0004
  21792707.3924    6991232.79843   5454312.38642  21792708.8824   21792706.5834
        52.0004         45.0004
  20643403.1564    8990055.96444   7005865.81242  20643404.4414   20643401.5154
        57.0004         51.0004
  23599279.1004   -1252917.63143   -971529.06842  23599281.5344   23599277.6694
        45.0004         39.0004
  20868305.4774   -2197196.72143  -1704594.05542  20868306.5114   20868303.0264
        56.0004         50.0004
  23477836.5814   -3053855.09843  -2367669.44442  23477835.8024   23477834.5574
        47.0004         41.0004
  20850732.7064   -1378457.15143  -1066856.67542  20850733.2704   20850729.4484
        56.0004         50.0004
  22930922.4424   -3777999.73343  -2902316.35942  22930922.9694   22930918.8734
        50.0004         44.0004
 04  6 17 15 48 40.0000000  0  9G30G29G26G 6G16G18G15G21G22
  24649912.6284   11710499.18843   9115686.95042  24649915.7344   24649916.1544
        45.0004         38.0004
  22733325.8894    -683357.27543   -512734.38942  22733326.9834   22733324.9554
        50.0004         43.0004
  21792680.9654    6991094.98743   5454204.98942  21792683.3594   21792680.2134
        52.0004         45.0004
  20649109.2024    9020042.11044   7029231.62142  20649110.7304   20649107.8904
        57.0004         51.0004
  23596470.5324   -1267680.04943   -983032.26942  23596471.7174   23596469.7854
        45.0004         39.0004
  20862679.8194   -2226759.47343  -1727629.96142  20862681.1024   20862677.4054
        56.0004         50.0004
  23468620.7114   -3102283.82443  -2405406.10442  23468621.4404   23468621.8134
        48.0004         41.0004
  20847653.3164   -1394640.04044  -1079466.72442  20847653.9574   20847649.7864
        57.0004         50.0004
  22919854.2564   -3836165.03343  -2947639.96442  22919854.1014   22919851.0284
        50.0004         43.0004
 04  6 17 15 49  0.0000000  0  9G30G29G26G 6G16G18G15G21G22
  24662402.1034   11776135.76843   9166832.24142  24662404.3734   24662403.3144
        44.0004         38.0004
  22737123.2794    -663400.95743   -497184.01742  22737125.3804   22737122.6804
        50.0004         43.0004
  21792711.9974    6991256.12443   5454330.53642  21792714.4644   21792710.9674
        52.0004         45.0004
  20654856.1954    9050242.63144   7052764.48042  20654857.6824   20654854.6834
        57.0004         50.0004
  23593706.7224   -1282202.94043   -994348.82642  23593708.6394   23593705.5174
        45.0004         39.0004
  20857091.5874   -2256125.93843  -1750512.91842  20857093.0204   20857089.0434
        56.0004         50.0004
  23459410.1264   -3150686.50143  -2443122.47342  23459412.5774   23459410.2954
        48.0004         41.0004
  20844589.0714   -1410742.22444  -1092013.89242  20844589.9424   20844585.7774
        57.0004         50.0004
  22908809.9864   -3894202.15343  -2992863.67642  22908810.0854   22908806.8294
        50.0004         43.0004
 04  6 17 15 49 20.0000000  0  9G30G29G26G 6G16G18G15G21G22
  24674883.6234   11841720.04543   9217936.78442  24674884.5954   24674884.6324
        43.0004         38.0004
  22740966.4404    -643204.08543   -481446.20442  22740968.0204   22740964.7604
        50.0004         43.0004
  21792798.8414    6991711.71643   5454685.53442  21792800.1904   21792798.0604
        52.0004         46.0004
  20660642.9524    9080652.45944   7076460.43242  20660644.2114   20660641.7724
        57.0004         50.0004
  23590988.0104   -1296491.09943  -1005482.46942  23590989.2174   23590985.5444
        45.0004         39.0004
  20851539.6824   -2285301.05843  -1773246.77342  20851541.0304   20851537.3884
        56.0004         50.0004
  23450203.2554   -3199068.00643  -2480822.33642  23450203.2654   23450202.7904
        48.0004         40.0004
  20841539.3694   -1426768.48343  -1104501.89242  20841540.2314   20841535.9034
        56.0004         50.0004
  22897789.5254   -3952115.71743  -3037991.11942  22897791.0074   22897785.8984
        50.0004         43.0004
 04  6 17 15 49 40.0000000  0  9G30G29G26G 6G16G18G15G21G22
  24687352.7974   11907247.43043   9268996.97442  24687354.0704   24687353.0894
        44.0004         38.0004
  22744854.5594    -622770.85543   -465524.21842  22744856.4284   22744854.1314
        50.0004         43.0004
  21792940.5474    6992457.77043   5455266.86642  21792942.3684   21792939.8234
        52.0004         46.0004
  20666468.7994    9111267.64544   7100316.40242  20666470.2334   20666467.5454
        57.0004         50.0004
  23588313.0774   -1310548.39343  -1016436.22942  23588313.8044   23588310.4664
        45.0004         39.0004
  20846023.6564   -2314288.80943  -1795834.62942  20846024.8424   20846021.1764
        56.0004         50.0004
  23441000.1154   -3247432.24943  -2518508.75842  23441001.2724   23441000.3304
        47.0004         41.0004
  20838503.2124   -1442722.82443  -1116933.85342  20838504.5714   20838500.1854
        56.0004         50.0004
  22886791.5934   -4009909.08743  -3083024.90542  22886792.6374   22886788.7854
        50.0004         44.0004
 04  6 17 15 50  0.0000000  0  9G30G29G26G 6G16G18G15G21G22
  24699810.5244   11972724.84943   9320018.25442  24699810.0394   24699813.4114
        42.0004         38.0004
  22748789.8364    -602093.64543   -449412.11942  22748791.6404   22748788.2084
        50.0004         43.0004
  21793139.2134    6993502.31043   5456080.78142  21793141.4324   21793138.2834
        52.0004         45.0004
  20672335.3514    9142095.57744   7124338.15142  20672336.5304   20672333.9524
        57.0004         50.0004
  23585683.3944   -1324367.07943  -1027204.06142  23585685.4944   23585682.8484
        45.0004         39.0004
  20840544.6344   -2343081.35744  -1818270.37742  20840546.1614   20840541.8834
        57.0004         50.0004
  23431801.8194   -3295771.49443  -2556175.69742  23431801.8424   23431800.0794
        48.0004         40.0004
  20835482.6364   -1458597.27643  -1129303.56442  20835483.4454   20835479.4424
        56.0004         50.0004
  22875818.5154   -4067574.27243  -3127958.81042  22875818.3234   22875814.9384
        51.0004         44.0004
 04  6 17 15 50 20.0000000  0  8G29G26G 6G16G18G15G21G22
  22752771.2744    -581170.22243   -433108.16442  22752773.0964   22752770.5734
        49.0004         43.0004
  21793395.1964    6994847.94843   5457129.32642  21793397.3834   21793394.7104
        52.0004         46.0004
  20678242.6984    9173138.89444   7148527.73042  20678244.1984   20678241.2344
        57.0004         50.0004
  23583099.8874   -1337944.39843  -1037783.81242  23583100.8204   23583098.7974
        45.0004         39.0004
  20835103.3364   -2371676.00144  -1840551.91642  20835104.5674   20835100.6294
        57.0004         50.0004
  23422608.1934   -3344083.14643  -2593821.14142  23422608.6954   23422606.1924
        47.0004         41.0004
  20832477.5324   -1474388.65443  -1141608.54042  20832478.3954   20832474.3954
        56.0004         50.0004
  22864869.9444   -4125108.31443  -3172790.52242  22864871.2824   22864867.0434
        51.0004         44.0004
 04  6 17 15 50 40.0000000  0  8G29G26G 6G16G18G15G21G22
  22756796.4814    -560017.50143   -416625.53542  22756798.7444   22756795.1864
        49.0004         43.0004
  21793705.4264    6996477.93243   5458399.43442  21793706.6134   21793704.9634
        52.0004         45.0004
  20684187.7314    9204380.38444   7172871.72842  20684189.1454   20684186.1904
        57.0004         50.0004
  23580558.1224   -1351297.18843  -1048188.60142  23580559.5554   23580557.6934
        45.0004         39.0004
  20829696.3484   -2400089.54744  -1862692.33842  20829697.5314   20829693.8244
        57.0004         50.0004
  23413417.2384   -3392383.99943  -2631458.16242  23413418.5514   23413415.5484
        48.0004         41.0004
  20829485.0454   -1490114.19443  -1153862.21942  20829485.7744   20829481.9084
        56.0004         50.0004
  22853943.5004   -4182527.49043  -3217532.73542  22853944.1894   22853939.0864
        51.0004         44.0004
 04  6 17 15 51  0.0000000  0  8G29G26G 6G16G18G15G21G22
  22760867.9614    -538621.41943   -399953.26842  22760868.8984   22760867.0874
        50.0004         43.0004
  21794072.4324    6998407.07743   5459902.65942  21794073.7744   21794072.1684
        52.0004         45.0004
  20690173.1744    9235834.41944   7197381.35142  20690174.5464   20690171.7694
        57.0004         50.0004
  23578062.6824   -1364410.85443  -1058407.06242  23578064.5424   23578062.3854
        45.0004         39.0004
  20824326.8064   -2428307.35044  -1884680.23442  20824327.8584   20824323.8224
        57.0004         50.0004
  23404229.9064   -3440659.48043  -2669075.41142  23404230.2514   23404230.6094
        48.0004         41.0004
  20826507.9864   -1505759.28843  -1166053.20942  20826508.6264   20826504.9444
        56.0004         50.0004
  22843041.5894   -4239816.98343  -3262173.89042  22843042.0104   22843038.2334
        51.0004         44.0004
 04  6 17 15 51 20.0000000  0  8G29G26G 6G16G18G15G21G22
  22764984.5784    -516988.58143   -383096.52442  22764985.8724   22764982.9554
        49.0004         43.0004
  21794495.7694    7000629.00743   5461634.02842  21794497.1244   21794494.3224
        52.0004         45.0004
  20696197.8294    9267494.53944   7222051.55442  20696199.4674   20696196.5724
        57.0004         50.0004
  23575611.5554   -1377291.84643  -1068444.22642  23575613.6214   23575611.5074
        45.0004         39.0004
  20818993.0304   -2456335.72944  -1906520.53242  20818994.4064   20818990.5784
        57.0004         50.0004
  23395048.0234   -3488916.09443  -2706677.97742  23395048.2544   23395047.4294
        47.0004         41.0004
  20823544.7624   -1521330.16543  -1178186.37242  20823545.7364   20823541.7104
        56.0004         49.0004
  22832163.3304   -4296982.91143  -3306718.76942  22832164.2344   22832160.1414
        51.0004         44.0004
 04  6 17 15 51 40.0000000  0  8G29G26G 6G16G18G15G21G22
  22769146.9034    -495115.96443   -366052.93642  22769148.3964   22769145.6684
        50.0004         43.0004
  21794974.7614    7003146.84143   5463595.98242  21794976.4394   21794973.6394
        52.0004         45.0004
  20702262.3384    9299363.43144   7246884.43742  20702263.8814   20702261.0684
        57.0004         50.0004
  23573205.3704   -1389936.94743  -1078297.56942  23573206.8734   23573203.8584
        45.0004         39.0004
  20813696.1174   -2484171.40744  -1928210.66842  20813697.4214   20813693.5544
        57.0004         50.0004
  23385869.1184   -3537150.69243  -2744263.38142  23385868.7954   23385867.0854
        47.0004         41.0004
  20820596.5774   -1536823.84643  -1190259.37842  20820597.5144   20820593.2494
        56.0004         50.0004
  22821309.2244   -4354021.93143  -3351164.75742  22821308.9324   22821305.0274
        51.0004         44.0004
 04  6 17 15 52  0.0000000  0  8G29G26G 6G16G18G15G21G22
  22773354.6064    -473005.86343   -348824.29642  22773355.6244   22773353.8474
        50.0004         43.0004
  21795509.5824    7005958.91243   5465787.20942  21795510.9774   21795508.2314
        52.0004         46.0004
  20708366.3694    9331439.30544   7271878.60442  20708367.5434   20708364.7574
        57.0004         50.0004
  23570843.9844   -1402347.83643  -1087968.42642  23570844.1664   23570843.1144
        45.0004         39.0004
  20808435.4284   -2511816.18244  -1949752.04942  20808436.6574   20808432.9354
        57.0004         50.0004
  23376694.2544   -3585365.02343  -2781832.98142  23376695.0884   23376693.2764
        48.0004         41.0004
  20817662.6454   -1552241.74043  -1202273.33042  20817663.6194   20817659.6794
        56.0004         50.0004
  22810478.7124   -4410935.29643  -3395512.83342  22810479.2444   22810475.5204
        51.0004         44.0004
 04  6 17 15 52 20.0000000  0  8G29G26G 6G16G18G15G21G22
  22777607.5944    -450654.88343   -331407.95642  22777609.7454   22777607.0254
        49.0004         43.0004
  21796101.6434    7009068.83843   5468210.53042  21796103.3204   21796100.7734
        52.0004         46.0004
  20714510.0884    9363725.41544   7297036.59142  20714511.6124   20714508.5704
        57.0004         50.0004
  23568528.2784   -1414521.09743  -1097454.11042  23568528.0384   23568525.8464
        45.0004         39.0004
  20803211.9474   -2539266.70944  -1971142.07142  20803212.9694   20803209.3904
        57.0004         50.0004
  23367523.6334   -3633555.63843  -2819384.11342  23367524.3024   23367522.8934
        47.0004         41.0004
  20814743.9904   -1567580.36343  -1214225.51342  20814744.8694   20814740.5934
        56.0004         50.0004
  22799673.5354   -4467719.14343  -3439759.98842  22799674.0004   22799669.3364
        51.0004         44.0004
 04  6 17 15 52 40.0000000  0  8G29G26G 6G16G18G15G21G22
  22781905.5924    -428066.40943   -313806.54442  22781907.5034   22781904.5734
        49.0004         43.0004
  21796749.4404    7012473.74443   5470863.70742  21796751.3814   21796748.4814
        53.0004         46.0004
  20720693.4144    9396218.55444   7322355.89542  20720694.8644   20720692.0974
        57.0004         50.0004
  23566255.3404   -1426459.67943  -1106756.91842  23566257.0244   23566253.7094
        46.0004         39.0004
  20798024.4404   -2566525.97844  -1992383.05842  20798025.7784   20798021.8844
        57.0004         50.0004
  23358357.0834   -3681725.49443  -2856919.06442  23358359.2154   23358356.2484
        48.0004         41.0004
  20811839.6304   -1582842.48643  -1226118.08542  20811840.5004   20811836.6014
        56.0004         50.0004
  22788891.8244   -4524376.17843  -3483908.31842  22788893.2324   22788888.5604
        51.0004         44.0004
 04  6 17 15 53  0.0000000  0  8G29G26G 6G16G18G15G21G22
  22786249.3484    -405241.67143   -296021.05042  22786251.5204   22786249.0344
        49.0004         44.0004
  21797453.5644    7016172.66043   5473745.98542  21797455.5324   21797453.0374
        52.0004         46.0004
  20726915.8664    9428917.48444   7347835.55442  20726916.9144   20726914.3404
        57.0004         50.0004
  23564028.0654   -1438164.64843  -1115877.70042  23564029.5664   23564026.2364
        46.0004         39.0004
  20792873.5104   -2593594.78444  -2013475.63142  20792874.9184   20792871.2824
        57.0004         50.0004
  23349194.0324   -3729875.54443  -2894438.58042  23349196.1794   23349193.9974
        47.0004         41.0004
  20808949.6494   -1598029.22243  -1237951.91242  20808950.6414   20808946.5414
        56.0004         50.0004
  22778134.4394   -4580907.00443  -3527958.31242  22778134.1364   22778131.3044
        51.0004         44.0004
 04  6 17 15 53 20.0000000  0  8G29G26G 6G16G18G15G21G22
  22790637.8294    -382179.44143   -278050.49442  22790640.9594   22790636.8274
        49.0004         44.0004
  21798213.4664    7020167.30543   5476858.70442  21798215.9254   21798211.7934
        52.0004         46.0004
  20733177.5884    9461823.66544   7373476.71342  20733179.0844   20733176.2924
        57.0004         50.0004
  23561845.4674   -1449634.27343  -1124815.09342  23561848.2374   23561843.4784
        45.0004         39.0004
  20787759.0774   -2620471.50243  -2034418.52842  20787760.2434   20787756.6414
        56.0004         50.0004
  23340035.9494   -3778004.04643  -2931941.30342  23340035.5204   23340034.3204
        47.0004         41.0004
  20806074.4504   -1613138.67344  -1249725.51942  20806075.6054   20806071.3314
        57.0004         50.0004
  22767401.4014   -4637309.54543  -3571908.33442  22767401.5474   22767397.7014
        51.0004         44.0004
 04  6 17 15 53 40.0000000  0  8G29G26G 6G16G18G15G21G22
  22795072.1444    -358878.64943   -259894.04442  22795073.3514   22795070.6004
        49.0004         43.0004
  21799030.0274    7024458.93643   5480202.83242  21799031.6814   21799029.1924
        52.0004         46.0004
  20739479.1644    9494938.02944   7399280.09242  20739480.6004   20739477.9554
        57.0004         50.0004
  23559707.8944   -1460867.46743  -1133568.26242  23559710.3234   23559707.3204
        45.0004         39.0004
  20782681.2234   -2647154.97244  -2055210.84042  20782682.7734   20782678.7764
        57.0004         50.0004
  23330881.7274   -3826109.82143  -2969426.32142  23330882.0874   23330881.3394
        47.0004         41.0004
  20803214.0694   -1628169.52843  -1261437.88442  20803215.3994   20803211.0424
        56.0004         50.0004
  22756692.8794   -4693582.48843  -3615757.37042  22756693.8184   22756689.3074
        51.0004         44.0004
 04  6 17 15 54  0.0000000  0  8G29G26G 6G16G18G15G21G22
  22799550.8384    -335342.73043   -241554.36842  22799551.5174   22799551.2304
        50.0004         43.0004
  21799902.9344    7029044.46843   5483775.97942  21799904.2624   21799902.3424
        52.0004         46.0004
  20745819.6054    9528257.40644   7425243.22442  20745820.9624   20745818.2034
        57.0004         50.0004
  23557615.4844   -1471867.18643  -1142139.49442  23557617.3664   23557613.2304
        46.0004         39.0004
  20777639.8854   -2673648.19444  -2075854.91042  20777640.8314   20777637.2654
        57.0004         50.0004
  23321731.4884   -3874195.89343  -3006895.98142  23321731.4814   23321731.0524
        47.0004         41.0004
  20800368.3214   -1643124.90243  -1273091.43242  20800369.2424   20800364.9574
        56.0004         50.0004
  22746008.8464   -4749728.37643  -3659507.40442  22746009.0534   22746005.5014
        51.0004         44.0004
 04  6 17 15 54 20.0000000  0  8G29G26G 6G16G18G15G21G22
  22804075.2364    -311568.14643   -223028.73642  22804076.7744   22804073.7284
        50.0004         43.0004
  21800832.1274    7033927.92043   5487581.27042  21800833.8174   21800831.1574
        52.0004         46.0004
  20752199.6934    9561785.43444   7451368.93842  20752201.4074   20752198.3594
        57.0004         50.0004
  23555567.0934   -1482629.54643  -1150525.75942  23555568.9494   23555566.7954
        46.0004         39.0004
  20772635.3734   -2699947.42644  -2096347.81742  20772636.6774   20772632.7434
        57.0004         50.0004
  23312585.1774   -3922258.42143  -3044347.30042  23312586.6464   23312584.0824
        47.0004         41.0004
  20797537.4534   -1658000.77743  -1284683.03142  20797538.5684   20797534.3234
        56.0004         50.0004
  22735349.5124   -4805742.87243  -3703155.04542  22735349.7574   22735345.5544
        51.0004         44.0004
 04  6 17 15 54 40.0000000  0  8G29G26G 6G16G18G15G21G22
  22808644.3774    -287556.78843   -204318.60242  22808646.3374   22808643.5344
        50.0004         43.0004
  21801817.3724    7039107.57843   5491617.36342  21801818.8234   21801817.2464
        52.0004         45.0004
  20758619.3044    9595520.02444   7477655.61242  20758620.5014   20758617.7284
        57.0004         50.0004
  23553563.7354   -1493156.31043  -1158728.46542  23553564.1214   23553562.5144
        45.0004         39.0004
  20767667.3204   -2726054.07843  -2116690.66642  20767668.6044   20767664.9024
        56.0004         50.0004
  23303443.7814   -3970299.14443  -3081781.62342  23303445.4934   23303442.8014
        47.0004         41.0004
  20794721.5984   -1672798.56343  -1296213.78442  20794722.9914   20794718.6204
        56.0004         50.0004
  22724714.9974   -4861627.40243  -3746701.42442  22724715.2254   22724711.9544
        51.0004         44.0004
 04  6 17 15 55  0.0000000  0  8G29G26G 6G16G18G15G21G22
  22813257.9784    -263311.52743   -185426.19442  22813258.4594   22813258.0254
        49.0004         44.0004
  21802859.0234    7044581.10843   5495882.46342  21802860.9654   21802857.9754
        52.0004         45.0004
  20765077.6144    9629458.58444   7504101.22342  20765079.1534   20765076.1444
        57.0004         50.0004
  23551604.8214   -1503449.95543  -1166749.51042  23551606.8714   23551603.1154
        46.0004         39.0004
  20762735.6704   -2751970.43744  -2136885.22942  20762736.8984   20762733.3744
        57.0004         50.0004
  23294304.8844   -4018320.40643  -3119200.78042  23294305.0024   23294304.3554
        47.0004         41.0004
  20791919.9974   -1687520.69543  -1307685.58242  20791920.9684   20791916.5674
        56.0004         50.0004
  22714104.8024   -4917384.26143  -3790148.32442  22714104.0004   22714101.5884
        51.0004         44.0004
 04  6 17 15 55 20.0000000  0  8G29G26G 6G16G18G15G21G22
  22817916.5204    -238830.49843   -166350.08842  22817917.8914   22817915.3404
        49.0004         44.0004
  21803957.1374    7050350.66943   5500378.21742  21803958.8604   21803957.0334
        52.0004         46.0004
  20771575.0644    9663603.11944   7530707.32642  20771576.2814   20771573.8334
        57.0004         50.0004
  23549691.2574   -1513508.17843  -1174587.11442  23549693.0464   23549688.0004
        46.0004         39.0004
  20757840.4424   -2777694.74744  -2156930.15142  20757841.4814   20757837.8104
        57.0004         50.0004
  23285171.1534   -4066319.98343  -3156603.05842  23285172.1944   23285171.2614
        47.0004         41.0004
  20789133.3104   -1702165.05343  -1319096.78442  20789134.3894   20789130.1904
        56.0004         50.0004
  22703519.4864   -4973010.84543  -3833493.71342  22703518.7754   22703516.0944
        51.0004         44.0004
 04  6 17 15 55 40.0000000  0  8G29G26G 6G16G18G15G21G22
  22822620.3694    -214112.19543   -147089.09542  22822621.1664   22822618.5944
        50.0004         44.0004
  21805112.0494    7056418.01043   5505106.01742  21805113.7594   21805110.7464
        52.0004         46.0004
  20778112.1614    9697955.19044   7557475.14742  20778113.5424   20778110.9824
        57.0004         50.0004
  23547822.9714   -1523329.30743  -1182239.95042  23547822.8524   23547820.8884
        46.0004         39.0004
  20752982.3124   -2803224.93744  -2176823.80742  20752983.5344   20752979.7844
        57.0004         50.0004
  23276041.5804   -4114296.11743  -3193987.06742  23276042.5294   23276042.2604
        47.0004         41.0004
  20786361.7114   -1716729.94243  -1330446.05742  20786362.6294   20786358.3904
        56.0004         50.0004
  22692959.1864   -5028505.02443  -3876735.91842  22692959.0004   22692956.0764
        51.0004         44.0004
 04  6 17 15 56  0.0000000  0  8G29G26G 6G16G18G15G21G22
  22827368.6904    -189159.86043   -127645.72642  22827370.6894   22827367.6124
        49.0004         43.0004
  21806322.5154    7062780.31243   5510063.65642  21806324.3914   21806321.3074
        52.0004         46.0004
  20784687.9264    9732511.46444   7584402.09342  20784689.6764   20784686.6434
        57.0004         50.0004
  23545998.0044   -1532916.25343  -1189710.32942  23545998.6544   23545996.1914
        45.0004         39.0004
  20748160.3924   -2828563.81944  -2196568.39042  20748161.5424   20748158.0994
        57.0004         50.0004
  23266915.8644   -4162251.74743  -3231355.08342  23266916.5754   23266916.3274
        47.0004         41.0004
  20783604.7464   -1731217.82743  -1341735.32542  20783605.9054   20783601.4564
        56.0004         50.0004
  22682423.7534   -5083869.42043  -3919876.99542  22682423.6954   22682420.5344
        51.0004         44.0004
 04  6 17 15 56 20.0000000  0  8G29G26G 6G16G18G15G21G22
  22832161.4514    -163972.49143   -108019.22342  22832163.8784   22832160.3784
        49.0004         43.0004
  21807589.4744    7069438.95643   5515252.20942  21807591.2084   21807589.0524
        52.0004         46.0004
  20791302.9624    9767273.27344   7611489.19442  20791304.3454   20791301.6724
        57.0004         50.0004
  23544218.4804   -1542267.65943  -1196997.15242  23544219.2424   23544217.1794
        46.0004         39.0004
  20743375.1454   -2853710.13843  -2216162.92342  20743376.6424   20743372.5514
        56.0004         50.0004
  23257794.5774   -4210185.35243  -3268705.93842  23257793.1614   23257793.8304
        47.0004         41.0004
  20780862.6064   -1745626.99643  -1352963.25742  20780863.7734   20780859.5624
        56.0004         50.0004
  22671913.4804   -5139102.14843  -3962915.48342  22671914.4684   22671909.4134
        51.0004         44.0004
 04  6 17 15 56 40.0000000  0  8G29G26G 6G16G18G15G21G22
  22836999.4774    -138548.93043    -88208.68242  22837001.4354   22836999.4264
        50.0004         44.0004
  21808913.3014    7076395.15943   5520672.62242  21808914.3824   21808912.2804
        52.0004         46.0004
  20797957.3034    9802241.64744   7638737.25742  20797958.6434   20797956.3294
        57.0004         50.0004
  23542483.9124   -1551382.31043  -1204099.50542  23542484.2524   23542482.5984
        46.0004         39.0004
  20738626.8254   -2878662.84644  -2235606.59342  20738628.1294   20738624.2524
        57.0004         50.0004
  23248677.3944   -4258095.69843  -3306038.66842  23248678.3124   23248676.3834
        47.0004         41.0004
  20778136.0544   -1759956.24844  -1364128.91742  20778137.0734   20778132.5724
        57.0004         50.0004
  22661428.1394   -5194201.73543  -4005850.21842  22661427.9744   22661424.8384
        52.0004         44.0004
 04  6 17 15 57  0.0000000  0  8G29G26G 6G16G18G15G21G22
  22841881.6254    -112894.85843    -68218.51442  22841883.0204   22841880.5664
        50.0004         44.0004
  21810292.5234    7083643.81243   5526320.91642  21810294.1594   21810291.8984
        52.0004         46.0004
  20804649.7804    9837411.15244   7666142.04442  20804651.1214   20804648.6154
        57.0004         50.0004
  23540793.9144   -1560265.40243  -1211021.41442  23540794.8614   23540793.1444
        46.0004         39.0004
  20733914.4744   -2903427.02044  -2254903.35042  20733915.7294   20733911.7944
        57.0004         50.0004
  23239563.7214   -4305987.94743  -3343357.30042  23239564.5984   23239563.2294
        47.0004         41.0004
  20775423.6714   -1774210.45643  -1375236.09642  20775424.4234   20775420.4684
        56.0004         50.0004
  22650967.5984   -5249172.94243  -4048684.90842  22650968.0024   22650963.9784
        52.0004         44.0004
 04  6 17 15 57 20.0000000  0  8G29G26G 6G16G18G15G21G22
  22846807.9444     -87004.79043    -48044.45742  22846809.7764   22846806.5094
        50.0004         44.0004
  21811728.8164    7091190.68143   5532201.58442  21811730.4224   21811728.2174
        52.0004         46.0004
  20811381.6724    9872787.22544   7693707.79742  20811383.0774   20811380.3884
        57.0004         50.0004
  23539148.2724   -1568911.26343  -1217758.47142  23539149.5304   23539146.2304
        46.0004         39.0004
  20729239.0754   -2927996.69244  -2274048.55242  20729240.3924   20729236.2484
        57.0004         51.0004
  23230454.6014   -4353856.16743  -3380657.20142  23230455.8344   23230454.1374
        47.0004         41.0004
  20772726.4094   -1788384.02243  -1386280.44142  20772727.5304   20772723.1254
        56.0004         50.0004
  22640532.6514   -5304009.78343  -4091414.91042  22640532.3224   22640528.2534
        51.0004         44.0004
 04  6 17 15 57 40.0000000  0  8G29G26G 6G16G18G15G21G22
  22851780.0014     -60877.72843    -27685.72742  22851781.4184   22851779.5144
        50.0004         44.0004
  21813221.9694    7099036.93943   5538315.54542  21813223.4004   21813221.5194
        52.0004         46.0004
  20818153.1064    9908370.92444   7721435.33442  20818154.4094   20818151.8224
        57.0004         50.0004
  23537548.5184   -1577318.63643  -1224309.69742  23537550.1264   23537546.9774
        46.0004         39.0004
  20724600.7684   -2952370.75944  -2293041.33142  20724602.1034   20724598.2314
        57.0004         51.0004
  23221350.3084   -4401698.99343  -3417937.33142  23221350.8474   23221350.4794
        47.0004         41.0004
  20770044.9354   -1802475.47444  -1397260.80342  20770045.7554   20770041.8544
        57.0004         50.0004
  22630123.0434   -5358710.49443  -4134038.83142  22630123.7704   22630119.8004
        52.0004         44.0004
 04  6 17 15 58  0.0000000  0  8G29G26G 6G16G18G15G21G22
  22856794.7524     -34523.91743     -7150.31842  22856796.0284   22856794.3194
        49.0004         44.0004
  21814770.2664    7107172.83743   5544655.19242  21814771.6104   21814769.8614
        52.0004         46.0004
  20824962.0344    9944152.18044   7749316.81442  20824963.3664   20824960.5794
        57.0004         50.0004
  23535991.9684   -1585497.30943  -1230682.71842  23535994.4964   23535991.7434
        46.0004         39.0004
  20719997.7414   -2976558.92943  -2311889.25342  20719998.9494   20719995.3864
        56.0004         51.0004
  23212249.1714   -4449526.32043  -3455205.37142  23212250.1334   23212247.5574
        47.0004         41.0004
  20767377.1184   -1816494.37443  -1408184.63042  20767378.4514   20767374.1384
        56.0004         50.0004
  22619738.2244   -5413284.61543  -4176564.11342  22619738.4794   22619734.5214
        52.0004         44.0004
 04  6 17 15 58 20.0000000  0  8G29G26G 6G16G18G15G21G22
  22861854.9224      -7934.28543     13568.84642  22861856.3114   22861854.8474
        50.0004         44.0004
  21816375.4964    7115607.83843   5551227.91042  21816377.0304   21816374.6324
        53.0004         46.0004
  20831810.4004    9980140.33744   7777359.51042  20831811.8634   20831809.1554
        57.0004         50.0004
  23534482.0194   -1593437.90443  -1236870.23242  23534481.0984   23534480.1814
        45.0004         39.0004
  20715431.9934   -3000551.63643  -2330584.86842  20715433.3384   20715429.6014
        56.0004         50.0004
  23203152.7614   -4497328.67743  -3492453.96142  23203154.4294   23203152.4314
        47.0004         41.0004
  20764725.1594   -1830431.43843  -1419044.68542  20764725.9454   20764721.9084
        56.0004         50.0004
  22609379.1394   -5467722.34143  -4218983.11642  22609379.4314   22609375.2294
        52.0004         45.0004
 04  6 17 15 58 40.0000000  0  8G29G26G 6G16G18G15G21G22
  22866958.7904      18887.18943     34468.66742  22866960.8964   22866957.5394
        49.0004         44.0004
  21818036.9984    7124338.29543   5558030.84942  21818038.7494   21818036.1554
        53.0004         46.0004
  20838697.1184   10016331.27044   7805560.22342  20838698.7124   20838696.0354
        57.0004         50.0004
  23533014.6814   -1601144.15943  -1242875.13542  23533016.1634   23533013.6494
        46.0004         39.0004
  20710903.1894   -3024352.57144  -2349131.05042  20710904.0894   20710900.5544
        57.0004         50.0004
  23194060.2944   -4545109.68543  -3529685.90942  23194061.6014   23194059.0644
        48.0004         41.0004
  20762087.7104   -1844289.99743  -1429843.56842  20762088.8474   20762085.0084
        56.0004         50.0004
  22599045.2934   -5522027.02443  -4261298.44242  22599045.6154   22599040.9094
        52.0004         45.0004
 04  6 17 15 59  0.0000000  0  8G29G26G 6G16G18G15G21G22
  22872106.6824      45940.28643     55548.98042  22872107.8214   22872106.2694
        50.0004         44.0004
  21819754.2854    7133364.19043   5565064.00042  21819755.6634   21819753.1864
        53.0004         46.0004
  20845622.4444   10052724.92843   7833918.89942  20845623.7714   20845621.3064
        56.0004         50.0004
  23531592.6234   -1608615.99343  -1248697.36042  23531594.0914   23531590.7564
        46.0004         40.0004
  20706410.5394   -3047961.74243  -2367527.80442  20706411.8424   20706408.1424
        56.0004         51.0004
  23184972.2544   -4592869.23543  -3566901.13342  23184973.3704   23184971.6884
        48.0004         41.0004
  20759465.7634   -1858069.69543  -1440581.00242  20759466.6444   20759462.5924
        56.0004         50.0004
  22588736.7514   -5576198.32643  -4303509.84242  22588736.9264   22588732.9044
        52.0004         45.0004
 04  6 17 15 59 20.0000000  0  8G29G26G 6G16G18G15G21G22
  22877299.8594      73227.46243     76811.68442  22877300.6244   22877297.8214
        50.0004         44.0004
  21821528.7304    7142688.12043   5572329.38842  21821530.1694   21821527.2984
        53.0004         46.0004
  20852587.2904   10089323.67744   7862437.38642  20852588.7484   20852585.8044
        57.0004         50.0004
  23530216.9384   -1615850.86043  -1254334.95542  23530217.0754   23530215.5314
        46.0004         40.0004
  20701954.6174   -3071376.32444  -2385772.93342  20701955.8754   20701952.1854
        57.0004         51.0004
  23175888.4174   -4640604.47143  -3604097.42242  23175889.6784   23175888.1104
        47.0004         41.0004
  20756859.1854   -1871767.68044  -1451254.76842  20756860.1444   20756855.8934
        57.0004         50.0004
  22578454.3954   -5630233.15243  -4345614.90242  22578454.2334   22578450.0204
        53.0004         45.0004
 04  6 17 15 59 40.0000000  0  8G29G26G 6G16G18G15G21G22
  22882535.7684     100744.40243     98253.43342  22882537.8834   22882535.0354
        49.0004         44.0004
  21823358.8624    7152306.38343   5579824.12442  21823361.3014   21823357.9444
        53.0004         46.0004
  20859589.9824   10126123.56443   7891112.60642  20859591.2174   20859588.8034
        56.0004         50.0004
  23528884.5294   -1622852.47443  -1259790.79742  23528884.9614   23528881.5644
        46.0004         39.0004
  20697535.2744   -3094600.35743  -2403869.58042  20697536.5944   20697532.9544
        56.0004         51.0004
  23166808.3444   -4688319.09243  -3641277.64642  23166809.8574   23166807.6534
        48.0004         41.0004
  20754267.2664   -1885387.79144  -1461867.84842  20754268.5084   20754264.0534
        57.0004         50.0004
  22568197.1364   -5684134.89143  -4387616.25042  22568197.0014   22568192.9424
        52.0004         45.0004
 04  6 17 16  0  0.0000000  0  8G29G26G 6G16G18G15G21G22
  22887816.2664     128493.97143    119876.44142  22887819.0204   22887815.2474
        49.0004         44.0004
  21825246.1154    7162222.08943   5587550.63342  21825247.9334   21825244.6304
        53.0004         46.0004
  20866631.6064   10163127.51944   7919946.83642  20866633.2734   20866630.1684
        57.0004         50.0004
  23527596.4644   -1629617.87343  -1265062.55442  23527597.5844   23527595.0434
        46.0004         39.0004
  20693152.8814   -3117630.52744  -2421815.16442  20693154.1204   20693150.1804
        57.0004         51.0004
  23157732.9004   -4736009.96843  -3678439.35842  23157733.7494   23157734.0514
        48.0004         41.0004
  20751690.9254   -1898926.72744  -1472417.67942  20751691.8564   20751687.7104
        57.0004         50.0004
  22557965.8824   -5737900.14443  -4429511.25242  22557966.2934   22557962.9744
        53.0004         45.0004
 04  6 17 16  0 20.0000000  0  8G29G26G 6G16G18G15G21G22
  22893140.5434     156471.76243    141677.29942  22893141.7224   22893139.6644
        50.0004         44.0004
  21827188.5744    7172431.02143   5595505.63242  21827190.3414   21827187.9954
        53.0004         46.0004
  20873711.1834   10200330.98743   7948936.53042  20873712.7114   20873709.9714
        56.0004         50.0004
  23526353.7024   -1636151.21143  -1270153.49342  23526354.4774   23526352.9254
        46.0004         39.0004
  20688806.6344   -3140470.79543  -2439612.77242  20688807.8014   20688804.1054
        56.0004         51.0004
  23148661.3064   -4783681.20943  -3715585.76942  23148662.8054   23148662.4174
        47.0004         41.0004
  20749129.1934   -1912388.44844  -1482907.34142  20749130.3464   20749125.9034
        57.0004         50.0004
  22547759.9424   -5791532.58643  -4471302.76242  22547760.2954   22547756.2954
        52.0004         45.0004
 04  6 17 16  0 40.0000000  0  8G29G26G 6G16G18G15G21G22
  22898507.9614     184679.34543    163657.20242  22898509.1664   22898507.5054
        49.0004         44.0004
  21829187.5824    7182935.09343   5603690.61142  21829189.0824   21829186.4004
        53.0004         46.0004
  20880829.1424   10237735.75943   7978083.08842  20880830.4694   20880827.8694
        56.0004         50.0004
  23525154.6024   -1642450.56943  -1275062.10242  23525156.0564   23525153.9434
        46.0004         39.0004
  20684496.6774   -3163119.45543  -2457261.07642  20684497.9424   20684493.9224
        56.0004         51.0004
  23139594.3214   -4831330.73143  -3752715.26442  23139595.5884   23139595.4054
        48.0004         41.0004
  20746582.6784   -1925770.82144  -1493335.17442  20746583.9474   20746579.4574
        57.0004         50.0004
  22537579.7584   -5845030.04343  -4512989.08642  22537580.6034   22537575.7664
        53.0004         45.0004
 04  6 17 16  1  0.0000000  0  8G29G26G 6G16G18G15G21G22
  22903920.1644     213119.91643    185818.65742  22903922.4394   22903920.5474
        50.0004         43.0004
  21831243.3054    7193737.86443   5612108.34242  21831244.9124   21831242.3234
        53.0004         46.0004
  20887986.0934   10275345.08743   8007389.03742  20887987.2894   20887984.4534
        56.0004         50.0004
  23524000.8364   -1648512.45043  -1279785.67542  23524002.3804   23524000.1054
        46.0004         40.0004
  20680223.7764   -3185573.03643  -2474757.37142  20680224.9924   20680221.2084
        56.0004         51.0004
  23130531.5494   -4878955.06343  -3789825.13242  23130532.7704   23130530.7654
        48.0004         41.0004
  20744051.8664   -1939070.14444  -1503698.28842  20744053.1134   20744048.5474
        57.0004         50.0004
  22527426.0534   -5898388.63843  -4554567.21142  22527426.3794   22527421.6764
        53.0004         45.0004
 04  6 17 16  1 20.0000000  0  8G29G26G 6G16G18G15G21G22
  22909375.6314     241790.13143    208159.06342  22909377.3954   22909375.4444
        49.0004         43.0004
  21833354.8614    7204836.26643   5620756.43742  21833357.0694   21833353.8954
        53.0004         46.0004
  20895181.2064   10313155.90143   8036851.99042  20895182.6964   20895179.7804
        56.0004         50.0004
  23522892.4614   -1654339.86843  -1284326.54242  23522894.2504   23522890.5334
        46.0004         40.0004
  20675987.5344   -3207834.57243  -2492104.01742  20675988.7774   20675985.0784
        56.0004         51.0004
  23121472.7914   -4926556.81243  -3826917.40142  23121473.6354   23121472.2554
        48.0004         41.0004
  20741536.2934   -1952289.19743  -1513998.85742  20741537.3704   20741533.0464
        56.0004         50.0004
  22517298.0954   -5951610.90343  -4596039.10642  22517298.3404   22517293.6454
        52.0004         45.0004
 04  6 17 16  1 40.0000000  0  8G29G26G 6G16G18G15G21G22
  22914874.8414     270685.82043    230675.15042  22914876.0374   22914875.0364
        50.0004         43.0004
  21835522.7094    7216226.26143   5629631.74742  21835524.5284   21835521.2374
        53.0004         46.0004
  20902413.9564   10351164.02243   8066468.69242  20902415.0724   20902412.6974
        56.0004         50.0004
  23521827.1154   -1659936.85843  -1288687.86042  23521827.5344   23521825.9524
        46.0004         40.0004
  20671787.2344   -3229907.73843  -2509303.88442  20671788.3154   20671784.9264
        56.0004         51.0004
  23112418.5994   -4974139.88543  -3863995.12442  23112419.6944   23112418.6914
        48.0004         41.0004
  20739035.5034   -1965431.71044  -1524239.77942  20739036.6974   20739032.3564
        57.0004         50.0004
  22507195.4594   -6004700.47743  -4637407.61542  22507195.9714   22507191.7404
        53.0004         45.0004
 04  6 17 16  2  0.0000000  0  8G29G26G 6G16G18G15G21G22
  22920417.4614     299812.42943    253371.19542  22920420.6024   22920416.0034
        49.0004         43.0004
  21837746.7414    7227913.95043   5638739.02742  21837748.2644   21837746.4834
        53.0004         46.0004
  20909685.3574   10389374.88143   8096243.36842  20909686.7014   20909684.2784
        56.0004         49.0004
  23520807.0494   -1665297.40343  -1292864.93142  23520807.6604   23520805.1694
        46.0004         40.0004
  20667623.6694   -3251786.78143  -2526352.48542  20667624.9624   20667621.1564
        56.0004         51.0004
  23103368.6664   -5021698.32743  -3901053.65242  23103368.8974   23103370.0354
        48.0004         41.0004
  20736550.1804   -1978491.61544  -1534416.33842  20736551.4474   20736546.8624
        57.0004         50.0004
  22497119.3624   -6057650.94943  -4678667.72542  22497119.3004   22497115.7084
        53.0004         45.0004
 04  6 17 16  2 20.0000000  0  8G29G26G 6G16G18G15G21G22
  22926006.1984     329180.24543    276255.16942  22926007.0424   22926004.4564
        49.0004         43.0004
  21840029.6324    7239909.65443   5648086.31642  21840031.2274   21840028.3364
        53.0004         46.0004
  20916996.9944   10427798.90543   8126184.14942  20916998.5114   20916995.6444
        56.0004         49.0004
  23519833.6734   -1670411.16243  -1296849.70842  23519835.7104   23519833.5384
        46.0004         39.0004
  20663499.2524   -3273461.09043  -2543241.55842  20663500.5224   20663496.4284
        56.0004         51.0004
  23094324.8514   -5069221.44443  -3938084.65542  23094326.0034   23094325.3054
        48.0004         41.0004
  20734082.8664   -1991458.15144  -1544520.13942  20734083.8374   20734079.9024
        57.0004         50.0004
  22487071.6344   -6110451.52343  -4719811.02042  22487071.8914   22487068.0184
        53.0004         45.0004
 04  6 17 16  2 40.0000000  0  8G29G26G 6G16G18G15G21G22
  22931635.3854     358761.90143    299305.78842  22931637.9664   22931634.3614
        49.0004         43.0004
  21842365.7304    7252186.32643   5657652.54642  21842367.2384   21842364.5064
        53.0004         46.0004
  20924344.2684   10466408.82343   8156269.78142  20924345.7604   20924342.9314
        56.0004         49.0004
  23518903.4054   -1675305.09143  -1300663.17742  23518903.2754   23518900.1864
        46.0004         39.0004
  20659408.5224   -3294957.59743  -2559992.07842  20659409.8524   20659406.3064
        56.0004         51.0004
  23085283.6894   -5116736.10143  -3975109.06042  23085283.9184   23085282.4734
        48.0004         41.0004
  20731628.0034   -2004357.94644  -1554571.93342  20731629.1084   20731625.0034
        57.0004         50.0004
  22477047.6854   -6163128.87643  -4760858.29442  22477048.1104   22477044.4804
        53.0004         45.0004
 04  6 17 16  3  0.0000000  0  8G29G26G 6G16G18G15G21G22
  22937308.0994     388573.69143    322535.72842  22937309.3654   22937306.5854
        50.0004         43.0004
  21844758.0844    7264760.58143   5667450.65642  21844759.7874   21844757.3994
        53.0004         46.0004
  20931729.9824   10505221.11243   8186513.10542  20931731.4674   20931729.0844
        56.0004         49.0004
  23518016.2034   -1679962.68343  -1304292.47642  23518018.4734   23518014.9284
        46.0004         39.0004
  20655355.0284   -3316259.60944  -2576591.05142  20655356.1904   20655352.5954
        57.0004         51.0004
  23076246.6134   -5164225.70043  -4012113.94042  23076246.8714   23076246.3734
        48.0004         41.0004
  20729189.1624   -2017174.38744  -1564558.77842  20729190.2384   20729185.7744
        57.0004         50.0004
  22467050.2634   -6215666.05943  -4801796.35242  22467050.4324   22467046.2844
        53.0004         45.0004
 04  6 17 16  3 20.0000000  0  8G29G26G 6G16G18G15G21G22
  22943024.1974     418610.88943    345941.31342  22943026.5534   22943023.2744
        50.0004         43.0004
  21847206.9694    7277628.18943   5677477.36042  21847208.9584   21847206.0914
        53.0004         46.0004
  20939153.3514   10544231.18343   8216910.54542  20939154.7164   20939152.0304
        56.0004         49.0004
  23517173.9034   -1684388.31243  -1307741.04642  23517175.5734   23517172.0574
        45.0004         39.0004
  20651337.5274   -3337371.38843  -2593041.78342  20651338.9544   20651335.0244
        56.0004         51.0004
  23067213.4604   -5211694.24543  -4049102.39542  23067213.9894   23067213.4814
        49.0004         42.0004
  20726765.3014   -2029911.55544  -1574483.85042  20726766.4744   20726762.3614
        57.0004         50.0004
  22457078.7034   -6268066.91543  -4842628.18942  22457079.0344   22457074.6514
        53.0004         46.0004
 04  6 17 16  3 40.0000000  0  8G29G26G 6G16G18G15G21G22
  22948784.1284     448877.89443    369525.95742  22948785.4784   22948782.8554
        49.0004         43.0004
  21849712.3064    7290793.54743   5687736.06942  21849714.3184   21849711.4414
        53.0004         46.0004
  20946615.2014   10583443.42143   8247465.51442  20946616.7194   20946613.9074
        56.0004         49.0004
  23516376.4564   -1688577.50243  -1311005.37142  23516378.7864   23516376.2264
        45.0004         39.0004
  20647357.2154   -3358288.38743  -2609340.74442  20647358.5804   20647354.5144
        56.0004         51.0004
  23058185.6004   -5259137.11843  -4086070.86142  23058185.5214   23058184.6024
        48.0004         41.0004
  20724357.4794   -2042564.50244  -1584343.29742  20724358.6694   20724354.2454
        57.0004         50.0004
  22447134.1154   -6320326.48143  -4883349.93242  22447134.7054   22447130.0724
        53.0004         46.0004
 04  6 17 16  4  0.0000000  0  8G29G26G 6G16G18G15G21G22
  22954585.7584     479366.61843    393283.38242  22954587.2774   22954585.4484
        49.0004         43.0004
  21852272.7804    7304248.96843   5698220.80242  21852274.7874   21852272.4674
        53.0004         46.0004
  20954114.0354   10622849.90743   8278171.84642  20954115.5954   20954112.7824
        56.0004         49.0004
  23515623.4844   -1692537.70143  -1314091.26642  23515625.6024   23515623.4644
        45.0004         40.0004
  20643412.4384   -3379018.20743  -2625493.84842  20643413.6084   20643410.0814
        56.0004         51.0004
  23049160.9544   -5306561.81043  -4123025.16842  23049161.2494   23049160.4714
        48.0004         41.0004
  20721964.5194   -2055140.73544  -1594142.96642  20721965.5244   20721961.5854
        57.0004         50.0004
  22437214.7274   -6372451.96943  -4923967.18742  22437215.1284   22437210.8684
        54.0004         46.0004
 04  6 17 16  4 20.0000000  0  8G29G26G 6G16G18G15G21G22
  22960431.5524     510087.22543    417221.47942  22960433.9324   22960430.5794
        50.0004         43.0004
  21854890.4354    7318004.73743   5708939.56942  21854891.5924   21854889.6034
        53.0004         46.0004
  20961651.6634   10662460.75943   8309037.43042  20961653.2374   20961650.5204
        56.0004         49.0004
  23514915.9584   -1696258.71143  -1316990.78042  23514916.2794   23514914.1744
        46.0004         39.0004
  20639505.2354   -3399550.31243  -2641492.89042  20639506.4314   20639502.8374
        56.0004         51.0004
  23040141.4134   -5353957.79443  -4159957.10042  23040141.7554   23040141.2614
        48.0004         42.0004
  20719587.7804   -2067629.72144  -1603874.64842  20719588.6174   20719584.9184
        57.0004         50.0004
  22427323.1334   -6424432.69343  -4964471.64342  22427323.6034   22427319.6164
        53.0004         46.0004
 04  6 17 16  4 40.0000000  0  8G29G26G 6G16G18G15G21G22
  22966319.7954     541029.11743    441332.01042  22966320.8954   22966318.7184
        49.0004         43.0004
  21857563.3514    7332050.72343   5719884.48342  21857565.3334   21857562.6114
        53.0004         46.0004
  20969226.4424   10702265.59743   8340054.16642  20969227.5864   20969225.2104
        56.0004         49.0004
  23514250.8574   -1699750.93243  -1319712.02642  23514252.5234   23514248.6814
        45.0004         39.0004
  20635633.6934   -3419894.94843  -2657345.85342  20635635.0044   20635631.4934
        56.0004         51.0004
  23031125.9284   -5401335.16543  -4196874.52642  23031127.2114   23031124.7174
        49.0004         41.0004
  20717226.0504   -2080041.36544  -1613546.06742  20717227.1994   20717222.7684
        57.0004         50.0004
  22417457.4134   -6476278.42143  -5004870.91142  22417457.3434   22417453.8414
        53.0004         46.0004
 04  6 17 16  5  0.0000000  0  8G29G26G 6G16G18G15G21G22
  22972250.1874     572195.16743    465617.21342  22972252.9134   22972249.9154
        49.0004         43.0004
  21860291.8944    7346389.97743   5731057.91342  21860294.1324   21860291.2814
        53.0004         46.0004
  20976838.5304   10742267.26043   8371224.27442  20976839.9894   20976837.5244
        56.0004         49.0004
  23513630.4974   -1703011.15143  -1322252.47542  23513631.5074   23513630.0804
        46.0004         39.0004
  20631798.5844   -3440049.29043  -2673050.53542  20631799.7764   20631796.4354
        56.0004         51.0004
  23022114.5364   -5448690.58643  -4233774.85042  23022115.2944   23022113.3144
        49.0004         42.0004
  20714879.5364   -2092372.23644  -1623154.54442  20714880.4304   20714876.6154
        57.0004         50.0004
  22407617.7554   -6527985.85643  -5045162.41442  22407618.0784   22407613.8904
        54.0004         46.0004
 04  6 17 16  5 20.0000000  0  8G29G26G 6G16G18G15G21G22
  22978224.0074     603586.35543    490077.85642  22978225.1864   22978222.9024
        49.0004         43.0004
  21863076.8284    7361023.71543   5742460.81142  21863078.4904   21863075.6384
        53.0004         46.0004
  20984488.1834   10782467.05043   8402548.76242  20984489.5174   20984486.9674
        56.0004         49.0004
  23513054.3284   -1706038.02443  -1324611.10542  23513055.4174   23513054.8164
        46.0004         39.0004
  20627999.7624   -3460011.57743  -2688605.56442  20628001.0734   20627997.0394
        56.0004         51.0004
  23013107.8614   -5496022.57943  -4270656.90642  23013107.2454   23013107.0074
        48.0004         41.0004
  20712548.6754   -2104620.71744  -1632698.82242  20712549.7864   20712545.4794
        57.0004         50.0004
  22397804.6004   -6579553.14743  -5085344.71842  22397804.7804   22397800.9274
        54.0004         46.0004
 04  6 17 16  5 40.0000000  0  8G29G26G 6G16G18G15G21G22
  22984241.2464     635207.40443    514717.60042  22984242.7044   22984239.9524
        50.0004         43.0004
  21865918.2224    7375956.97143   5754097.09942  21865920.2964   21865917.7744
        53.0004         46.0004
  20992176.6224   10822869.62543   8434031.26942  20992177.9094   20992175.1824
        56.0004         49.0004
  23512524.1594   -1708826.55743  -1326784.01642  23512524.2894   23512523.0184
        46.0004         40.0004
  20624238.6504   -3479776.93543  -2704007.13942  20624239.7794   20624236.0644
        56.0004         51.0004
  23004106.1654   -5543326.05043  -4307516.75242  23004106.5734   23004105.2704
        48.0004         42.0004
  20710234.6574   -2116781.59944  -1642174.84342  20710235.7624   20710231.4114
        57.0004         50.0004
  22388019.4434   -6630974.80843  -5125413.53642  22388019.6494   22388015.9494
        54.0004         46.0004
 04  6 17 16  6  0.0000000  0  8G29G26G 6G16G18G15G21G22
  22990299.6924     667046.18743    539527.00742  22990301.4024   22990299.1714
        49.0004         43.0004
  21868814.8204    7391177.83643   5765957.49542  21868816.7464   21868813.4524
        53.0004         46.0004
  20999901.3154   10863462.89043   8465662.36342  20999902.5464   20999900.0494
        56.0004         49.0004
  23512036.5754   -1711388.59643  -1328780.43742  23512037.4594   23512036.1144
        46.0004         40.0004
  20620512.7424   -3499357.11843  -2719264.42442  20620513.9444   20620510.1004
        56.0004         51.0004
  22995107.9934   -5590612.55743  -4344363.38142  22995108.0264   22995109.5154
        48.0004         41.0004
  20707934.8624   -2128866.17944  -1651591.40742  20707935.9084   20707931.8574
        57.0004         50.0004
  22378259.7464   -6682262.29343  -5165377.80842  22378260.0514   22378256.1384
        54.0004         46.0004
 04  6 17 16  6 20.0000000  0  8G29G26G 6G16G18G15G21G22
  22996401.5084     699110.86243    564512.43442  22996404.2914   22996400.7234
        49.0004         43.0004
  21871768.0284    7406694.90443   5778048.70142  21871769.1484   21871767.0524
        53.0004         46.0004
  21007663.8614   10904255.51243   8497448.80342  21007665.4344   21007662.6194
        56.0004         49.0004
  23511593.5824   -1713715.68943  -1330593.78342  23511593.9034   23511592.4614
        46.0004         40.0004
  20616823.5674   -3518743.30543  -2734370.54142  20616825.1284   20616821.0464
        56.0004         51.0004
  22986114.1024   -5637873.33943  -4381189.94142  22986115.3544   22986114.7144
        49.0004         41.0004
  20705651.4644   -2140865.99944  -1660941.92342  20705652.3024   20705648.4654
        57.0004         50.0004
  22368527.4154   -6733406.56743  -5205230.48042  22368527.5134   22368523.4864
        53.0004         46.0004
 04  6 17 16  6 40.0000000  0  8G29G26G 6G16G18G15G21G22
  23002545.6204     731396.20343    589669.80742  23002547.7474   23002545.2744
        49.0004         44.0004
  21874775.8774    7422503.09943   5790366.75542  21874777.7054   21874775.5034
        53.0004         46.0004
  21015463.4204   10945241.88443   8529386.21642  21015464.9594   21015461.8034
        56.0004         49.0004
  23511194.6944   -1715812.92643  -1332228.02442  23511195.8324   23511192.4964
        46.0004         40.0004
  20613170.3074   -3537940.65443  -2749329.51542  20613171.8754   20613167.9914
        56.0004         51.0004
  22977124.7874   -5685113.19243  -4418000.20442  22977125.6424   22977125.2974
        49.0004         42.0004
  20703383.4954   -2152785.46444  -1670229.82542  20703384.2524   20703380.4324
        57.0004         50.0004
  22358821.3944   -6784412.39543  -5244975.28042  22358821.4034   22358817.5284
        53.0004         46.0004
 04  6 17 16  7  0.0000000  0  8G29G26G 6G16G18G15G21G22
  23008732.4424     763907.72043    615003.41642  23008734.5524   23008732.3324
        49.0004         43.0004
  21877840.6384    7438608.28943   5802916.23342  21877841.8794   21877839.4404
        53.0004         46.0004
  21023300.8784   10986427.96343   8561479.24642  21023302.1774   21023299.6534
        56.0004         49.0004
  23510840.4024   -1717674.34743  -1333678.50842  23510842.0544   23510838.5394
        46.0004         39.0004
  20609554.6264   -3556943.13943  -2764136.64542  20609555.9214   20609552.0414
        56.0004         51.0004
  22968140.4724   -5732325.90843  -4454789.32242  22968141.3624   22968140.5684
        49.0004         42.0004
  20701131.4484   -2164618.56644  -1679450.43042  20701132.5384   20701128.3824
        57.0004         50.0004
  22349142.7874   -6835273.32043  -5284607.16442  22349143.4434   22349139.2164
        53.0004         46.0004
 04  6 17 16  7 20.0000000  0  8G29G26G 6G16G18G15G21G22
  23014960.9734     796639.08543    640508.34242  23014962.5664   23014960.8514
        50.0004         43.0004
  21880960.6804    7455004.25643   5815692.29042  21880961.7924   21880959.4954
        53.0004         46.0004
  21031175.1404   11027807.36143   8593722.91842  21031176.6504   21031174.2734
        56.0004         49.0004
  23510530.2164   -1719306.04743  -1334949.98942  23510529.5794   23510529.1334
        46.0004         40.0004
  20605974.1644   -3575756.97043  -2778796.77442  20605975.4934   20605971.6944
        56.0004         51.0004
  22959160.2724   -5779517.37043  -4491561.88342  22959159.8654   22959160.3564
        49.0004         42.0004
  20698895.3454   -2176370.94244  -1688608.13342  20698896.1804   20698892.1044
        57.0004         50.0004
  22339490.6404   -6885995.13943  -5324130.65242  22339490.8724   22339486.9434
        53.0004         46.0004
 04  6 17 16  7 40.0000000  0  8G29G26G 6G16G18G15G21G22
  23021231.6214     829592.97243    666186.65142  23021231.8434   23021230.8204
        50.0004         43.0004
  21884136.8714    7471694.08843   5828697.33042  21884138.5464   21884136.1084
        53.0004         46.0004
  21039086.9074   11069382.88043   8626119.40842  21039088.2894   21039085.1624
        56.0004         49.0004
  23510263.6624   -1720705.16843  -1336040.23742  23510265.6424   23510261.5784
        46.0004         40.0004
  20602430.6294   -3594378.72743  -2793307.22942  20602431.8444   20602428.1854
        56.0004         51.0004
  22950184.6424   -5826684.35443  -4528315.36642  22950185.6434   22950183.4144
        49.0004         41.0004
  20696674.5634   -2188039.42344  -1697700.46142  20696675.6264   20696671.6744
        57.0004         50.0004
  22329865.6594   -6936574.29143  -5363542.96742  22329865.9754   22329861.8864
        53.0004         46.0004
 04  6 17 16  8  0.0000000  0  8G29G26G 6G16G18G15G21G22
  23027544.7314     862766.80543    692036.34842  23027546.2234   23027544.2014
        50.0004         43.0004
  21887368.2594    7488675.31043   5841929.42642  21887369.8254   21887367.8134
        53.0004         46.0004
  21047035.1174   11111152.00743   8658666.75742  21047036.6174   21047033.4654
        56.0004         49.0004
  23510041.3954   -1721874.05343  -1336951.09242  23510043.9584   23510040.0924
        46.0004         40.0004
  20598923.1944   -3612810.70443  -2807669.80642  20598924.8154   20598920.5544
        56.0004         51.0004
  22941213.5064   -5873829.03943  -4565051.48042  22941212.0724   22941213.8524
        48.0004         41.0004
  20694470.0374   -2199625.81244  -1706728.82442  20694471.0264   20694466.8054
        57.0004         50.0004
  22320267.6124   -6987012.80143  -5402845.68942  22320267.9844   22320264.2894
        53.0004         46.0004
 04  6 17 16  8 20.0000000  0  8G29G26G 6G16G18G15G21G22
  23033899.3444     896163.23343    718059.51242  23033902.1224   23033900.9004
        49.0004         43.0004
  21890655.7044    7505950.83043   5855390.84142  21890657.0874   21890654.9434
        53.0004         46.0004
  21055020.9024   11153117.54043   8691367.15342  21055022.3234   21055019.8354
        56.0004         49.0004
  23509863.4314   -1722809.73943  -1337680.21942  23509864.3134   23509860.6884
        46.0004         40.0004
  20595452.2394   -3631049.95043  -2821882.20442  20595453.7134   20595449.8924
        56.0004         51.0004
  22932247.2594   -5920948.33743  -4601767.80142  22932248.1414   22932245.7464
        48.0004         42.0004
  20692281.3924   -2211127.00344  -1715690.79642  20692282.4114   20692278.1794
        57.0004         50.0004
  22310696.9414   -7037307.10243  -5442036.04442  22310697.2374   22310692.7114
        54.0004         46.0004
 04  6 17 16  8 40.0000000  0  8G29G26G 6G16G18G15G21G22
  23040295.8664     929776.45843    744251.59642  23040298.0434   23040294.6194
        49.0004         43.0004
  21893998.0414    7523515.07143   5869077.24042  21893999.9274   21893997.4924
        53.0004         46.0004
  21063043.0314   11195273.69043   8724216.08042  21063044.5044   21063042.0164
        56.0004         49.0004
  23509728.3344   -1723517.76843  -1338231.96042  23509729.8704   23509727.5754
        46.0004         40.0004
  20592017.1104   -3649101.90443  -2835948.66342  20592018.6214   20592014.8274
        56.0004         51.0004
  22923283.9034   -5968047.52443  -4638468.46742  22923284.1724   22923282.8004
        49.0004         41.0004
  20690108.0164   -2222548.42744  -1724590.61442  20690109.0274   20690104.9514
        57.0004         50.0004
  22301152.7424   -7087462.45543  -5481118.12842  22301153.2584   22301148.7134
        53.0004         46.0004
 04  6 17 16  9  0.0000000  0  8G29G26G 6G16G18G15G21G22
  23046734.9014     963612.70043    770617.44642  23046735.8834   23046734.4684
        49.0004         43.0004
  21897396.6014    7541374.66543   5882993.78642  21897397.7714   21897395.8694
        53.0004         46.0004
  21071102.6704   11237626.86343   8757218.53142  21071104.1144   21071101.4614
        56.0004         49.0004
  23509639.1214   -1723991.51543  -1338601.13342  23509639.8304   23509637.0374
        46.0004         40.0004
  20588618.9894   -3666959.90843  -2849863.98442  20588620.1154   20588616.5164
        56.0004         51.0004
  22914326.8914   -6015119.65943  -4675148.04042  22914327.0544   22914326.8754
        49.0004         42.0004
  20687951.1504   -2233882.85944  -1733422.64542  20687952.0864   20687947.9504
        57.0004         50.0004
  22291636.3804   -7137471.78843  -5520086.43542  22291636.8554   22291632.5814
        53.0004         46.0004
 04  6 17 16  9 20.0000000  0  8G29G26G 6G16G18G15G21G22
  23053215.9114     997669.25743    797154.99342  23053218.3314   23053214.3964
        50.0004         43.0004
  21900850.6544    7559526.90443   5897138.36342  21900852.6634   21900850.3644
        52.0004         46.0004
  21079199.0914   11280174.38244   8790372.42042  21079200.8914   21079198.0764
        57.0004         49.0004
  23509592.7324   -1724233.46043  -1338789.68742  23509593.2554   23509592.7074
        46.0004         40.0004
  20585257.1044   -3684626.53343  -2863630.18142  20585258.4534   20585254.5184
        56.0004         51.0004
  22905373.9134   -6062167.05643  -4711808.33342  22905374.4974   22905372.9004
        49.0004         42.0004
  20685810.4264   -2245132.53344  -1742188.62842  20685811.2674   20685806.8684
        57.0004         50.0004
  22282147.1264   -7187337.14943  -5558942.54642  22282147.7334   22282143.1764
        53.0004         46.0004
 04  6 17 16  9 40.0000000  0  8G29G26G 6G16G18G15G21G22
  23059737.6994    1031942.52943    823861.40142  23059739.6794   23059736.6954
        49.0004         43.0004
  21904360.0024    7577968.76943   5911508.61842  21904361.9284   21904358.7444
        52.0004         46.0004
  21087332.1574   11322912.99643   8823675.21542  21087333.5264   21087330.8504
        56.0004         49.0004
  23509590.0354   -1724246.89343  -1338800.18242  23509591.3174   23509588.1264
        46.0004         40.0004
  20581931.0994   -3702104.65643  -2877249.49542  20581932.4094   20581928.6494
        56.0004         51.0004
  22896425.3544   -6109192.43043  -4748451.47342  22896426.4184   22896425.3924
        49.0004         42.0004
  20683685.1964   -2256300.23944  -1750890.74342  20683686.2094   20683682.3224
        57.0004         50.0004
  22272684.9724   -7237061.18443  -5597688.52842  22272685.1324   22272681.0404
        53.0004         46.0004
 04  6 17 16 10  0.0000000  0  8G29G26G 6G16G18G15G21G22
  23066301.6794    1066435.02443    850738.63242  23066303.3854   23066301.9904
        49.0004         43.0004
  21907924.9964    7596702.80843   5926106.54642  21907927.6354   21907924.2324
        52.0004         46.0004
  21095501.7144   11365845.10743   8857128.78742  21095503.0854   21095500.5754
        56.0004         49.0004
  23509631.6204   -1724029.14243  -1338630.52842  23509632.4084   23509630.7144
        46.0004         40.0004
  20578641.3784   -3719391.72043  -2890719.93342  20578642.8994   20578639.0044
        56.0004         51.0004
  22887481.3504   -6156192.98443  -4785075.27442  22887482.2204   22887482.6454
        49.0004         42.0004
  20681576.2844   -2267382.91044  -1759526.59842  20681577.3154   20681573.1984
        57.0004         50.0004
  22263250.3524   -7286641.01843  -5636322.14142  22263250.3004   22263246.4954
        54.0004         46.0004
 04  6 17 16 10 20.0000000  0  8G29G26G 6G16G18G15G21G22
  23072905.9494    1101141.67943    877782.74042  23072907.4724   23072906.1294
        49.0004         43.0004
  21911544.9794    7615724.21943   5940928.39942  21911546.9764   21911544.8444
        52.0004         46.0004
  21103707.3514   11408965.82643   8890729.32742  21103708.9914   21103706.1724
        56.0004         49.0004
  23509715.3224   -1723584.97043  -1338284.44442  23509716.5014   23509714.3314
        46.0004         40.0004
  20575387.2944   -3736492.28243  -2904045.04442  20575388.7814   20575384.9464
        56.0004         51.0004
  22878541.6334   -6203173.08243  -4821683.13142  22878542.4944   22878540.5174
        49.0004         42.0004
  20679482.6464   -2278384.97444  -1768099.64242  20679483.6864   20679479.6174
        57.0004         50.0004
  22253842.3074   -7336080.76943  -5674846.60442  22253842.2994   22253838.7914
        53.0004         46.0004
 04  6 17 16 10 40.0000000  0  8G29G26G 6G16G18G15G21G22
  23079552.8514    1136072.15343    905001.25142  23079555.4344   23079553.0894
        50.0004         43.0004
  21915220.8774    7635042.80343   5955981.81542  21915222.7334   21915220.2914
        52.0004         46.0004
  21111950.7564   11452284.78843   8924484.33442  21111952.1574   21111949.9064
        56.0004         49.0004
  23509845.2364   -1722904.52343  -1337754.24742  23509845.9314   23509844.3574
        46.0004         40.0004
  20572170.6264   -3753396.40443  -2917217.08742  20572171.8164   20572168.1194
        56.0004         51.0004
  22869607.2334   -6250122.64343  -4858267.19042  22869608.2054   22869606.1984
        49.0004         42.0004
  20677406.4494   -2289296.23844  -1776601.93042  20677407.4714   20677403.0824
        57.0004         50.0004
  22244462.9144   -7385370.20343  -5713253.94442  22244463.2474   22244459.3304
        53.0004         46.0004
 04  6 17 16 11  0.0000000  0  8G29G26G 6G16G18G15G21G22
  23086240.6044    1171217.21343    932386.96242  23086242.4584   23086240.0714
        49.0004         43.0004
  21918952.0764    7654649.66543   5971259.86542  21918954.0214   21918952.2014
        52.0004         46.0004
  21120230.1404   11495793.04044   8958386.84342  21120231.4274   21120229.0154
        57.0004         49.0004
  23510017.5604   -1721996.64543  -1337046.83442  23510019.2644   23510018.0324
        46.0004         40.0004
  20568989.4604   -3770112.88243  -2930242.91142  20568990.7704   20568987.1794
        56.0004         51.0004
  22860677.3094   -6297050.23843  -4894834.13342  22860676.9314   22860677.0114
        49.0004         42.0004
  20675345.6194   -2300125.07344  -1785039.98642  20675346.5934   20675342.7674
        57.0004         50.0004
  22235110.2914   -7434517.56343  -5751550.57542  22235110.5444   22235106.4724
        53.0004         46.0004
 04  6 17 16 11 20.0000000  0  8G29G26G 6G16G18G15G21G22
  23092969.3564    1206576.16543    959939.34542  23092971.2804   23092969.2964
        49.0004         43.0004
  21922738.0514    7674544.18543   5986762.06542  21922739.7034   21922737.4174
        52.0004         46.0004
  21128545.3954   11539489.92843   8992436.34442  21128546.7204   21128544.1274
        56.0004         49.0004
  23510234.1484   -1720861.96743  -1336162.69342  23510234.6894   23510232.6564
        46.0004         40.0004
  20565844.2494   -3786642.04343  -2943122.77342  20565845.6034   20565841.7154
        56.0004         51.0004
  22851751.5084   -6343956.15143  -4931384.17842  22851752.4694   22851750.7294
        48.0004         42.0004
  20673300.6634   -2310871.66844  -1793413.96342  20673301.6254   20673297.5184
        57.0004         50.0004
  22225784.7894   -7483522.98143  -5789736.59942  22225784.8994   22225781.1234
        53.0004         46.0004
 04  6 17 16 11 40.0000000  0  8G29G26G 6G16G18G15G21G22
  23099739.2794    1242152.08443    987660.80342  23099741.7764   23099739.3014
        49.0004         43.0004
  21926579.6414    7694729.84243   6002491.12842  21926581.6114   21926577.9744
        52.0004         46.0004
  21136897.0054   11583378.62543   9026635.30742  21136898.8404   21136896.1344
        56.0004         49.0004
  23510494.2424   -1719496.98843  -1335099.10542  23510495.2644   23510493.3324
        47.0004         40.0004
  20562735.1674   -3802980.41243  -2955853.96042  20562736.5114   20562732.5084
        56.0004         51.0004
  22842830.4904   -6390836.63843  -4967914.42042  22842830.9384   22842830.5594
        48.0004         42.0004
  20671272.0854   -2321532.12544  -1801720.81942  20671273.0964   20671269.1614
        57.0004         50.0004
  22216487.0964   -7532382.61743  -5827809.02342  22216486.9444   22216483.2024
        53.0004         46.0004
 04  6 17 16 12  0.0000000  0  8G29G26G 6G16G18G15G21G22
  23106550.5464    1277943.71743   1015550.34542  23106552.7794   23106549.7464
        49.0004         43.0004
  21930475.3064    7715205.50243   6018446.16242  21930477.1024   21930475.3644
        52.0004         46.0004
  21145285.0664   11627457.89943   9060982.77342  21145286.2944   21145283.5224
        56.0004         49.0004
  23510797.5984   -1717902.87343  -1333856.95342  23510799.1974   23510795.0754
        47.0004         40.0004
  20559662.0444   -3819128.92443  -2968437.21442  20559663.2534   20559659.3424
        56.0004         51.0004
  22833913.5704   -6437692.36643  -5004425.37342  22833912.9134   22833913.4614
        49.0004         42.0004
  20669259.6774   -2332107.05644  -1809961.02942  20669260.6534   20669256.9494
        57.0004         50.0004
  22207216.7984   -7581097.14643  -5865768.37942  22207217.1884   22207213.2134
        53.0004         46.0004
 04  6 17 16 12 20.0000000  0  8G29G26G 6G16G18G15G21G22
  23113402.5004    1313952.30443   1043608.95742  23113404.5184   23113403.5244
        49.0004         43.0004
  21934427.5394    7735972.77443   6034628.43642  21934429.4964   21934426.0854
        52.0004         45.0004
  21153709.7474   11671729.27643   9095479.92942  21153711.0724   21153708.6224
        56.0004         49.0004
  23511144.5524   -1716077.90343  -1332434.92942  23511146.5344   23511142.7854
        47.0004         40.0004
  20556625.8194   -3835085.69643  -2980871.06142  20556626.7554   20556623.2734
        56.0004         51.0004
  22825002.6084   -6484521.33243  -5040915.46742  22825002.0274   22825002.3634
        49.0004         42.0004
  20667263.9784   -2342594.47144  -1818133.04642  20667264.8704   20667261.0014
        57.0004         50.0004
  22197974.9994   -7629664.38343  -5903612.96442  22197975.1774   22197971.0004
        53.0004         46.0004
 04  6 17 16 12 40.0000000  0  8G29G26G 6G16G18G15G21G22
  23120295.1204    1350171.45243   1071831.62442  23120297.0394   23120296.0004
        50.0004         43.0004
  21938433.7774    7757025.31943   6051032.99642  21938434.7914   21938432.6114
        52.0004         45.0004
  21162169.6574   11716186.49643   9130121.89842  21162170.9504   21162168.1464
        56.0004         49.0004
  23511534.4864   -1714028.24743  -1330837.81942  23511535.4104   23511534.4154
        47.0004         40.0004
  20553624.3564   -3850856.96443  -2993160.36042  20553625.6684   20553622.0484
        56.0004         51.0004
  22816095.1844   -6531329.62943  -5077389.45142  22816095.2014   22816094.8224
        49.0004         42.0004
  20665283.7784   -2353000.22844  -1826241.43142  20665285.0444   20665281.0084
        57.0004         50.0004
  22188759.6494   -7678090.08243  -5941347.26042  22188759.9824   22188756.1904
        53.0004         46.0004
 04  6 17 16 13  0.0000000  0  8G29G26G 6G16G18G15G21G22
  23127228.5584    1386606.89343   1100222.85042  23127228.7654   23127228.3894
        49.0004         43.0004
  21942495.2554    7778369.07243   6067664.47142  21942496.6864   21942493.9854
        52.0004         45.0004
  21170666.0524   11760835.27943   9164913.13542  21170667.4734   21170664.6864
        56.0004         49.0004
  23511968.5624   -1711747.92943  -1329060.97642  23511969.5474   23511967.1254
        47.0004         41.0004
  20550659.7974   -3866436.68243  -3005300.40142  20550661.2104   20550657.2594
        56.0004         51.0004
  22807192.7394   -6578110.66843  -5113842.20142  22807193.8714   22807193.5964
        49.0004         42.0004
  20663320.3864   -2363318.02544  -1834281.27942  20663321.4364   20663317.4274
        57.0004         50.0004
  22179572.8584   -7726367.73043  -5978966.18942  22179573.2754   22179569.0654
        53.0004         46.0004
 04  6 17 16 13 20.0000000  0  8G29G26G 6G16G18G15G21G22
  23134202.0074    1423255.55043   1128780.20242  23134203.9754   23134202.6854
        49.0004         43.0004
  21946612.0274    7800001.21543   6084520.66242  21946613.0574   21946611.0914
        52.0004         46.0004
  21179198.2414   11805672.45843   9199851.17742  21179199.7784   21179197.1144
        56.0004         49.0004
  23512445.7924   -1709240.01243  -1327106.78242  23512447.1084   23512446.0144
        47.0004         40.0004
  20547731.1174   -3881827.53743  -3017293.27442  20547732.1384   20547728.5194
        56.0004         51.0004
  22798295.4194   -6624867.14743  -5150275.81542  22798295.2244   22798296.4004
        49.0004         42.0004
  20661373.2894   -2373550.28144  -1842254.47142  20661374.4694   20661370.1594
        57.0004         50.0004
  22170413.6724   -7774499.68843  -6016471.59542  22170414.1014   22170409.7894
        53.0004         46.0004
 04  6 17 16 13 40.0000000  0  8G29G26G 6G16G18G15G21G22
  23141216.7884    1460117.21843   1157503.53142  23141218.4894   23141216.0214
        49.0004         43.0004
  21950783.3064    7821921.78843   6101601.60542  21950785.7204   21950782.5764
        52.0004         46.0004
  21187766.5144   11850698.19643   9234936.14642  21187768.1164   21187765.1724
        56.0004         49.0004
  23512966.5744   -1706504.26643  -1324975.05742  23512968.6874   23512965.1224
        47.0004         40.0004
  20544838.0544   -3897029.27743  -3029138.78342  20544839.5034   20544835.6014
        56.0004         51.0004
  22789402.4844   -6671598.56843  -5186689.89542  22789403.3764   22789402.6284
        49.0004         42.0004
  20659442.6164   -2383696.34044  -1850160.49842  20659443.6654   20659439.4664
        57.0004         50.0004
  22161282.3194   -7822485.44343  -6053863.06942  22161283.0804   22161278.5834
        53.0004         46.0004
 04  6 17 16 14  0.0000000  0  8G29G26G 6G16G18G15G21G22
  23148271.2814    1497187.98743   1186389.81042  23148271.9944   23148271.5904
        49.0004         43.0004
  21955008.4374    7844127.09843   6118904.42342  21955010.3514   21955008.4684
        52.0004         46.0004
  21196369.7964   11895908.69643   9270165.08742  21196371.1044   21196368.6824
        56.0004         49.0004
  23513529.4684   -1703544.17743  -1322668.52142  23513531.4134   23513529.4924
        47.0004         40.0004
  20541980.7714   -3912045.49943  -3040839.73342  20541981.9944   20541978.0004
        56.0004         51.0004
  22780514.2904   -6718308.25643  -5223087.04942  22780513.3594   22780513.8384
        49.0004         42.0004
  20657527.7304   -2393759.35744  -1858001.81342  20657528.6894   20657524.5034
        57.0004         50.0004
  22152178.3014   -7870327.98043  -6091142.94842  22152178.6404   22152174.3344
        53.0004         46.0004
 04  6 17 16 14 20.0000000  0  8G29G26G 6G16G18G15G21G22
  23155367.3224    1534477.27543   1215446.35242  23155367.1664   23155367.4644
        49.0004         43.0004
  21959290.2554    7866626.75243   6136436.60342  21959291.4164   21959289.1414
        52.0004         45.0004
  21205009.9144   11941313.43043   9305545.38342  21205011.4544   21205008.6224
        56.0004         49.0004
  23514137.9274   -1700350.28743  -1320179.79342  23514139.3344   23514136.1874
        47.0004         41.0004
  20539160.4664   -3926866.06143  -3052388.22342  20539161.7334   20539157.9934
        56.0004         51.0004
  22771631.7244   -6764986.26843  -5259459.50742  22771632.4114   22771631.9724
        49.0004         42.0004
  20655630.5984   -2403729.27544  -1865770.58342  20655631.5774   20655627.4074
        57.0004         50.0004
  22143102.9904   -7918017.27643  -6128303.41842  22143103.8934   22143099.1244
        53.0004         46.0004
 04  6 17 16 14 40.0000000  0  8G29G26G 6G16G18G15G21G22
  23162502.2994    1571972.58243   1244663.44242  23162503.6084   23162502.5494
        49.0004         42.0004
  21963625.4494    7889408.48443   6154188.58442  21963627.4374   21963625.1424
        52.0004         45.0004
  21213684.8584   11986900.07643   9341067.43042  21213686.0804   21213683.7244
        55.0004         49.0004
  23514787.3444   -1696934.83043  -1317518.42942  23514787.9404   23514787.2944
        48.0004         41.0004
  20536375.0704   -3941503.32743  -3063793.88342  20536376.4214   20536372.7304
        56.0004         51.0004
  22762752.4944   -6811644.38343  -5295816.46242  22762753.2104   22762752.1964
        49.0004         42.0004
  20653748.7994   -2413617.90344  -1873476.01742  20653749.5764   20653745.6494
        57.0004         50.0004
  22134054.9814   -7965565.11843  -6165353.66542  22134055.5874   22134051.9174
        54.0004         46.0004
 04  6 17 16 15  0.0000000  0  8G29G26G 6G16G18G15G21G22
  23169679.0684    1609683.00643   1274048.15042  23169678.5074   23169676.7434
        49.0004         42.0004
  21968016.2324    7912481.62643   6172167.63942  21968017.9424   21968015.1254
        52.0004         45.0004
  21222396.0224   12032677.82143   9376738.37942  21222397.2494   21222394.5184
        56.0004         49.0004
  23515481.2784   -1693288.33843  -1314677.03342  23515482.6294   23515479.7024
        47.0004         40.0004
  20533626.4124   -3955948.05543  -3075049.51442  20533627.5914   20533623.9694
        56.0004         51.0004
  22753879.7164   -6858272.79943  -5332150.28442  22753881.5484   22753881.2114
        49.0004         42.0004
  20651884.2554   -2423415.42644  -1881110.45942  20651885.1624   20651881.3104
        57.0004         50.0004
  22125035.8314   -8012961.55643  -6202285.94142  22125036.3154   22125031.9394
        54.0004         46.0004
 04  6 17 16 15 20.0000000  0  8G29G26G 6G16G18G15G21G22
  23176893.9684    1647600.75043   1303594.42342  23176895.3734   23176893.3514
        49.0004         42.0004
  21972460.7524    7935838.35943   6190367.67642  21972461.8044   21972460.3954
        52.0004         45.0004
  21231142.0474   12078638.88543   9412552.17942  21231143.4454   21231140.9884
        56.0004         49.0004
  23516217.2934   -1689418.54343  -1311661.63042  23516219.7454   23516216.8884
        47.0004         41.0004
  20530912.8874   -3970207.50743  -3086160.77042  20530914.2584   20530910.4934
        56.0004         51.0004
  22745010.5514   -6904878.80743  -5368466.62642  22745012.3074   22745009.7884
        50.0004         42.0004
  20650036.0944   -2433128.79444  -1888679.32142  20650037.0914   20650032.8214
        57.0004         50.0004
  22116044.1444   -8060213.82043  -6239105.86942  22116044.4824   22116039.8354
        54.0004         47.0004
 04  6 17 16 15 40.0000000  0  8G29G26G 6G16G18G15G21G22
  23184149.3764    1685726.90243   1333303.08142  23184151.6344   23184147.5114
        50.0004         42.0004
  21976959.5374    7959480.13343   6208789.81342  21976961.9574   21976959.0514
        52.0004         45.0004
  21239923.2464   12124784.40743   9448509.71342  21239924.6314   21239922.1614
        55.0004         49.0004
  23516997.3604   -1685324.02443  -1308471.12542  23516997.7284   23516996.3894
        48.0004         40.0004
  20528234.9154   -3984280.04143  -3097126.38242  20528236.0434   20528232.4334
        56.0004         51.0004
  22736146.7294   -6951460.60043  -5404764.11342  22736148.6114   22736146.1914
        49.0004         42.0004
  20648203.7824   -2442756.35044  -1896181.31842  20648205.1724   20648200.7694
        57.0004         50.0004
  22107080.1214   -8107320.01543  -6275811.98142  22107079.9234   22107076.0224
        54.0004         47.0004
 04  6 17 16 16  0.0000000  0  8G29G26G 6G16G18G15G21G22
  23191444.5804    1724063.54843   1363175.76142  23191446.0014   23191443.8344
        49.0004         42.0004
  21981513.4094    7983409.14443   6227435.77642  21981513.9744   21981512.7954
        52.0004         45.0004
  21248740.1984   12171116.63243   9484612.72742  21248741.9194   21248738.8824
        55.0004         49.0004
  23517818.9044   -1681002.53143  -1305103.75142  23517820.2974   23517818.2234
        48.0004         41.0004
  20525593.0374   -3998163.48843  -3107944.65242  20525594.3914   20525590.4644
        56.0004         51.0004
  22727287.1204   -6998015.59243  -5441040.71342  22727289.0614   22727288.0914
        49.0004         42.0004
  20646388.7054   -2452295.41944  -1903614.36542  20646389.8204   20646385.7874
        57.0004         50.0004
  22098144.3514   -8154277.29543  -6312402.05142  22098144.6224   22098140.5724
        54.0004         47.0004
 04  6 17 16 16 20.0000000  0  8G29G26G 6G16G18G15G21G22
  23198779.7004    1762610.23243   1393212.11142  23198780.8284   23198779.3994
        49.0004         42.0004
  21986121.2734    8007625.25543   6246305.44642  21986122.4234   21986120.4804
        51.0004         45.0004
  21257592.2574   12217635.49743   9520861.17242  21257593.9114   21257591.1114
        55.0004         48.0004
  23518685.2034   -1676454.16443  -1301559.60242  23518684.5544   23518684.9504
        48.0004         41.0004
  20522987.2084   -4011857.59143  -3118615.37942  20522988.4994   20522984.6024
        56.0004         51.0004
  22718433.6094   -7044543.44143  -5477296.16642  22718435.0614   22718431.7474
        49.0004         43.0004
  20644590.3644   -2461745.44344  -1910978.02342  20644591.6094   20644587.2644
        57.0004         50.0004
  22089237.1364   -8201085.12843  -6348875.66542  22089237.2664   22089233.4134
        54.0004         47.0004
 04  6 17 16 16 40.0000000  0  8G29G26G 6G16G18G15G21G22
  23206154.0984    1801364.38943   1423410.13742  23206154.9544   23206154.4744
        49.0004         42.0004
  21990783.5884    8032125.92543   6265396.85342  21990784.7324   21990783.3804
        51.0004         45.0004
  21266479.4784   12264338.19943   9557252.86742  21266480.7754   21266478.3554
        55.0004         48.0004
  23519593.2214   -1671681.35943  -1297840.56242  23519593.9034   23519592.0904
        48.0004         41.0004
  20520416.8734   -4025364.85843  -3129140.51942  20520418.1684   20520414.3774
        56.0004         51.0004
  22709584.4094   -7091046.28043  -5513532.13042  22709586.3494   22709584.0744
        49.0004         43.0004
  20642808.6544   -2471108.63044  -1918274.01542  20642809.5734   20642805.4404
        57.0004         50.0004
  22080357.9724   -8247745.64943  -6385234.49742  22080358.5184   22080354.0644
        54.0004         47.0004
 04  6 17 16 17  0.0000000  0  8G29G26G 6G16G18G15G21G22
  23213568.3954    1840326.16143   1453769.92542  23213569.2784   23213569.4524
        49.0004         42.0004
  21995500.3294    8056911.60943   6284710.34742  21995501.8384   21995499.5314
        52.0004         45.0004
  21275401.7474   12311225.12343   9593788.11742  21275403.0344   21275400.7274
        55.0004         48.0004
  23520544.2204   -1666683.61543  -1293946.24342  23520546.0244   23520542.4074
        48.0004         41.0004
  20517882.1384   -4038684.52243  -3139519.47842  20517883.4174   20517879.7534
        56.0004         51.0004
  22700740.0274   -7137523.13843  -5549747.85042  22700742.5464   22700740.1874
        49.0004         43.0004
  20641043.6434   -2480383.81044  -1925501.43542  20641044.8304   20641040.4744
        57.0004         50.0004
  22071506.9524   -8294257.93243  -6421477.82142  22071507.5824   22071503.2404
        54.0004         47.0004
 04  6 17 16 17 20.0000000  0  8G29G26G 6G16G18G15G21G22
  23221021.9754    1879492.30443   1484288.96542  23221023.4804   23221020.8634
        49.0004         42.0004
  22000270.3404    8081979.18943   6304243.50742  22000272.6044   22000269.8034
        51.0004         45.0004
  21284358.5404   12358293.07343   9630464.42342  21284360.0104   21284357.8404
        55.0004         48.0004
  23521537.3224   -1661464.05443  -1289879.07042  23521538.1784   23521534.3494
        48.0004         41.0004
  20515382.6234   -4051819.47443  -3149754.49542  20515383.5954   20515380.2024
        56.0004         51.0004
  22691899.8464   -7183976.63443  -5585945.34242  22691902.0044   22691900.5214
        50.0004         43.0004
  20639294.8644   -2489573.65844  -1932662.35442  20639295.7374   20639291.6054
        57.0004         50.0004
  22062683.7184   -8340624.36943  -6457607.49842  22062684.0994   22062679.9154
        54.0004         47.0004
 04  6 17 16 17 40.0000000  0  8G29G26G 6G16G18G15G21G22
  23228514.9734    1918868.14943   1514971.41942  23228516.4024   23228513.7604
        49.0004         42.0004
  22005095.1714    8107334.14643   6324000.58642  22005096.7864   22005094.9094
        51.0004         45.0004
  21293350.7994   12405547.52943   9667286.05942  21293352.3084   21293349.9514
        55.0004         48.0004
  23522574.1764   -1656016.96843  -1285634.63542  23522575.4024   23522575.0584
        48.0004         41.0004
  20512919.3424   -4064764.15843  -3159841.25942  20512920.2564   20512916.8844
        56.0004         51.0004
  22683066.2254   -7230400.78543  -5622119.99142  22683064.7934   22683066.0554
        49.0004         43.0004
  20637563.3964   -2498672.10544  -1939752.05842  20637564.3734   20637560.5104
        57.0004         50.0004
  22053889.2644   -8386838.88643  -6493618.79842  22053889.7504   22053885.2624
        54.0004         47.0004
 04  6 17 16 18  0.0000000  0  8G29G26G 6G16G18G15G21G22
  23236046.8574    1958448.23743   1545813.02042  23236047.8984   23236046.2824
        49.0004         42.0004
  22009974.1384    8132971.15943   6343977.45242  22009976.3474   22009973.8414
        51.0004         45.0004
  21302377.4784   12452983.11743   9704248.83142  21302378.8794   21302376.2364
        55.0004         48.0004
  23523652.7134   -1650347.64343  -1281217.00242  23523654.1464   23523650.7334
        48.0004         41.0004
  20510491.2504   -4077523.46943  -3169783.57542  20510492.5744   20510488.6334
        56.0004         51.0004
  22674236.5994   -7276800.38143  -5658275.49242  22674237.6734   22674237.0624
        50.0004         43.0004
  20635848.7184   -2507683.65244  -1946774.04842  20635849.4634   20635845.5464
        57.0004         50.0004
  22045123.1104   -8432906.24443  -6529515.42442  22045123.4294   22045119.1094
        54.0004         47.0004
 04  6 17 16 18 20.0000000  0  8G29G26G 6G16G18G15G21G22
  23243617.7024    1998234.87143   1576815.56342  23243619.6094   23243617.5204
        49.0004         42.0004
  22014906.7954    8158892.75543   6364176.07042  22014908.1734   22014905.9364
        51.0004         45.0004
  21311439.0444   12500602.26243   9741354.64642  21311440.6684   21311437.8034
        55.0004         48.0004
  23524774.7264   -1644453.56643  -1276624.25942  23524774.1904   23524773.6794
        47.0004         41.0004
  20508099.0404   -4090094.84743  -3179579.45242  20508100.5644   20508096.2994
        56.0004         51.0004
  22665412.5384   -7323172.49443  -5694409.58842  22665412.5214   22665411.4614
        50.0004         43.0004
  20634150.9134   -2516605.28044  -1953725.96742  20634151.9954   20634147.5634
        57.0004         50.0004
  22036385.2164   -8478823.36943  -6565294.99442  22036385.6344   22036381.7694
        54.0004         47.0004
 04  6 17 16 18 40.0000000  0  8G29G26G 6G16G18G15G21G22
  23251227.6114    2038226.13843   1607977.56442  23251228.6394   23251226.8774
        49.0004         42.0004
  22019893.2114    8185097.24943   6384595.12442  22019894.8294   22019893.6694
        51.0004         45.0004
  21320535.4234   12548403.31043   9778602.19942  21320536.8334   21320534.7774
        54.0004         48.0004
  23525938.7504   -1638336.46943  -1271857.72842  23525939.3174   23525937.9874
        48.0004         41.0004
  20505742.3594   -4102479.72043  -3189229.99442  20505743.4194   20505739.8054
        56.0004         51.0004
  22656592.6294   -7369518.39143  -5730523.26242  22656593.6284   22656592.4984
        49.0004         43.0004
  20632470.0364   -2525438.19943  -1960608.76042  20632471.0924   20632467.1434
        56.0004         50.0004
  22027675.8264   -8524591.44443  -6600958.41542  22027676.5314   22027672.1574
        54.0004         47.0004
 04  6 17 16 19  0.0000000  0  8G29G26G 6G16G18G15G21G22
  23258876.2424    2078420.39643   1639297.75642  23258877.6894   23258875.5924
        49.0004         42.0004
  22024933.5304    8211583.14043   6405233.45342  22024934.9704   22024933.4454
        52.0004         45.0004
  21329665.8034   12596384.63643   9815990.22942  21329667.2834   21329665.3274
        54.0004         48.0004
  23527144.7884   -1631997.59243  -1266918.36242  23527145.3044   23527144.0314
        48.0004         41.0004
  20503420.6914   -4114679.35743  -3198736.19842  20503421.8654   20503418.3224
        56.0004         51.0004
  22647778.2984   -7415839.04843  -5766617.26742  22647778.6124   22647778.7724
        50.0004         43.0004
  20630805.9864   -2534183.34444  -1967423.15942  20630807.1064   20630802.6744
        57.0004         50.0004
  22018994.8024   -8570211.24543  -6636506.30242  22018994.9184   22018991.2674
        55.0004         47.0004
 04  6 17 16 19 20.0000000  0  8G29G26G 6G16G18G15G21G22
  23266564.0744    2118818.91043   1670777.09042  23266565.1764   23266562.9824
        49.0004         42.0004
  22030027.5704    8238351.85343   6426092.16742  22030029.4454   22030027.1724
        52.0004         45.0004
  21338830.9664   12644547.52243   9853519.73342  21338832.5494   21338830.3944
        55.0004         48.0004
  23528394.2574   -1625435.52043  -1261805.09342  23528395.0374   23528392.5364
        48.0004         41.0004
  20501134.7114   -4126692.14343  -3208096.80442  20501135.8324   20501132.3004
        56.0004         51.0004
  22638968.9954   -7462132.51843  -5802690.09142  22638968.8984   22638968.6674
        50.0004         43.0004
  20629158.8464   -2542838.88444  -1974167.73642  20629159.9024   20629155.6724
        57.0004         50.0004
  22010342.1504   -8615680.88443  -6671937.17442  22010342.6024   22010338.2314
        55.0004         47.0004
 04  6 17 16 19 40.0000000  0  8G29G26G 6G16G18G15G21G22
  23274290.2894    2159420.70043   1702414.82542  23274291.0724   23274290.7064
        49.0004         42.0004
  22035175.0984    8265402.68843   6447170.71642  22035176.5924   22035174.5964
        52.0004         45.0004
  21348030.5724   12692891.20443   9891190.11742  21348032.0394   21348029.7744
        55.0004         48.0004
  23529684.2704   -1618650.99043  -1256518.48042  23529685.8184   23529685.2884
        48.0004         41.0004
  20498884.2474   -4138518.59043  -3217312.21442  20498885.4344   20498881.6294
        56.0004         51.0004
  22630164.5854   -7508399.12243  -5838741.97642  22630165.2184   22630164.8284
        50.0004         43.0004
  20627528.8494   -2551404.80244  -1980842.48342  20627529.8314   20627525.5844
        57.0004         50.0004
  22001718.0644   -8661000.50843  -6707251.15242  22001718.2434   22001714.5244
        55.0004         47.0004
 04  6 17 16 20  0.0000000  0  8G29G26G 6G16G18G15G21G22
  23282055.7924    2200226.13743   1734211.23942  23282056.7384   23282054.4664
        49.0004         42.0004
  22040376.3394    8292735.90043   6468469.29542  22040378.1994   22040375.3074
        51.0004         45.0004
  21357264.5884   12741416.02543   9929001.64842  21357265.9334   21357263.9434
        55.0004         48.0004
  23531018.2864   -1611643.45443  -1251058.08142  23531018.8544   23531017.6514
        48.0004         41.0004
  20496669.3894   -4150157.94543  -3226381.83542  20496670.4764   20496666.9074
        56.0004         51.0004
  22621366.1084   -7554637.80143  -5874772.09942  22621365.7274   22621364.8294
        50.0004         43.0004
  20625916.0814   -2559879.82544  -1987446.40242  20625917.1814   20625912.8694
        57.0004         50.0004
  21993122.6674   -8706169.01343  -6742447.37342  21993123.1204   21993118.9754
        55.0004         47.0004
 04  6 17 16 20 20.0000000  0  8G29G26G 6G16G18G15G21G22
  23289858.4524    2241232.28843   1766164.06442  23289860.6054   23289858.4104
        49.0004         42.0004
  22045630.6134    8320348.81643   6489985.83242  22045633.1744   22045630.0394
        51.0004         45.0004
  21366532.5064   12790119.20943   9966952.16342  21366533.9204   21366531.3574
        55.0004         48.0004
  23532392.9044   -1604415.64243  -1245426.05842  23532395.5384   23532394.1134
        48.0004         41.0004
  20494489.5814   -4161612.84543  -3235307.72742  20494490.7654   20494487.1414
        56.0004         51.0004
  22612571.5644   -7600850.79943  -5910782.21642  22612571.3464   22612571.5684
        50.0004         43.0004
  20624320.0934   -2568266.60244  -1993981.55642  20624321.1694   20624317.2014
        57.0004         50.0004
  21984555.8254   -8751188.56843  -6777527.53442  21984555.7164   21984551.8754
        55.0004         47.0004
 04  6 17 16 20 40.0000000  0  8G29G26G 6G16G18G15G21G22
  23297699.9044    2282438.67543   1798272.90742  23297703.8374   23297699.0334
        49.0004         42.0004
  22050938.7324    8348241.23943   6511720.15842  22050940.0674   22050938.9394
        51.0004         45.0004
  21375834.2354   12839000.54343  10005041.49442  21375835.8594   21375833.4744
        55.0004         48.0004
  23533810.9694   -1596967.80843  -1239622.57842  23533811.6924   23533810.7664
        49.0004         41.0004
  20492344.9784   -4172883.32643  -3244089.91442  20492346.3754   20492342.5224
        56.0004         51.0004
  22603782.3034   -7647037.67443  -5946771.96942  22603781.9574   22603781.8684
        49.0004         43.0004
  20622740.9914   -2576564.42044  -2000447.39242  20622742.3184   20622737.9454
        57.0004         50.0004
  21976017.2114   -8796058.85543  -6812491.38242  21976017.5634   21976013.3144
        55.0004         47.0004
 04  6 17 16 21  0.0000000  0  8G29G26G 6G16G18G15G21G22
  23305580.5804    2323848.99943   1830540.66542  23305583.0414   23305578.9664
        49.0004         42.0004
  22056300.4384    8376416.84143   6533675.14542  22056302.6264   22056299.6904
        51.0004         45.0004
  21385170.5584   12888063.70543  10043272.51242  21385172.1714   21385169.5874
        55.0004         48.0004
  23535270.7984   -1589295.91443  -1233644.51742  23535270.3254   23535269.6924
        48.0004         41.0004
  20490236.0964   -4183965.42443  -3252725.30942  20490237.3374   20490233.3554
        56.0004         51.0004
  22594999.5064   -7693194.16643  -5982738.05042  22595000.5914   22594998.7404
        50.0004         43.0004
  20621179.9304   -2584768.60744  -2006840.26842  20621180.7574   20621176.9904
        57.0004         50.0004
  21967508.0714   -8840775.55343  -6847335.54342  21967508.4284   21967504.1844
        55.0004         47.0004
 04  6 17 16 21 20.0000000  0  8G29G26G 6G16G18G15G21G22
  23313498.4064    2365458.29243   1862963.47242  23313501.0674   23313496.3334
        49.0004         42.0004
  22061715.2804    8404870.92143   6555847.13542  22061717.4704   22061714.7604
        51.0004         45.0004
  21394540.7594   12937303.89843  10081641.47842  21394542.3094   21394539.6084
        55.0004         48.0004
  23536772.6444   -1581404.77143  -1227495.60242  23536774.0984   23536771.2164
        49.0004         41.0004
  20488162.3274   -4194863.47143  -3261217.28842  20488163.6864   20488159.5884
        56.0004         51.0004
  22586220.7934   -7739324.48543  -6018683.73642  22586221.5654   22586220.1514
        49.0004         43.0004
  20619635.6354   -2592883.69744  -2013163.71842  20619636.6554   20619632.5484
        57.0004         50.0004
  21959027.1564   -8885342.75343  -6882063.21542  21959027.1344   21959023.3784
        55.0004         47.0004
 04  6 17 16 21 40.0000000  0  8G29G26G 6G16G18G15G21G22
  23321453.5974    2407263.44943   1895538.89842  23321455.9454   23321451.6174
        49.0004         42.0004
  22067182.3714    8433600.49843   6578233.79642  22067183.3484   22067180.6774
        52.0004         45.0004
  21403944.1464   12986718.11643  10120146.04442  21403945.2684   21403942.9364
        55.0004         48.0004
  23538315.4444   -1573297.28143  -1221178.10142  23538316.6554   23538314.0404
        49.0004         42.0004
  20486122.8004   -4205580.21243  -3269567.99242  20486123.9804   20486120.4014
        56.0004         51.0004
  22577447.1564   -7785431.10443  -6054610.96842  22577448.4364   22577445.7914
        50.0004         43.0004
  20618107.9824   -2600912.15144  -2019419.65942  20618108.9664   20618104.7474
        57.0004         50.0004
  21950574.0434   -8929762.82443  -6916676.24542  21950574.3934   21950570.3624
        55.0004         47.0004
 04  6 17 16 22  0.0000000  0  8G29G26G 6G16G18G15G21G22
  23329447.8964    2449273.82943   1928274.24142  23329449.9844   23329447.4614
        49.0004         42.0004
  22072703.1684    8462615.09243   6600842.55242  22072705.6584   22072702.7194
        51.0004         45.0004
  21413382.1214   13036315.74243  10158793.52642  21413384.0334   21413381.4214
        55.0004         48.0004
  23539901.1724   -1564963.95143  -1214684.61942  23539902.9444   23539899.3674
        49.0004         41.0004
  20484119.8204   -4216106.17943  -3277770.03842  20484121.2154   20484117.4824
        56.0004         51.0004
  22568679.3204   -7831504.12543  -6090512.00542  22568680.0754   22568679.9944
        50.0004         43.0004
  20616598.6294   -2608843.62244  -2025600.03142  20616599.6654   20616595.5224
        57.0004         50.0004
  21942151.2324   -8974025.75843  -6951166.82942  21942151.4384   21942147.7934
        55.0004         47.0004
 04  6 17 16 22 20.0000000  0  8G29G26G 6G16G18G15G21G22
  23337479.5694    2491480.97143   1961162.89142  23337479.9694   23337480.3634
        49.0004         41.0004
  22078277.3124    8491906.37343   6623666.90542  22078278.3514   22078276.0034
        52.0004         45.0004
  21422853.7024   13086088.51943  10197577.49042  21422854.8524   21422852.3124
        55.0004         48.0004
  23541528.9124   -1556412.83843  -1208021.45742  23541532.0964   23541528.4864
        49.0004         41.0004
  20482151.5124   -4226449.25843  -3285829.57142  20482152.9514   20482149.1624
        56.0004         51.0004
  22559917.5494   -7877551.16143  -6126392.80742  22559917.8854   22559917.0524
        50.0004         43.0004
  20615106.2354   -2616685.84244  -2031710.85542  20615107.2234   20615103.1104
        57.0004         50.0004
  21933756.7384   -9018139.22543  -6985540.94542  21933757.1094   21933752.8994
        55.0004         47.0004
 04  6 17 16 22 40.0000000  0  8G29G26G 6G16G18G15G21G22
  23345548.6974    2533883.20043   1994203.57742  23345550.2164   23345549.6964
        49.0004         41.0004
  22083903.7804    8521472.80843   6646705.66342  22083905.8814   22083902.9554
        52.0004         45.0004
  21432357.9484   13136034.82943  10236496.67442  21432359.3964   21432357.2334
        55.0004         48.0004
  23543196.5834   -1547645.45143  -1201189.73942  23543199.4814   23543197.1454
        49.0004         41.0004
  20480217.8964   -4236610.78143  -3293747.63542  20480219.1374   20480215.3804
        56.0004         51.0004
  22551159.3954   -7923573.18443  -6162254.09842  22551160.5754   22551160.2404
        50.0004         43.0004
  20613630.9334   -2624439.26744  -2037752.48742  20613632.0734   20613627.7134
        57.0004         50.0004
  21925390.4084   -9062103.94743  -7019799.15842  21925390.9384   21925386.2464
        55.0004         47.0004
 04  6 17 16 23  0.0000000  0  8G29G26G 6G16G18G15G21G22
  23353655.5404    2576485.43243   2027400.10242  23353657.2034   23353654.9804
        49.0004         42.0004
  22089583.5804    8551319.49243   6669962.80242  22089585.3134   22089583.2704
        52.0004         45.0004
  21441896.6584   13186159.88343  10275555.13342  21441898.4644   21441895.7894
        55.0004         48.0004
  23544907.4034   -1538656.81043  -1194185.64642  23544908.3984   23544906.7684
        48.0004         41.0004
  20478319.7594   -4246585.39443  -3301520.05642  20478321.0034   20478317.1304
        56.0004         51.0004
  22542407.9384   -7969564.42143  -6198091.41342  22542409.0934   22542407.0944
        50.0004         43.0004
  20612173.4364   -2632098.49643  -2043720.72042  20612174.2404   20612170.1654
        56.0004         50.0004
  21917053.5864   -9105914.41243  -7053937.17142  21917053.8024   21917049.5454
        55.0004         47.0004
 04  6 17 16 23 20.0000000  0  8G29G26G 6G16G18G15G21G22
  23361799.1374    2619280.32743   2060746.74742  23361799.9144   23361799.3744
        49.0004         42.0004
  22095315.2464    8581439.11443   6693432.62542  22095316.4564   22095314.3624
        52.0004         45.0004
  21451467.8904   13236456.15643  10314747.01842  21451468.9654   21451466.8974
        55.0004         48.0004
  23546658.7884   -1529453.92243  -1187014.59342  23546659.5294   23546658.5244
        48.0004         41.0004
  20476455.9404   -4256380.15143  -3309152.32642  20476457.1604   20476453.3794
        56.0004         51.0004
  22533660.6234   -8015531.51443  -6233909.90542  22533662.0244   22533660.6324
        50.0004         43.0004
  20610732.4934   -2639670.22144  -2049620.76942  20610733.5324   20610729.6834
        57.0004         50.0004
  21908744.8544   -9149577.13843  -7087960.05942  21908745.0754   21908740.8824
        55.0004         47.0004
 04  6 17 16 23 40.0000000  0  8G29G26G 6G16G18G15G21G22
  23369981.2524    2662275.02043   2094249.08942  23369983.5734   23369980.6384
        49.0004         42.0004
  22101100.0244    8611838.90643   6717120.76342  22101102.1564   22101099.6114
        52.0004         45.0004
  21461072.9254   13286930.99143  10354078.03342  21461074.8794   21461071.7154
        55.0004         48.0004
  23548451.8774   -1520029.47843  -1179670.90742  23548452.7074   23548451.7614
        49.0004         41.0004
  20474627.6904   -4265987.54343  -3316638.60742  20474628.7334   20474625.0654
        56.0004         51.0004
  22524919.0574   -8061466.72543  -6269703.56342  22524919.6324   22524919.1164
        50.0004         43.0004
  20609309.8764   -2647146.66544  -2055446.57242  20609310.8244   20609306.4534
        57.0004         50.0004
  21900465.7744   -9193084.31343  -7121861.74342  21900465.8264   21900461.6614
        55.0004         47.0004
 04  6 17 16 24  0.0000000  0  8G29G26G 6G16G18G15G21G22
  23378199.1804    2705463.34643   2127902.30842  23378201.3854   23378199.1104
        49.0004         42.0004
  22106936.8264    8642512.85843   6741022.53042  22106938.1734   22106936.6654
        51.0004         45.0004
  21470710.9204   13337578.37843  10393543.50742  21470712.3114   21470709.9644
        55.0004         48.0004
  23550286.9904   -1510389.30243  -1172159.11842  23550287.8514   23550285.1234
        49.0004         41.0004
  20472834.0184   -4275413.27943  -3323983.33342  20472835.6104   20472831.6644
        56.0004         51.0004
  22516183.1044   -8107375.37643  -6305476.52242  22516183.8404   22516182.7414
        50.0004         43.0004
  20607904.3414   -2654532.71044  -2061201.93442  20607905.3244   20607900.7844
        57.0004         50.0004
  21892215.1294   -9236441.36143  -7155646.43942  21892215.5554   21892211.0964
        55.0004         47.0004
 04  6 17 16 24 20.0000000  0  9G29G26G 6G16G 3G18G15G21G22
  23386453.7554    2748842.13243   2161703.94242  23386457.1934   23386454.1234
        49.0004         42.0004
  22112825.6364    8673458.10543   6765135.69642  22112827.1184   22112825.7514
        52.0004         45.0004
  21480380.9684   13388395.33243  10433141.11342  21480382.3794   21480380.1334
        55.0004         48.0004
  23552162.3344   -1500536.47743  -1164481.62142  23552163.5204   23552160.5354
        49.0004         42.0004
  24593448.6344   -2505240.54853  -1889948.32652  24593450.9094   24593451.4884
        41.0004         35.0004
  20471074.4174   -4284660.01943  -3331188.58442  20471075.5494   20471071.9174
        56.0004         51.0004
  22507451.6304   -8153259.86643  -6341230.65042  22507453.3174   22507452.1484
        50.0004         43.0004
  20606515.4494   -2661830.78743  -2066888.75042  20606516.4844   20606512.4584
        56.0004         50.0004
  21883992.6874   -9279650.55243  -7189315.92442  21883992.7754   21883988.8774
        55.0004         47.0004
 04  6 17 16 24 40.0000000  0  9G29G26G 6G16G 3G18G15G21G22
  23394745.0204    2792414.55743   2195656.46242  23394747.3704   23394745.3844
        48.0004         42.0004
  22118766.8294    8704677.87243   6789462.78142  22118768.4234   22118766.1334
        52.0004         45.0004
  21490084.0234   13439385.16443  10472873.42542  21490085.5524   21490082.6124
        55.0004         48.0004
  23554077.6394   -1490467.59443  -1156635.77442  23554079.7954   23554076.5454
        49.0004         41.0004
  24580837.0854   -2571518.91643  -1941593.81042  24580837.1694   24580841.0344
        40.0004         35.0004
  20469349.5274   -4293724.28343  -3338251.64642  20469351.1024   20469346.9244
        56.0004         51.0004
  22498725.0534   -8199116.30543  -6376962.93042  22498725.8964   22498725.0804
        50.0004         43.0004
  20605144.2594   -2669036.94644  -2072503.94142  20605145.2354   20605140.8054
        57.0004         50.0004
  21875798.9784   -9322707.92243  -7222867.10842  21875799.3144   21875795.2814
        55.0004         47.0004
 04  6 17 16 25  0.0000000  0  9G29G26G 6G16G 3G18G15G21G22
  23403075.1034    2836187.00143   2229764.83242  23403078.7954   23403075.3434
        48.0004         41.0004
  22124761.3674    8736178.62343   6814008.81442  22124763.4514   22124759.9224
        52.0004         45.0004
  21499821.2154   13490554.26143  10512745.42442  21499822.6484   21499819.9614
        55.0004         48.0004
  23556036.1104   -1480176.05543  -1148616.43142  23556036.4024   23556037.4964
        49.0004         42.0004
  24568239.6674   -2637724.86843  -1993182.85642  24568240.5434   24568241.9704
        40.0004         35.0004
  20467660.7804   -4302599.13243  -3345167.10942  20467661.8564   20467658.0684
        56.0004         51.0004
  22490006.1434   -8244937.49843  -6412667.73042  22490006.0484   22490005.6094
        50.0004         43.0004
  20603791.8684   -2676143.98044  -2078041.89342  20603792.8964   20603788.7854
        57.0004         50.0004
  21867635.7204   -9365606.56343  -7256294.60442  21867635.9804   21867631.5794
        55.0004         47.0004
 04  6 17 16 25 20.0000000  0  9G29G26G 6G16G 3G18G15G21G22
  23411441.2144    2880152.74543   2264023.84542  23411442.5454   23411439.4384
        48.0004         41.0004
  22130807.8314    8767953.57043   6838768.51042  22130809.8164   22130807.0044
        52.0004         45.0004
  21509591.4154   13541895.87143  10552751.85042  21509592.5274   21509590.2944
        55.0004         48.0004
  23558035.3504   -1469668.55443  -1140428.79042  23558036.3674   23558035.1234
        49.0004         41.0004
  24555652.0404   -2703864.07943  -2044719.91942  24555654.0904   24555653.7744
        41.0004         35.0004
  20466006.5924   -4311291.11643  -3351940.08142  20466007.9504   20466004.1194
        56.0004         51.0004
  22481291.7494   -8290729.70843  -6448349.95542  22481293.8284   22481292.1074
        50.0004         43.0004
  20602456.9284   -2683158.28244  -2083507.58542  20602458.2454   20602453.8314
        57.0004         50.0004
  21859501.5554   -9408352.51443  -7289603.12142  21859501.9174   21859497.6774
        55.0004         47.0004
 04  6 17 16 25 40.0000000  0  9G29G26G 6G16G 3G18G15G21G22
  23419844.1694    2924309.40243   2298431.61842  23419846.0194   23419842.9664
        48.0004         41.0004
  22136905.5964    8800000.73343   6863740.31942  22136907.4854   22136905.8474
        52.0004         45.0004
  21519393.5164   13593407.88343  10592891.06042  21519395.1034   21519392.3014
        55.0004         48.0004
  23560075.8034   -1458947.05443  -1132074.41142  23560078.4794   23560075.8404
        49.0004         41.0004
  24543078.2954   -2769937.29443  -2096205.52342  24543080.8444   24543078.5584
        42.0004         35.0004
  20464387.2374   -4319802.25743  -3358572.13742  20464388.0964   20464384.6664
        56.0004         51.0004
  22472583.7384   -8336494.34143  -6484010.69742  22472583.2474   22472583.3434
        50.0004         43.0004
  20601139.7364   -2690080.73044  -2088901.70342  20601140.4604   20601136.4494
        57.0004         50.0004
  21851396.0124   -9450947.11543  -7322793.70442  21851396.5414   21851391.9564
        55.0004         47.0004
 04  6 17 16 26  0.0000000  0  9G29G26G 6G16G 3G18G15G21G22
  23428283.8884    2968659.57543   2332990.17142  23428285.6294   23428283.0764
        48.0004         41.0004
  22143056.6064    8832322.64743   6888926.21342  22143057.4994   22143057.0554
        52.0004         45.0004
  21529229.0794   13645093.01943  10633165.16742  21529230.8234   21529228.1984
        55.0004         48.0004
  23562157.1904   -1448008.79743  -1123551.14042  23562159.2164   23562156.9214
        49.0004         42.0004
  24530518.8344   -2835940.65043  -2147636.70942  24530519.8834   24530519.7734
        42.0004         35.0004
  20462802.2204   -4328129.59643  -3365060.97442  20462803.6974   20462799.9144
        56.0004         51.0004
  22463880.3314   -8382228.16843  -6519647.42942  22463880.6174   22463879.7144
        50.0004         43.0004
  20599840.5754   -2696907.91744  -2094221.59242  20599841.6584   20599837.3034
        57.0004         50.0004
  21843319.9804   -9493387.10743  -7355863.81442  21843320.4944   21843316.2434
        55.0004         47.0004
 04  6 17 16 26 20.0000000  0  9G29G26G 6G16G 3G18G15G21G22
  23436759.4764    3013200.28643   2367697.20142  23436761.8594   23436759.7104
        49.0004         41.0004
  22149259.3274    8864916.53843   6914324.03742  22149260.5874   22149259.3044
        52.0004         45.0004
  21539096.7774   13696948.39843  10673571.92642  21539098.0344   21539095.7674
        55.0004         48.0004
  23564280.1684   -1436856.54843  -1114861.10342  23564280.2174   23564279.2384
        49.0004         42.0004
  24517971.9544   -2901875.85843  -2199014.80242  24517974.5294   24517971.7064
        40.0004         35.0004
  20461252.5134   -4336275.36143  -3371408.32542  20461253.7434   20461250.0684
        56.0004         51.0004
  22455183.2754   -8427933.18443  -6555261.71042  22455183.2594   22455183.0144
        50.0004         43.0004
  20598559.0404   -2703642.41144  -2099469.25442  20598560.2914   20598556.3424
        57.0004         50.0004
  21835272.7714   -9535674.70343  -7388815.17442  21835273.1964   21835268.4774
        55.0004         47.0004
 04  6 17 16 26 40.0000000  0  9G29G26G 6G16G 3G18G15G21G22
  23445271.6524    3057929.23043   2402550.92142  23445274.2374   23445270.7044
        48.0004         41.0004
  22155512.9694    8897780.14343   6939932.04242  22155514.1164   22155512.8074
        52.0004         45.0004
  21548996.6394   13748971.72543  10714109.55742  21548997.8864   21548995.4844
        55.0004         48.0004
  23566442.0024   -1425492.55643  -1106006.07242  23566443.8954   23566441.7674
        49.0004         42.0004
  24505437.2474   -2967743.93743  -2250340.56442  24505439.9334   24505439.3924
        41.0004         35.0004
  20459736.2554   -4344241.46843  -3377615.67542  20459737.4854   20459733.9784
        56.0004         51.0004
  22446490.5094   -8473610.92943  -6590854.73042  22446491.4834   22446490.6104
        50.0004         43.0004
  20597294.8974   -2710285.31644  -2104645.54242  20597295.8834   20597291.8284
        57.0004         50.0004
  21827254.5474   -9577811.37343  -7421648.92642  21827254.7814   21827250.7914
        56.0004         47.0004
 04  6 17 16 27  0.0000000  0  9G29G26G 6G16G 3G18G15G21G22
  23453819.5504    3102851.79443   2437555.48742  23453821.2704   23453820.3954
        48.0004         41.0004
  22161819.3444    8930919.09343   6965754.59842  22161820.9684   22161818.0654
        52.0004         45.0004
  21558929.3184   13801168.77843  10754782.55742  21558930.9824   21558927.7604
        55.0004         48.0004
  23568645.4774   -1413910.99043  -1096981.49742  23568646.7734   23568643.5094
        49.0004         42.0004
  24492917.2264   -3033537.94143  -2301608.61042  24492917.2114   24492918.2214
        40.0004         35.0004
  20458255.7564   -4352022.39343  -3383678.73442  20458256.9914   20458253.4264
        56.0004         51.0004
  22437804.9854   -8519255.30143  -6626421.76442  22437806.0224   22437804.9984
        50.0004         43.0004
  20596049.4324   -2716830.38244  -2109745.60142  20596050.2144   20596046.4944
        57.0004         50.0004
  21819266.1274   -9619790.88743  -7454360.22642  21819266.4464   21819262.0634
        55.0004         47.0004
 04  6 17 16 27 20.0000000  0  9G29G26G 6G16G 3G18G15G21G22
  23462403.4644    3147960.65143   2472705.22242  23462404.8314   23462404.7274
        48.0004         41.0004
  22168176.0074    8964325.97043   6991785.92842  22168178.2974   22168175.3564
        52.0004         45.0004
  21568893.6374   13853531.91943  10795584.97642  21568895.4134   21568892.7724
        54.0004         48.0004
  23570890.0894   -1402119.23743  -1087793.16742  23570890.3864   23570890.1244
        49.0004         42.0004
  24480410.3594   -3099264.24043  -2352823.89442  24480412.2334   24480412.7294
        39.0004         35.0004
  20456808.9294   -4359625.20243  -3389603.00542  20456810.3374   20456806.5354
        55.0004         51.0004
  22429124.3144   -8564873.10443  -6661968.08742  22429124.8564   22429123.5894
        50.0004         43.0004
  20594821.2414   -2723284.42743  -2114774.72942  20594822.2774   20594818.1344
        56.0004         50.0004
  21811306.2004   -9661620.18243  -7486954.46442  21811306.8044   21811302.6844
        55.0004         48.0004
 04  6 17 16 27 40.0000000  0  9G29G26G 6G16G 3G18G15G21G22
  23471023.9504    3193260.95043   2508004.13342  23471026.0974   23471024.2984
        48.0004         41.0004
  22174585.1234    8998006.12143   7018030.20042  22174587.3814   22174585.0174
        52.0004         45.0004
  21578890.6114   13906066.71243  10836521.15042  21578892.0694   21578889.6574
        55.0004         48.0004
  23573174.6794   -1390111.86843  -1078436.80542  23573176.1214   23573174.4864
        49.0004         41.0004
  24467916.9754   -3164916.08843  -2403981.18042  24467918.8414   24467917.8184
        40.0004         35.0004
  20455397.3064   -4367044.33343  -3395384.14842  20455398.4054   20455394.9974
        55.0004         51.0004
  22420449.9984   -8610458.17543  -6697488.90442  22420451.1804   22420449.4624
        51.0004         44.0004
  20593611.6274   -2729641.29344  -2119728.13142  20593612.5354   20593608.4494
        57.0004         50.0004
  21803376.1814   -9703293.26643  -7519426.98542  21803376.5134   21803372.5504
        55.0004         48.0004
 04  6 17 16 28  0.0000000  0  9G29G26G 6G16G 3G18G15G21G22
  23479679.9904    3238748.12543   2543448.65442  23479681.3974   23479680.0684
        48.0004         41.0004
  22181045.5844    9031954.98243   7044483.85242  22181047.6984   22181044.9494
        52.0004         45.0004
  21588919.6854   13958768.62943  10877587.54442  21588921.2164   21588918.7654
        55.0004         48.0004
  23575499.8934   -1377893.06643  -1068915.69342  23575501.2354   23575499.2294
        48.0004         41.0004
  24455437.4534   -3230496.61443  -2455082.86542  24455435.8544   24455439.0694
        42.0004         35.0004
  20454019.6254   -4374283.55443  -3401025.09942  20454020.8894   20454017.0284
        56.0004         51.0004
  22411780.6254   -8656014.42743  -6732987.26042  22411781.0494   22411780.4614
        51.0004         44.0004
  20592419.6234   -2735904.71344  -2124608.72142  20592420.6694   20592416.4734
        57.0004         50.0004
  21795474.8904   -9744813.64043  -7551780.50742  21795475.5964   21795471.0194
        56.0004         48.0004
 04  6 17 16 28 20.0000000  0  9G29G26G 6G16G 3G18G15G21G22
  23488371.5074    3284421.82943   2579038.54142  23488373.5504   23488372.1194
        48.0004         41.0004
  22187557.0394    9066172.49743   7071146.84342  22187558.8074   22187556.2454
        52.0004         45.0004
  21598980.2494   14011637.51043  10918784.04342  21598981.4794   21598978.9174
        54.0004         47.0004
  23577865.3044   -1365463.10943  -1059230.05842  23577866.3174   23577864.3124
        49.0004         41.0004
  24442971.9664   -3296005.02543  -2506128.38242  24442973.3514   24442974.4934
        40.0004         35.0004
  20452676.3884   -4381342.92743  -3406525.91042  20452677.5914   20452673.7704
        56.0004         51.0004
  22403116.7864   -8701541.35743  -6768462.77642  22403117.6454   22403116.6294
        50.0004         44.0004
  20591245.6794   -2742074.12443  -2129416.05342  20591246.5404   20591242.6064
        56.0004         50.0004
  21787603.0214   -9786181.01243  -7584014.81042  21787603.2184   21787598.6024
        55.0004         48.0004
 04  6 17 16 28 40.0000000  0  9G29G26G 6G16G 3G18G15G21G22
  23497098.9614    3330283.78643   2614775.10742  23497100.2244   23497098.1014
        49.0004         41.0004
  22194120.0334    9100660.35043   7098020.48742  22194121.8404   22194119.3504
        52.0004         45.0004
  21609072.7804   14064674.93243  10960111.87342  21609074.4214   21609072.0404
        54.0004         47.0004
  23580271.4194   -1352820.29143  -1049378.53442  23580272.0054   23580269.7244
        48.0004         41.0004
  24430520.9734   -3361438.24343  -2557115.29842  24430522.7384   24430520.5514
        43.0004         35.0004
  20451367.3934   -4388220.61743  -3411885.14742  20451368.7634   20451364.8164
        56.0004         51.0004
  22394459.5134   -8747036.44743  -6803913.48642  22394460.3294   22394459.1324
        51.0004         44.0004
  20590090.2244   -2748146.96044  -2134148.13342  20590091.1994   20590086.8254
        57.0004         50.0004
  21779760.4924   -9827393.00143  -7616128.02942  21779761.1374   21779756.4854
        56.0004         48.0004
 04  6 17 16 29  0.0000000  0  9G29G26G 6G16G 3G18G15G21G22
  23505861.2854    3376330.37943   2650655.55142  23505863.2144   23505859.6524
        48.0004         41.0004
  22200733.5024    9135414.93043   7125101.96742  22200735.7814   22200733.0094
        52.0004         45.0004
  21619197.1414   14117877.61443  11001568.47742  21619198.4814   21619195.8974
        55.0004         47.0004
  23582716.6444   -1339967.96243  -1039363.76542  23582719.0504   23582718.2894
        49.0004         41.0004
  24418083.4474   -3426798.58743  -2608045.42442  24418082.6044   24418081.9794
        42.0004         35.0004
  20450092.7114   -4394919.80643  -3417105.29442  20450093.8934   20450090.1684
        56.0004         51.0004
  22385807.8944   -8792502.49543  -6839341.57142  22385808.0664   22385807.0184
        50.0004         44.0004
  20588952.3784   -2754125.94144  -2138807.08542  20588953.2884   20588949.1354
        57.0004         50.0004
  21771947.3734   -9868452.41243  -7648122.36442  21771947.5774   21771943.3314
        56.0004         48.0004
 04  6 17 16 29 20.0000000  0  9G29G26G 6G16G 3G18G15G21G22
  23514659.2384    3422562.39043   2686680.47042  23514661.2404   23514658.1304
        48.0004         41.0004
  22207397.7644    9170437.31543   7152392.12642  22207399.6134   22207397.0244
        52.0004         45.0004
  21629352.9694   14171246.40343  11043154.51142  21629354.4034   21629351.9884
        54.0004         47.0004
  23585202.9544   -1326905.13343  -1029184.99042  23585204.7294   23585200.2194
        49.0004         41.0004
  24405659.0594   -3492083.66643  -2658916.89342  24405659.1174   24405659.9844
        40.0004         35.0004
  20448851.9844   -4401439.24043  -3422185.37342  20448853.5014   20448849.5314
        55.0004         51.0004
  22377161.4114   -8837937.86943  -6874745.73642  22377162.8444   22377162.0124
        51.0004         44.0004
  20587832.7654   -2760009.44344  -2143391.63542  20587833.6114   20587829.6724
        57.0004         50.0004
  21764163.2664   -9909357.53343  -7679996.47042  21764163.6384   21764159.5764
        56.0004         48.0004
 04  6 17 16 29 40.0000000  0  9G29G26G 6G16G 3G18G15G21G22
  23523491.3364    3468977.95643   2722848.42242  23523492.9414   23523491.1524
        48.0004         41.0004
  22214113.0704    9205725.70043   7179889.56742  22214115.1344   22214112.7944
        52.0004         45.0004
  21639539.9264   14224779.53043  11084868.60642  21639540.9784   21639538.9304
        54.0004         47.0004
  23587728.3094   -1313633.34843  -1018843.37442  23587728.7894   23587729.2594
        49.0004         41.0004
  24393251.3634   -3557294.09443  -2709730.19842  24393252.7314   24393252.2224
        40.0004         35.0004
  20447645.5764   -4407780.32943  -3427126.47942  20447646.7634   20447642.8914
        56.0004         51.0004
  22368521.3584   -8883343.77343  -6910126.93742  22368522.1734   22368520.9874
        51.0004         44.0004
  20586731.0364   -2765798.76344  -2147902.79442  20586732.0164   20586728.2824
        57.0004         50.0004
  21756408.3674   -9950109.55943  -7711751.27842  21756408.7274   21756404.6044
        55.0004         48.0004
 04  6 17 16 30  0.0000000  0  9G29G26G 6G16G 3G18G15G21G22
  23532359.6174    3515581.42543   2759162.78542  23532361.4494   23532359.8954
        48.0004         41.0004
  22220879.4254    9241284.27843   7207597.54042  22220880.7894   22220878.9724
        52.0004         45.0004
  21649758.9254   14278481.45043  11126714.23342  21649760.4684   21649757.5734
        54.0004         47.0004
  23590294.0424   -1300148.15343  -1008335.46142  23590295.4664   23590293.9724
        48.0004         41.0004
  24380856.0354   -3622424.31443  -2760480.99942  24380856.6424   24380857.3314
        41.0004         36.0004
  20446473.6124   -4413938.40643  -3431924.98042  20446474.9254   20446470.9484
        56.0004         51.0004
  22359887.3564   -8928714.99743  -6945481.12842  22359887.6954   22359888.0174
        51.0004         44.0004
  20585648.2414   -2771488.50944  -2152336.36642  20585649.3174   20585645.3744
        57.0004         50.0004
  21748683.7794   -9990703.56543  -7743382.95342  21748683.9574   21748679.5714
        56.0004         48.0004
 04  6 17 16 30 20.0000000  0  9G29G26G 6G16G 3G18G15G21G22
  23541262.7774    3562366.03243   2795618.28842  23541264.6184   23541260.6564
        48.0004         41.0004
  22227696.3644    9277106.58743   7235511.01942  22227697.4744   22227696.2074
        52.0004         45.0004
  21660009.1004   14332345.48443  11168686.17642  21660010.3164   21660007.9754
        54.0004         47.0004
  23592900.1804   -1286456.07143   -997666.35642  23592900.3134   23592899.3974
        48.0004         41.0004
  24368476.3234   -3687479.42543  -2811173.26942  24368477.3144   24368476.5634
        41.0004         35.0004
  20445335.3754   -4419919.85343  -3436585.84542  20445336.7604   20445332.7624
        55.0004         51.0004
  22351258.8454   -8974057.51543  -6980812.93942  22351259.6004   22351258.2444
        51.0004         44.0004
  20584583.4384   -2777084.26844  -2156696.70442  20584584.4324   20584580.2034
        57.0004         50.0004
  21740987.9334  -10031145.47143  -7774896.11442  21740988.2924   21740983.7324
        56.0004         48.0004
 04  6 17 16 30 40.0000000  0  9G29G26G 6G16G 3G18G15G21G22
  23550200.1884    3609332.58743   2832215.57742  23550201.5204   23550199.0584
        48.0004         41.0004
  22234563.3934    9313193.40743   7263630.60542  22234565.6194   22234562.9984
        52.0004         45.0004
  21670289.9434   14386372.64843  11210785.23642  21670290.8934   21670288.8884
        54.0004         47.0004
  23595545.8924   -1272556.24343   -986835.35642  23595547.2004   23595544.5274
        48.0004         41.0004
  24356111.1684   -3752457.45343  -2861805.47242  24356113.7794   24356112.5754
        41.0004         35.0004
  20444230.9554   -4425723.47043  -3441108.14142  20444232.5804   20444228.2484
        56.0004         51.0004
  22342635.9794   -9019369.68143  -7016121.10342  22342637.2294   22342635.6124
        51.0004         44.0004
  20583536.8614   -2782584.42944  -2160982.54542  20583537.9614   20583533.8544
        57.0004         50.0004
  21733321.1904  -10071433.59943  -7806289.44042  21733321.6994   21733317.2164
        56.0004         48.0004
 04  6 17 16 31  0.0000000  0  9G29G26G 6G16G 3G18G15G21G22
  23559172.5304    3656482.18343   2868955.49742  23559173.2354   23559171.8944
        48.0004         41.0004
  22241481.4814    9349546.12943   7291957.38742  22241483.1884   22241481.4604
        52.0004         45.0004
  21680602.4164   14440564.10843  11253012.31842  21680604.2284   21680601.5784
        53.0004         47.0004
  23598229.8544   -1258447.31643   -975841.41442  23598232.0174   23598229.7314
        49.0004         41.0004
  24343761.4784   -3817355.89743  -2912375.68042  24343763.7554   24343762.0014
        42.0004         36.0004
  20443160.7514   -4431347.60843  -3445490.58842  20443161.9914   20443158.2624
        56.0004         51.0004
  22334019.7034   -9064649.55743  -7051404.10542  22334020.4284   22334019.1584
        51.0004         44.0004
  20582508.7794   -2787986.74544  -2165192.14842  20582509.6664   20582505.7624
        57.0004         50.0004
  21725684.0264  -10111566.25643  -7837561.62242  21725684.4474   21725680.0354
        56.0004         48.0004
 04  6 17 16 31 20.0000000  0  9G29G26G 6G16G 3G18G15G21G22
  23568179.3064    3703813.69443   2905837.17242  23568181.9854   23568178.7904
        47.0004         41.0004
  22248449.6174    9386163.45443   7320490.35342  22248451.7674   22248448.3654
        52.0004         45.0004
  21690945.8394   14494918.87243  11295366.65042  21690947.5414   21690945.1734
        54.0004         47.0004
  23600954.6454   -1244130.15743   -964685.23342  23600955.7734   23600954.5114
        48.0004         41.0004
  24331428.2614   -3882174.45943  -2962883.63442  24331430.6454   24331427.4564
        43.0004         35.0004
  20442124.4424   -4436792.95543  -3449733.71242  20442125.9134   20442122.1794
        55.0004         51.0004
  22325409.0604   -9109897.47643  -7086662.20242  22325409.7454   22325409.3874
        51.0004         44.0004
  20581499.2964   -2793291.97544  -2169326.09642  20581500.0824   20581496.4874
        57.0004         50.0004
  21718076.8034  -10151543.72043  -7868712.87642  21718076.7724   21718072.6944
        56.0004         48.0004
 04  6 17 16 31 40.0000000  0  9G29G26G 6G16G 3G18G15G21G22
  23577221.1254    3751327.89143   2942861.18542  23577224.1184   23577221.7874
        48.0004         41.0004
  22255468.0024    9423046.27843   7349230.19942  22255469.8704   22255467.8384
        52.0004         45.0004
  21701320.4194   14549437.62243  11337848.75642  21701321.3864   21701319.0864
        54.0004         47.0004
  23603719.3564   -1229604.21643   -953366.36042  23603720.4354   23603716.2304
        49.0004         41.0004
  24319108.9524   -3946911.12243  -3013327.76442  24319108.0604   24319110.2754
        42.0004         36.0004
  20441122.6404   -4442058.64243  -3453836.84842  20441123.7374   20441119.9234
        55.0004         51.0004
  22316805.3244   -9155111.92543  -7121894.22542  22316806.2454   22316804.6794
        51.0004         44.0004
  20580508.5554   -2798498.57544  -2173383.18742  20580509.7504   20580505.2524
        57.0004         50.0004
  21710499.0014  -10191364.55143  -7899742.07942  21710499.6994   21710494.6814
        55.0004         48.0004
 04  6 17 16 32  0.0000000  0  9G29G26G 6G16G 3G18G15G21G22
  23586296.3124    3799019.29343   2980023.30142  23586299.4284   23586295.9544
        47.0004         41.0004
  22262535.8454    9460189.20243   7378172.71342  22262537.6334   22262535.3164
        52.0004         45.0004
  21711725.1714   14604115.15543  11380454.59642  21711726.7004   21711724.5814
        54.0004         47.0004
  23606521.5224   -1214874.61943   -941888.78942  23606523.2364   23606521.4614
        48.0004         42.0004
  24306804.4084   -4011569.85043  -3063711.18142  24306806.5214   24306805.3224
        42.0004         36.0004
  20440153.7204   -4447149.60343  -3457803.82642  20440155.1284   20440151.4044
        56.0004         51.0004
  22308206.2824   -9200297.49443  -7157103.73642  22308208.2494   22308206.2494
        52.0004         44.0004
  20579535.7594   -2803610.86044  -2177366.78942  20579536.5764   20579532.5874
        57.0004         50.0004
  21702950.2524  -10231033.42343  -7930652.87142  21702950.4324   21702945.9764
        55.0004         48.0004
 04  6 17 16 32 20.0000000  0  9G29G26G 6G16G 3G18G15G21G22
  23595406.1914    3846891.20143   3017326.05642  23595407.9674   23595405.1514
        47.0004         41.0004
  22269654.0464    9497595.50843   7407320.46942  22269655.2344   22269653.6644
        52.0004         45.0004
  21722160.8774   14658954.74443  11423186.71442  21722162.5314   21722160.1804
        54.0004         47.0004
  23609363.9034   -1199937.63543   -930249.61442  23609365.7774   23609364.0084
        48.0004         41.0004
  24294515.4104   -4076146.03443  -3114030.26442  24294516.2544   24294515.5354
        42.0004         36.0004
  20439218.8134   -4452062.10943  -3461631.75242  20439219.9864   20439216.3634
        56.0004         51.0004
  22299614.6174   -9245449.95943  -7192287.46042  22299615.3584   22299613.4384
        52.0004         44.0004
  20578581.5924   -2808624.79144  -2181273.75542  20578582.5764   20578578.6644
        57.0004         50.0004
  21695431.1144  -10270546.32743  -7961442.13242  21695431.6334   21695427.3874
        56.0004         48.0004
 04  6 17 16 32 40.0000000  0  9G29G26G 6G16G 3G18G15G21G22
  23604550.2734    3894944.78743   3054770.37442  23604551.3654   23604549.8244
        47.0004         41.0004
  22276822.4804    9535266.56743   7436674.52242  22276824.0514   22276821.5054
        52.0004         45.0004
  21732627.7234   14713957.82843  11466046.22942  21732629.1404   21732626.3004
        54.0004         47.0004
  23612246.8594   -1184792.13343   -918447.95642  23612248.5714   23612246.3794
        49.0004         42.0004
  24282243.5244   -4140637.18043  -3164283.11142  24282244.2724   24282242.1254
        42.0004         36.0004
  20438318.3234   -4456794.71043  -3465319.49042  20438319.7104   20438315.8864
        56.0004         51.0004
  22291028.6024   -9290567.43843  -7227443.91042  22291029.0284   22291028.3494
        51.0004         44.0004
  20577646.6704   -2813538.15644  -2185102.35042  20577647.6764   20577643.4244
        57.0004         50.0004
  21687942.4374  -10309901.12743  -7992108.18942  21687942.6624   21687938.2034
        56.0004         48.0004
 04  6 17 16 33  0.0000000  0  9G29G26G 6G16G 3G18G15G21G22
  23613727.9754    3943172.63643   3092350.49042  23613731.1454   23613726.8664
        48.0004         41.0004
  22284040.5154    9573194.94143   7466229.09342  22284041.8194   22284039.2554
        52.0004         45.0004
  21743124.1964   14769117.04843  11509027.40642  21743125.6944   21743122.8374
        54.0004         46.0004
  23615166.8984   -1169445.38143   -906489.49542  23615168.8994   23615164.7194
        47.0004         41.0004
  24269985.6164   -4205049.31843  -3214474.37342  24269988.7994   24269987.9144
        43.0004         36.0004
  20437450.5994   -4461354.40443  -3468872.49642  20437451.9264   20437448.3584
        56.0004         51.0004
  22282448.6744   -9335656.49543  -7262578.22942  22282449.4644   22282447.7264
        51.0004         44.0004
  20576729.5154   -2818357.42544  -2188857.62842  20576730.5194   20576726.7734
        57.0004         50.0004
  21680482.0964  -10349104.77343  -8022656.47642  21680482.4424   21680478.0924
        56.0004         48.0004
 04  6 17 16 33 20.0000000  0  9G29G26G 6G16G 3G18G15G21G22
  23622939.6494    3991579.74743   3130070.28842  23622940.0554   23622939.8234
        47.0004         41.0004
  22291307.9224    9611385.75043   7495988.14242  22291309.1724   22291306.6384
        52.0004         44.0004
  21753651.0854   14824437.57543  11552134.27742  21753652.6344   21753650.4214
        53.0004         47.0004
  23618126.5254   -1153892.11243   -894370.09642  23618127.4054   23618126.5654
        48.0004         41.0004
  24257744.8424   -4269375.91843  -3264598.99042  24257746.8134   24257745.2134
        41.0004         36.0004
  20436616.8374   -4465735.71543  -3472286.50142  20436617.9044   20436614.3384
        56.0004         51.0004
  22273875.1564   -9380711.23843  -7297685.81242  22273875.4104   22273874.3264
        52.0004         44.0004
  20575831.4504   -2823076.83244  -2192535.09242  20575832.4124   20575828.5604
        57.0004         50.0004
  21673051.7244  -10388151.22643  -8053082.26742  21673052.1254   21673047.8254
        56.0004         48.0004
 04  6 17 16 33 40.0000000  0  9G29G26G 6G16G 3G18G15G21G22
  23632185.0914    4040163.00343   3167927.34742  23632186.5714   23632185.0014
        47.0004         41.0004
  22298624.5694    9649835.88443   7525949.27142  22298627.0194   22298623.5264
        52.0004         45.0004
  21764208.5514   14879916.32843  11595364.44342  21764210.2384   21764207.4454
        53.0004         46.0004
  23621125.3274   -1138135.20643   -882092.01942  23621126.2934   23621125.6934
        48.0004         41.0004
  24245520.7004   -4333618.80643  -3314658.36942  24245520.6414   24245524.7064
        41.0004         36.0004
  20435816.5714   -4469941.38943  -3475563.64742  20435818.0384   20435814.0074
        56.0004         51.0004
  22265307.7374   -9425734.05143  -7332768.52042  22265307.9984   22265306.8064
        52.0004         44.0004
  20574951.9654   -2827698.57144  -2196136.45242  20574953.3484   20574948.8624
        57.0004         50.0004
  21665650.9074  -10427043.00743  -8083387.53942  21665651.3864   21665646.6624
        55.0004         48.0004
 04  6 17 16 34  0.0000000  0  9G29G26G 6G16G 3G18G15G21G22
  23641462.8744    4088922.00343   3205921.35042  23641464.7634   23641462.3754
        47.0004         41.0004
  22305990.7374    9688545.08443   7556112.26642  22305992.9884   22305990.3224
        52.0004         45.0004
  21774796.0054   14935552.88943  11638717.58042  21774796.9304   21774795.4834
        53.0004         46.0004
  23624162.2184   -1122175.16543   -869655.66242  23624163.2504   23624162.1604
        47.0004         41.0004
  24233311.1464   -4397776.95643  -3364651.71842  24233313.3244   24233311.8524
        42.0004         36.0004
  20435049.6974   -4473971.39843  -3478703.91142  20435051.0494   20435047.1374
        56.0004         51.0004
  22256746.1144   -9470724.39143  -7367825.90442  22256747.1124   22256745.8264
        51.0004         44.0004
  20574091.1454   -2832222.44844  -2199661.55242  20574092.0734   20574088.0684
        57.0004         50.0004
  21658279.5604  -10465779.72143  -8113571.97742  21658280.0004   21658275.4864
        56.0004         48.0004
 04  6 17 16 34 20.0000000  0  9G29G26G 6G16G 3G18G15G21G22
  23650775.6294    4137857.89843   3244053.18042  23650777.1294   23650774.8674
        47.0004         41.0004
  22313406.2724    9727514.32343   7586477.88742  22313407.8934   22313406.2494
        52.0004         45.0004
  21785413.4604   14991348.59743  11682194.71742  21785414.4224   21785412.8334
        53.0004         46.0004
  23627238.2544   -1106010.67743   -857059.99642  23627239.8594   23627237.3394
        47.0004         41.0004
  24221119.5454   -4461848.08943  -3414577.25242  24221121.3774   24221120.1174
        41.0004         36.0004
  20434316.5114   -4477824.50043  -3481706.32242  20434317.7154   20434313.7794
        55.0004         51.0004
  22248191.0284   -9515680.36143  -7402856.51542  22248191.7154   22248191.1704
        51.0004         44.0004
  20573249.4164   -2836645.79944  -2203108.32142  20573250.4114   20573246.5814
        57.0004         50.0004
  21650938.1354  -10504359.49543  -8143634.12242  21650938.6204   21650934.1414
        55.0004         48.0004
 04  6 17 16 34 40.0000000  0  9G29G26G 6G16G 3G18G15G21G22
  23660120.5124    4186968.19943   3282320.91942  23660123.1774   23660120.3084
        47.0004         41.0004
  22320870.7614    9766741.35543   7617044.38742  22320872.5724   22320870.5714
        52.0004         44.0004
  21796060.7664   15047301.13243  11725794.06142  21796062.6304   21796060.5674
        53.0004         46.0004
  23630352.9544   -1089643.75343   -844306.58842  23630354.2744   23630351.8294
        47.0004         41.0004
  24208942.8694   -4525833.09243  -3464435.68642  24208943.8574   24208941.9014
        43.0004         36.0004
  20433616.6734   -4481502.41643  -3484572.22942  20433617.8634   20433614.0254
        56.0004         51.0004
  22239642.8444   -9560603.46343  -7437861.52642  22239643.5134   22239642.1554
        51.0004         44.0004
  20572426.5334   -2840970.36844  -2206478.11842  20572427.3984   20572423.0064
        57.0004         50.0004
  21643626.2414  -10542784.07643  -8173575.33742  21643626.4264   21643621.7104
        55.0004         48.0004
 04  6 17 16 35  0.0000000  0  9G29G26G 6G16G 3G18G15G21G22
  23669499.5734    4236256.12443   3320727.05542  23669501.5024   23669499.3984
        47.0004         40.0004
  22328385.1514    9806229.42543   7647814.29642  22328387.1574   22328384.2254
        51.0004         44.0004
  21806738.7714   15103413.80043  11769518.18442  21806740.6324   21806738.0054
        53.0004         46.0004
  23633506.4444   -1073071.11343   -831392.89242  23633507.1734   23633505.4984
        48.0004         41.0004
  24196784.6704   -4589727.18343  -3514223.27242  24196785.5214   24196785.6224
        45.0004         36.0004
  20432950.8774   -4485001.58943  -3487298.85642  20432952.0274   20432948.0464
        56.0004         51.0004
  22231101.2544   -9605489.63843  -7472837.75242  22231101.3294   22231101.0474
        51.0004         44.0004
  20571623.1394   -2845191.97644  -2209767.68542  20571624.3314   20571620.0464
        57.0004         50.0004
  21636344.4054  -10581049.43943  -8203392.48842  21636344.9194   21636340.2544
        55.0004         48.0004
 04  6 17 16 35 20.0000000  0  9G29G26G 6G16G 3G18G15G21G22
  23678910.4424    4285711.45343   3359263.65842  23678912.8714   23678911.1094
        46.0004         40.0004
  22335947.5214    9845968.23043   7678779.58242  22335950.0204   22335946.5304
        51.0004         44.0004
  21817445.3714   15159676.52943  11813359.24642  21817446.7674   21817444.8754
        53.0004         46.0004
  23636697.3024   -1056303.01043   -818326.88242  23636698.8144   23636697.1014
        47.0004         41.0004
  24184640.8544   -4653539.39143  -3563947.05942  24184641.5224   24184641.6754
        42.0004         36.0004
  20432316.9974   -4488332.05743  -3489894.02742  20432318.4354   20432314.5094
        56.0004         51.0004
  22222564.8814   -9650348.42043  -7507792.63642  22222565.6534   22222563.0104
        51.0004         44.0004
  20570837.4894   -2849320.26244  -2212984.53642  20570838.7684   20570834.4904
        57.0004         50.0004
  21629091.0654  -10619165.17043  -8233093.03942  21629091.7434   21629087.1634
        55.0004         48.0004
 04  6 17 16 35 40.0000000  0  9G29G26G 6G16G 3G18G15G21G22
  23688355.3334    4335343.37043   3397937.84742  23688357.2644   23688354.1774
        46.0004         40.0004
  22343559.0344    9885967.12543   7709947.53742  22343560.7074   22343557.8054
        52.0004         44.0004
  21828182.0314   15216098.50643  11857324.39242  21828183.7944   21828181.2114
        53.0004         46.0004
  23639926.9204   -1039330.10743   -805101.28342  23639929.2514   23639926.8734
        47.0004         41.0004
  24172515.6554   -4717258.92543  -3613598.61942  24172517.1444   24172516.1664
        41.0004         36.0004
  20431717.0534   -4491484.03443  -3492350.11142  20431718.5824   20431714.9024
        55.0004         51.0004
  22214035.5884   -9695169.63343  -7542718.23842  22214036.7634   22214035.2894
        51.0004         44.0004
  20570071.7044   -2853345.06844  -2216120.75042  20570072.6264   20570068.6494
        57.0004         50.0004
  21621868.5234  -10657121.16343  -8262669.11742  21621869.0254   21621864.2984
        55.0004         48.0004
 04  6 17 16 36  0.0000000  0  9G29G26G 6G16G 3G18G15G21G22
  23697832.8294    4385145.61043   3436744.75342  23697835.3834   23697832.9314
        47.0004         41.0004
  22351218.7144    9926219.88543   7741313.31542  22351219.8464   22351218.4564
        51.0004         44.0004
  21838947.9764   15272673.64043  11901408.87742  21838949.4924   21838946.9144
        53.0004         46.0004
  23643194.7194   -1022158.42743   -791720.78842  23643195.2724   23643194.7664
        48.0004         41.0004
  24160407.2504   -4780890.67543  -3663181.77542  24160407.3314   24160407.9914
        43.0004         37.0004
  20431150.1814   -4494463.39043  -3494671.68942  20431151.4264   20431147.8774
        56.0004         51.0004
  22205512.5694   -9739958.66343  -7577618.76942  22205513.2544   22205511.9264
        52.0004         44.0004
  20569324.4184   -2857271.65844  -2219180.43642  20569325.2844   20569321.4464
        57.0004         50.0004
  21614674.8944  -10694923.00643  -8292125.07942  21614675.0564   21614670.6204
        55.0004         48.0004
 04  6 17 16 36 20.0000000  0  9G29G26G 6G16G 3G18G15G21G22
  23707343.0754    4435120.21543   3475685.97942  23707344.3724   23707343.1414
        47.0004         41.0004
  22358927.1834    9966728.47943   7772878.43542  22358928.8664   22358927.6654
        52.0004         44.0004
  21849743.3734   15329403.90743  11945614.24442  21849744.8304   21849742.2674
        53.0004         46.0004
  23646500.8314   -1004785.84843   -778183.75742  23646502.1244   23646501.2314
        48.0004         41.0004
  24148315.2634   -4844431.21743  -3712693.87242  24148316.9564   24148313.7954
        41.0004         37.0004
  20430616.5034   -4497267.90243  -3496857.02342  20430617.7774   20430614.2124
        56.0004         51.0004
  22196996.2814   -9784712.73443  -7612492.05742  22196996.8444   22196995.1814
        52.0004         44.0004
  20568596.4454   -2861097.18144  -2222161.36742  20568597.5424   20568593.5064
        57.0004         50.0004
  21607511.3344  -10732567.96543  -8321458.79542  21607511.6944   21607507.2024
        55.0004         48.0004
 04  6 17 16 36 40.0000000  0  9G29G26G 6G16G 3G18G15G21G22
  23716885.3154    4485266.59143   3514761.04042  23716886.0284   23716886.1694
        46.0004         40.0004
  22366684.2584   10007492.52143   7804642.59642  22366685.7974   22366684.2804
        51.0004         44.0004
  21860568.2174   15386289.09243  11989940.33342  21860569.8094   21860567.4824
        53.0004         46.0004
  23649844.7054    -987212.64243   -764490.38042  23649846.0954   23649844.9214
        47.0004         41.0004
  24136241.1924   -4907879.70143  -3762134.22342  24136244.0514   24136243.4624
        43.0004         37.0004
  20430116.2264   -4499897.60443  -3498906.14342  20430117.4034   20430113.5344
        56.0004         51.0004
  22188486.3844   -9829431.34143  -7647337.71042  22188487.0464   22188486.4364
        52.0004         45.0004
  20567887.8964   -2864820.95744  -2225063.01542  20567889.0554   20567884.5964
        57.0004         50.0004
  21600377.6674  -10770055.69543  -8350669.99342  21600378.0514   21600373.5004
        55.0004         48.0004
 04  6 17 16 37  0.0000000  0  9G29G26G 6G16G 3G18G15G21G22
  23726459.3264    4535580.37643   3553966.56842  23726461.0364   23726459.0094
        47.0004         40.0004
  22374489.3314   10048507.53143   7836602.32842  22374490.9814   22374487.8024
        51.0004         44.0004
  21871421.9284   15443324.71943  12034383.64542  21871423.4954   21871421.3384
        53.0004         46.0004
  23653226.2744    -969443.31143   -750644.18142  23653227.1654   23653226.0684
        46.0004         40.0004
  24124185.0724   -4971239.19343  -3811505.23942  24124186.2304   24124185.5944
        44.0004         37.0004
  20429648.1964   -4502356.37843  -3500822.07042  20429649.5154   20429645.6984
        55.0004         51.0004
  22179982.9334   -9874118.03843  -7682158.49842  22179983.7214   22179982.5674
        52.0004         45.0004
  20567198.0234   -2868446.51544  -2227888.12942  20567198.8634   20567194.8584
        57.0004         50.0004
  21593273.0864  -10807389.94443  -8379761.59842  21593273.3964   21593269.0104
        55.0004         48.0004
 04  6 17 16 37 20.0000000  0  9G29G26G 6G16G 3G18G15G21G22
  23736066.5924    4586065.24043   3593305.37442  23736068.0324   23736065.8544
        46.0004         40.0004
  22382342.9304   10089777.28843   7868760.56042  22382344.9664   22382342.4054
        51.0004         44.0004
  21882304.6794   15500514.62043  12078947.17342  21882305.6584   21882304.1794
        53.0004         46.0004
  23656645.6704    -951473.89743   -736642.08242  23656647.4754   23656645.0664
        48.0004         40.0004
  24112146.2104   -5034504.48143  -3860802.83742  24112147.2554   24112144.9094
        43.0004         37.0004
  20429213.6644   -4504640.36243  -3502601.79642  20429214.7344   20429210.9914
        56.0004         51.0004
  22171486.2184   -9918768.38043  -7716950.95842  22171486.6544   22171485.2294
        52.0004         45.0004
  20566527.6504   -2871969.41344  -2230633.24842  20566528.7584   20566524.2914
        57.0004         50.0004
  21586198.5374  -10844566.32543  -8408730.18842  21586199.1754   21586194.8904
        55.0004         48.0004
 04  6 17 16 37 40.0000000  0  9G29G26G 6G16G 3G18G15G21G22
  23745705.6944    4636719.91543   3632776.47042  23745708.3554   23745704.9824
        42.0004         39.0004
  22390244.3404   10131300.32943   7901116.16042  22390245.4394   22390245.3074
        47.0004         43.0004
  21893216.7634   15557857.36843  12123629.80142  21893218.3674   21893215.3754
        53.0004         46.0004
  23660103.2844    -933305.72943   -722485.10742  23660105.1334   23660102.4464
        47.0004         41.0004
  24100124.7724   -5097675.57343  -3910027.04042  24100126.1174   24100125.1144
        42.0004         36.0004
  20428812.0444   -4506750.47643  -3504246.04042  20428813.3844   20428809.7314
        56.0004         51.0004
  22162996.4764   -9963382.81843  -7751715.43442  22162996.7084   22162995.4454
        52.0004         45.0004
  20565876.6544   -2875390.22644  -2233298.82742  20565877.6974   20565873.8514
        57.0004         50.0004
  21579154.1844  -10881585.57143  -8437576.33742  21579154.3224   21579150.1874
        55.0004         48.0004
 04  6 17 16 38  0.0000000  0  9G29G26G 6G16G 3G18G15G21G22
  23755376.3984    4687540.18743   3672376.69542  23755378.6314   23755377.6924
        46.0004         40.0004
  22398193.3594   10173072.91943   7933666.22142  22398195.8834   22398193.7334
        51.0004         44.0004
  21904157.3144   15615349.72443  12168429.01042  21904158.9484   21904156.2914
        53.0004         46.0004
  23663597.6234    -914942.11643   -708175.83342  23663599.0504   23663598.4154
        47.0004         41.0004
  24088121.1654   -5160754.58843  -3959179.48842  24088122.9894   24088122.7444
        42.0004         37.0004
  20428442.9614   -4508690.05443  -3505757.39842  20428444.2124   20428440.7584
        55.0004         51.0004
  22154512.9574  -10007964.13043  -7786454.10342  22154513.6614   22154511.7504
        52.0004         45.0004
  20565244.6074   -2878711.61344  -2235886.92242  20565245.7124   20565241.6554
        57.0004         50.0004
  21572138.9784  -10918450.52343  -8466302.25742  21572139.5314   21572134.9084
        55.0004         48.0004
 04  6 17 16 38 20.0000000  0  9G29G26G 6G16G 3G18G15G21G22
  23765078.8774    4738526.42243   3712106.19942  23765079.3834   23765079.7424
        46.0004         40.0004
  22406189.7524   10215095.01643   7966410.69442  22406192.2374   22406189.7744
        51.0004         44.0004
  21915126.0404   15672991.24043  12213344.44642  21915127.2504   21915125.2184
        53.0004         46.0004
  23667129.0794    -896383.39743   -693714.53742  23667131.2414   23667129.4264
        47.0004         41.0004
  24076134.8704   -5223740.59143  -4008259.46742  24076136.7124   24076136.7064
        43.0004         37.0004
  20428106.2884   -4510458.79843  -3507135.63642  20428107.5844   20428103.9494
        56.0004         51.0004
  22146035.7084  -10052511.63243  -7821166.43042  22146036.9204   22146034.4154
        52.0004         45.0004
  20564631.6144   -2881932.69444  -2238396.85742  20564632.7124   20564628.4564
        57.0004         50.0004
  21565153.2004  -10955160.67143  -8494907.54542  21565153.4174   21565149.1354
        55.0004         48.0004
 04  6 17 16 38 40.0000000  0  9G29G26G 6G16G 3G18G15G21G22
  23774814.0694    4789684.08143   3751969.26642  23774816.5824   23774814.8804
        46.0004         40.0004
  22414234.8604   10257372.28043   7999353.99742  22414237.1044   22414235.3644
        51.0004         43.0004
  21926124.4654   15730787.80343  12258380.70042  21926125.8144   21926123.2594
        53.0004         46.0004
  23670699.0454    -877623.59343   -679096.54342  23670699.1894   23670700.7114
        46.0004         41.0004
  24064168.4914   -5286626.51943  -4057261.46542  24064169.8774   24064168.7844
        43.0004         37.0004
  20427803.4444   -4512050.73643  -3508376.10442  20427804.6734   20427800.8644
        55.0004         51.0004
  22137566.1084  -10097018.84043  -7855847.35442  22137566.3604   22137564.2814
        52.0004         45.0004
  20564039.0264   -2885047.09144  -2240823.66242  20564040.1834   20564035.8714
        57.0004         50.0004
  21558198.0684  -10991709.49143  -8523387.12742  21558198.4374   21558194.0814
        55.0004         48.0004
 04  6 17 16 39  0.0000000  0  9G29G26G 6G16G 3G18G15G21G22
  23784580.2424    4841007.41043   3791961.41942  23784582.2224   23784580.6864
        46.0004         40.0004
  22422327.4924   10299899.12143   8032491.77042  22422329.1374   22422326.6134
        51.0004         44.0004
  21937151.1054   15788733.86043  12303533.43842  21937153.1184   21937150.3734
        53.0004         46.0004
  23674306.6014    -858668.41743   -664326.30942  23674308.1664   23674304.9114
        47.0004         41.0004
  24052220.0004   -5349416.51743  -4106188.70042  24052221.6204   24052219.4584
        43.0004         37.0004
  20427533.1644   -4513471.28343  -3509483.02442  20427534.3234   20427530.5434
        56.0004         51.0004
  22129103.6134  -10141490.60743  -7890500.66042  22129103.9994   22129102.9064
        52.0004         45.0004
  20563465.7654   -2888059.53044  -2243171.02342  20563466.7814   20563462.9664
        57.0004         50.0004
  21551273.0854  -11028102.15143  -8551745.02242  21551272.9914   21551268.5564
        55.0004         48.0004
 04  6 17 16 39 20.0000000  0  9G29G26G 6G16G 3G18G15G21G22
  23794377.9664    4892491.85443   3832079.13242  23794379.3294   23794377.7384
        45.0004         40.0004
  22430466.8824   10342670.68843   8065820.23042  22430468.5844   22430465.9134
        51.0004         44.0004
  21948205.5634   15846824.72543  12348799.01442  21948207.4384   21948205.0464
        53.0004         46.0004
  23677949.1654    -839522.40143   -649407.37942  23677949.9654   23677949.9034
        46.0004         41.0004
  24040288.5884   -5412113.87443  -4155043.75442  24040290.7524   24040290.2304
        44.0004         37.0004
  20427294.6064   -4514724.53043  -3510459.57442  20427295.9274   20427292.2184
        56.0004         51.0004
  22120646.5234  -10185930.65643  -7925129.25142  22120647.0764   22120646.2544
        52.0004         45.0004
  20562911.2984   -2890973.48844  -2245441.64142  20562912.3704   20562908.2644
        57.0004         50.0004
  21544376.5844  -11064342.28843  -8579984.07242  21544376.9784   21544372.6874
        55.0004         48.0004
 04  6 17 16 39 40.0000000  0  9G29G26G 6G16G 3G18G15G21G22
  23804205.7684    4944140.77143   3872325.01842  23804208.3134   23804205.8014
        46.0004         40.0004
  22438653.3094   10385690.62443   8099342.23842  22438655.3534   22438653.5984
        51.0004         44.0004
  21959288.1974   15905064.06843  12394180.28942  21959289.3884   21959287.5874
        53.0004         46.0004
  23681630.2834    -820181.79943   -634336.80942  23681631.1214   23681630.2254
        46.0004         40.0004
  24028376.5174   -5474713.71443  -4203822.81542  24028379.2544   24028380.8454
        45.0004         37.0004
  20427088.8174   -4515806.74843  -3511302.86342  20427089.8734   20427086.3304
        56.0004         51.0004
  22112197.0764  -10230334.47543  -7959729.60942  22112197.9034   22112196.3594
        52.0004         45.0004
  20562376.3694   -2893784.84844  -2247632.31842  20562377.1094   20562373.1544
        57.0004         50.0004
  21537509.9714  -11100425.78543  -8608101.06442  21537510.7284   21537505.7004
        55.0004         48.0004
 04  6 17 16 40  0.0000000  0  9G29G26G 6G16G 3G18G15G21G22
  23814065.9454    4995956.34143   3912700.74642  23814068.3704   23814066.3774
        45.0004         40.0004
  22446887.2664   10428960.73343   8133059.17742  22446889.3694   22446886.1294
        51.0004         44.0004
  21970399.4454   15963453.99043  12439678.88742  21970400.9804   21970398.0444
        53.0004         46.0004
  23685347.8784    -800644.62743   -619113.07342  23685349.2694   23685348.1574
        47.0004         40.0004
  24016483.3054   -5537212.60443  -4252523.22042  24016484.9184   24016484.3914
        43.0004         37.0004
  20426916.0264   -4516715.35543  -3512010.87042  20426917.0624   20426913.2924
        56.0004         51.0004
  22103754.5454  -10274699.29643  -7994299.58942  22103755.4774   22103753.7774
        52.0004         45.0004
  20561861.3734   -2896490.58044  -2249740.68742  20561862.3434   20561858.2754
        57.0004         50.0004
  21530674.0084  -11136350.01543  -8636093.95342  21530674.3864   21530669.8254
        55.0004         48.0004
 04  6 17 16 40 20.0000000  0  9G29G26G 6G16G 3G18G15G21G22
  23823957.5074    5047936.40743   3953204.65342  23823959.1344   23823958.7084
        45.0004         40.0004
  22455168.6204   10472479.23443   8166969.67842  22455170.0734   22455168.0764
        51.0004         43.0004
  21981539.0534   16021992.56143  12485293.32742  21981540.2974   21981538.5164
        53.0004         46.0004
  23689102.6824    -780912.68743   -603737.58242  23689103.8384   23689103.8374
        46.0004         40.0004
  24004609.2764   -5599611.11843  -4301145.42042  24004611.8434   24004609.9344
        43.0004         37.0004
  20426775.6474   -4517452.18943  -3512585.02842  20426776.8534   20426773.0594
        56.0004         51.0004
  22095319.5624  -10319026.18443  -8028840.00042  22095320.0984   22095318.4964
        52.0004         45.0004
  20561366.6214   -2899091.51744  -2251767.40042  20561367.5374   20561363.2364
        57.0004         50.0004
  21523867.7814  -11172116.05843  -8663963.57942  21523867.7614   21523863.6274
        55.0004         48.0004
 04  6 17 16 40 40.0000000  0  9G29G26G 6G16G 3G18G15G21G22
  23833879.3364    5100075.04043   3993832.12242  23833880.4134   23833879.6384
        45.0004         40.0004
  22463496.0524   10516240.06343   8201068.99542  22463497.5574   22463494.6614
        51.0004         43.0004
  21992705.7804   16080673.77143  12531018.91042  21992707.1594   21992704.8864
        53.0004         46.0004
  23692893.2504    -760991.91043   -588214.92842  23692894.9844   23692891.7474
        46.0004         40.0004
  23992754.1724   -5661913.80143  -4349692.93942  23992754.1314   23992753.9794
        44.0004         37.0004
  20426667.1524   -4518022.97543  -3513029.79742  20426668.4134   20426664.4444
        56.0004         51.0004
  22086890.5714  -10363320.17543  -8063354.78842  22086891.6384   22086890.1124
        52.0004         45.0004
  20560890.5714   -2901592.93244  -2253716.56242  20560891.5654   20560887.5564
        57.0004         50.0004
  21517090.9264  -11207729.41743  -8691714.23042  21517091.0614   21517087.0074
        55.0004         48.0004
 04  6 17 16 41  0.0000000  0  9G29G26G 6G16G 3G18G15G21G22
  23843832.2594    5152375.20343   4034585.46042  23843834.5464   23843831.6884
        45.0004         40.0004
  22471870.1014   10560246.25743   8235359.51842  22471873.1654   22471870.3484
        51.0004         43.0004
  22003900.1904   16139501.10043  12576858.35242  22003901.8324   22003899.3554
        53.0004         46.0004
  23696721.2024    -740879.18743   -572542.71142  23696721.7784   23696721.1734
        46.0004         40.0004
  23980917.6224   -5724116.05043  -4398162.20142  23980919.4654   23980917.7604
        45.0004         37.0004
  20426590.7034   -4518424.25243  -3513342.48142  20426591.8324   20426588.1564
        56.0004         51.0004
  22078468.5514  -10407577.36143  -8097840.89042  22078469.6934   22078468.4564
        52.0004         45.0004
  20560434.1394   -2903990.84744  -2255585.07542  20560435.2084   20560430.8514
        57.0004         50.0004
  21510343.7104  -11243186.10843  -8719342.80242  21510343.9324   21510339.6864
        56.0004         48.0004
 04  6 17 16 41 20.0000000  0  9G29G26G 6G16G 3G18G15G21G22
  23853815.1684    5204839.28043   4075466.52942  23853816.3894   23853816.3734
        45.0004         40.0004
  22480291.2964   10604500.23843   8269843.10942  22480292.4584   22480292.0684
        50.0004         43.0004
  22015122.7114   16198476.46443  12622813.14042  22015124.0004   22015122.0674
        53.0004         46.0004
  23700585.3254    -720572.07943   -556719.03142  23700587.1014   23700584.6564
        46.0004         40.0004
  23969099.6534   -5786214.20143  -4446550.33642  23969102.6544   23969100.4054
        44.0004         37.0004
  20426547.1124   -4518653.05443  -3513520.76942  20426548.2424   20426544.4184
        56.0004         51.0004
  22070054.6944  -10451794.51543  -8132295.79942  22070055.1724   22070053.8594
        52.0004         45.0004
  20559998.1974   -2906282.06544  -2257370.44742  20559999.2214   20559995.1514
        57.0004         50.0004
  21503626.9024  -11278483.23243  -8746847.03342  21503627.4144   21503622.9234
        55.0004         48.0004
 04  6 17 16 41 40.0000000  0  9G29G26G 6G16G 3G18G15G21G22
  23863828.8254    5257460.84843   4116470.31142  23863830.4954   23863829.6784
        45.0004         40.0004
  22488758.8504   10648995.41543   8304514.63742  22488760.3724   22488758.4454
        51.0004         44.0004
  22026372.6444   16257593.80243  12668878.56842  22026374.3054   22026371.6704
        53.0004         46.0004
  23704484.8694    -700076.70443   -540748.64742  23704486.4034   23704486.1514
        46.0004         40.0004
  23957301.9384   -5848213.18343  -4494861.20942  23957303.7534   23957303.0034
        45.0004         37.0004
  20426535.3144   -4518715.30543  -3513569.27642  20426536.3644   20426532.8004
        56.0004         51.0004
  22061647.0334  -10495977.01843  -8166723.70942  22061647.4434   22061646.4404
        52.0004         45.0004
  20559581.4514   -2908472.01944  -2259076.91242  20559582.4284   20559578.4074
        57.0004         50.0004
  21496939.5674  -11313626.27043  -8774231.20142  21496939.7114   21496935.1104
        55.0004         48.0004
 04  6 17 16 42  0.0000000  0  9G29G26G 6G16G 3G18G15G21G22
  23873873.5214    5310245.54643   4157601.19842  23873875.3404   23873873.8474
        45.0004         40.0004
  22497273.1124   10693737.52143   8339378.58242  22497276.0654   22497272.8794
        51.0004         44.0004
  22037650.2424   16316858.92643  12715059.14642  22037651.8244   22037649.1794
        52.0004         46.0004
  23708421.9424    -679387.36443   -524627.12142  23708423.6004   23708422.5184
        46.0004         40.0004
  23945523.7414   -5910105.90743  -4543089.28442  23945524.1874   23945524.7654
        44.0004         37.0004
  20426556.2804   -4518604.97943  -3513483.31042  20426557.6544   20426553.7724
        56.0004         51.0004
  22053247.2694  -10540118.48243  -8201119.63642  22053248.6194   22053246.5554
        52.0004         45.0004
  20559185.3024   -2910553.79244  -2260699.07742  20559186.3064   20559182.2124
        57.0004         50.0004
  21490282.3814  -11348608.90443  -8801490.37742  21490282.8004   21490278.5614
        55.0004         48.0004
 04  6 17 16 42 20.0000000  0  9G29G26G 6G16G 3G18G15G21G22
  23883948.0394    5363185.78043   4198853.27842  23883948.7434   23883948.8224
        46.0004         40.0004
  22505832.6814   10738718.93743   8374429.00342  22505833.6154   22505832.5594
        51.0004         44.0004
  22048954.8974   16376264.45043  12761349.12942  22048956.7644   22048954.1584
        52.0004         46.0004
  23712395.6384    -658511.59743   -508360.33842  23712396.5654   23712394.3734
        46.0004         40.0004
  23933765.7894   -5971898.43643  -4591239.28242  23933766.5404   23933765.6944
        44.0004         37.0004
  20426608.7014   -4518329.42243  -3513268.59242  20426610.0494   20426606.0564
        56.0004         51.0004
  22044853.4514  -10584225.58543  -8235488.78542  22044854.7444   22044852.6774
        52.0004         45.0004
  20558808.2634   -2912534.17144  -2262242.23742  20558809.3284   20558805.4634
        57.0004         50.0004
  21483654.6444  -11383438.06243  -8828629.96542  21483654.9694   21483650.1184
        55.0004         48.0004
 04  6 17 16 42 40.0000000  0  9G29G26G 6G16G 3G18G15G21G22
  23894052.5344    5416284.70343   4240229.02342  23894054.5864   23894052.1374
        46.0004         40.0004
  22514438.1124   10783942.81243   8409668.35242  22514439.7364   22514437.7394
        50.0004         43.0004
  22060286.9904   16435813.46543  12807750.92142  22060287.8064   22060286.0104
        52.0004         46.0004
  23716403.2404    -637446.19343   -491945.77642  23716405.0394   23716403.9814
        46.0004         40.0004
  23922027.0504   -6033586.22543  -4639307.67142  23922029.9124   23922028.4224
        44.0004         37.0004
  20426693.2514   -4517885.14843  -3512922.40742  20426694.5514   20426690.7584
        56.0004         51.0004
  22036467.5094  -10628294.19143  -8269827.95042  22036468.0064   22036467.0764
        52.0004         45.0004
  20558451.7394   -2914408.96544  -2263703.12242  20558452.6424   20558448.5844
        57.0004         50.0004
  21477056.6344  -11418109.94343  -8855646.99842  21477056.8054   21477052.9204
        55.0004         48.0004
 04  6 17 16 43  0.0000000  0  9G29G26G 6G16G 3G18G15G21G22
  23904186.7324    5469541.45643   4281727.75442  23904188.2614   23904187.1994
        45.0004         40.0004
  22523089.8884   10829408.29643   8445095.97342  22523090.9644   22523089.4994
        51.0004         43.0004
  22071645.6374   16495505.08043  12854263.82942  22071647.2224   22071644.8934
        53.0004         46.0004
  23720448.1964    -616191.77743   -475383.93342  23720449.5294   23720446.8554
        46.0004         40.0004
  23910307.7674   -6095168.71543  -4687293.99642  23910308.6734   23910308.6174
        44.0004         37.0004
  20426810.0254   -4517272.50943  -3512445.02742  20426811.0804   20426807.2474
        56.0004         51.0004
  22028089.0824  -10672324.17843  -8304137.01542  22028089.3394   22028089.1564
        52.0004         45.0004
  20558115.0404   -2916178.25744  -2265081.79842  20558116.0204   20558111.9454
        57.0004         50.0004
  21470488.7504  -11452624.44543  -8882541.39642  21470489.2074   21470484.7974
        55.0004         48.0004
 04  6 17 16 43 20.0000000  0  9G29G26G 6G16G 3G18G15G21G22
  23914351.5074    5522955.95343   4323349.38842  23914352.8844   23914352.3154
        45.0004         40.0004
  22531787.9524   10875115.36443   8480711.83942  22531790.1504   22531787.4614
        51.0004         43.0004
  22083031.7304   16555339.19643  12900887.78442  22083032.9904   22083030.8904
        52.0004         46.0004
  23724529.2574    -594748.37443   -458674.83442  23724529.6434   23724529.2964
        46.0004         40.0004
  23898609.8264   -6156644.54443  -4735197.20642  23898611.0904   23898610.2974
        44.0004         37.0004
  20426958.4694   -4516491.39643  -3511836.37442  20426959.8214   20426955.9784
        56.0004         51.0004
  22019718.0334  -10716314.61243  -8338415.25442  22019718.2194   22019716.5484
        52.0004         45.0004
  20557798.5684   -2917841.16644  -2266377.57842  20557799.5754   20557795.3974
        57.0004         50.0004
  21463951.0844  -11486981.05643  -8909312.76242  21463951.3404   21463947.0454
        56.0004         48.0004
 04  6 17 16 43 40.0000000  0  9G29G26G 6G16G 3G18G15G21G22
  23924544.7634    5576525.13143   4365091.55742  23924547.0304   23924545.3824
        45.0004         40.0004
  22540531.1594   10921060.75143   8516513.41442  22540531.9564   22540530.6244
        50.0004         43.0004
  22094444.3394   16615313.12143  12947620.67042  22094445.9654   22094444.6964
        52.0004         46.0004
  23728644.3004    -573118.97443   -441820.78342  23728645.0414   23728644.0244
        45.0004         40.0004
  23886931.0624   -6218015.33343  -4783018.58642  23886931.8704   23886931.6204
        44.0004         37.0004
  20427138.7184   -4515544.42843  -3511098.48042  20427139.8624   20427136.3204
        56.0004         51.0004
  22011353.8154  -10760267.61843  -8372664.33342  22011354.1384   22011353.6084
        52.0004         45.0004
  20557501.9324   -2919399.56944  -2267591.92442  20557502.9174   20557499.2114
        57.0004         50.0004
  21457442.7394  -11521182.05043  -8935962.87042  21457443.1184   21457438.7524
        56.0004         48.0004
 04  6 17 16 44  0.0000000  0  9G29G26G 6G16G 3G18G15G21G22
  23934769.3454    5630250.40643   4406955.35742  23934770.3614   23934769.3454
        45.0004         40.0004
  22549319.8034   10967245.98443   8552501.87342  22549322.1044   22549320.0444
        50.0004         43.0004
  22105883.8014   16675428.42943  12994463.73042  22105885.0934   22105884.3484
        52.0004         46.0004
  23732796.3374    -551301.96443   -424820.54342  23732797.7834   23732796.3544
        46.0004         40.0004
  23875273.6134   -6279278.28743  -4830755.92242  23875274.7214   23875272.5874
        43.0004         37.0004
  20427350.8634   -4514429.72143  -3510229.88242  20427352.1834   20427348.2204
        56.0004         51.0004
  22002997.3134  -10804180.88043  -8406882.44042  22002998.1734   22002996.7444
        52.0004         45.0004
  20557225.8464   -2920851.34544  -2268723.18042  20557226.8434   20557222.7784
        57.0004         50.0004
  21450964.4814  -11555225.18543  -8962489.96642  21450964.9614   21450960.2484
        56.0004         48.0004
 04  6 17 16 44 20.0000000  0  9G29G26G 6G16G 3G18G15G21G22
  23945021.7794    5684127.70543   4448937.63442  23945023.0524   23945022.1954
        45.0004         40.0004
  22558153.2794   11013667.01043   8588674.06942  22558155.4164   22558153.8584
        50.0004         43.0004
  22117349.7824   16735681.69643  13041414.28742  22117350.9034   22117349.1214
        52.0004         46.0004
  23736983.6954    -529301.40443   -407677.29942  23736984.2124   23736983.1094
        46.0004         39.0004
  23863635.3134   -6340435.84143  -4878411.13742  23863636.0494   23863637.0064
        45.0004         37.0004
  20427594.1634   -4513151.15043  -3509233.59642  20427595.3354   20427591.3514
        56.0004         51.0004
  21994648.1054  -10848057.57343  -8441072.05442  21994648.5024   21994647.0114
        52.0004         45.0004
  20556969.2654   -2922199.32344  -2269773.55542  20556970.2774   20556966.1034
        57.0004         50.0004
  21444515.6344  -11589113.95843  -8988896.78442  21444516.1214   21444511.8354
        56.0004         48.0004
 04  6 17 16 44 40.0000000  0  9G29G26G 6G16G 3G18G15G21G22
  23955303.9124    5738162.11443   4491042.32642  23955305.7614   23955304.9394
        46.0004         40.0004
  22567033.1784   11060328.84943   8625033.91842  22567034.3814   22567032.3894
        50.0004         43.0004
  22128842.8634   16796076.53243  13088475.16342  22128844.5064   22128843.0704
        52.0004         45.0004
  23741205.5914    -507112.06143   -390386.94342  23741206.0424   23741207.0844
        45.0004         39.0004
  23852018.1624   -6401481.50043  -4925979.15442  23852019.1624   23852019.9834
        44.0004         37.0004
  20427869.7934   -4511702.92943  -3508105.11742  20427870.9894   20427867.3384
        56.0004         51.0004
  21986306.5064  -10891891.72843  -8475228.52442  21986307.3944   21986305.8004
        52.0004         45.0004
  20556733.6634   -2923437.57644  -2270738.43142  20556734.6464   20556730.5364
        57.0004         50.0004
  21438097.2464  -11622842.54443  -9015178.78242  21438097.7554   21438093.1384
        56.0004         48.0004
 04  6 17 16 45  0.0000000  0  9G29G26G 6G16G 3G18G15G21G22
  23965614.9634    5792347.14543   4533264.38942  23965617.4124   23965616.1774
        46.0004         40.0004
  22575956.8374   11107224.85143   8661576.21542  22575959.0164   22575955.9714
        50.0004         43.0004
  22140361.2344   16856607.39643  13135642.03442  22140362.8114   22140360.8154
        52.0004         46.0004
  23745462.3564    -484740.36843   -372954.47542  23745463.3784   23745463.1694
        45.0004         40.0004
  23840422.1784   -6462420.43343  -4973464.00542  23840423.6994   23840422.2144
        45.0004         37.0004
  20428176.4304   -4510091.44343  -3506849.41942  20428177.6634   20428173.9564
        56.0004         51.0004
  21977972.2804  -10935688.85643  -8509356.13842  21977973.1174   21977971.1634
        52.0004         45.0004
  20556517.8344   -2924571.74344  -2271622.20242  20556518.5374   20556514.6814
        57.0004         50.0004
  21431708.3414  -11656416.72443  -9041340.46142  21431708.7914   21431704.6484
        56.0004         48.0004
 04  6 17 16 45 20.0000000  0  9G29G26G 6G16G 3G18G15G21G22
  23975955.5834    5846685.44943   4575605.87542  23975957.2344   23975955.9944
        45.0004         40.0004
  22584925.7114   11154357.84943   8698303.19342  22584928.0994   22584926.4534
        50.0004         43.0004
  22151906.4564   16917277.36543  13182917.30142  22151907.8884   22151904.5334
        52.0004         45.0004
  23749755.0654    -462183.57543   -355377.79842  23749756.7834   23749755.6154
        45.0004         39.0004
  23828846.9424   -6523248.42343  -5020862.42342  23828847.9304   23828848.6984
        43.0004         37.0004
  20428514.6064   -4508313.53543  -3505464.04042  20428516.1924   20428512.0634
        56.0004         51.0004
  21969646.0014  -10979445.26643  -8543452.02242  21969645.8354   21969645.3434
        52.0004         45.0004
  20556322.5674   -2925598.10644  -2272421.96942  20556323.5084   20556319.7374
        57.0004         50.0004
  21425349.3754  -11689833.08343  -9067379.16642  21425349.9544   21425345.2084
        56.0004         48.0004
 04  6 17 16 45 40.0000000  0  9G29G26G 6G16G 3G18G15G21G22
  23986325.3554    5901179.32043   4618068.58842  23986326.5774   23986325.3204
        45.0004         40.0004
  22593941.1324   11201729.95943   8735216.49742  22593944.4374   22593941.0844
        50.0004         43.0004
  22163478.5434   16978088.54043  13230302.59542  22163480.1544   22163478.0614
        52.0004         45.0004
  23754082.9804    -439439.23243   -337654.96442  23754084.2734   23754083.2174
        45.0004         39.0004
  23817293.7954   -6583961.80043  -5068171.52542  23817294.9654   23817295.4064
        44.0004         37.0004
  20428885.1414   -4506366.56843  -3503946.92942  20428886.5514   20428882.5164
        56.0004         51.0004
  21961327.5864  -11023157.68943  -8577513.64042  21961328.3164   21961326.0114
        52.0004         45.0004
  20556148.4114   -2926513.32844  -2273135.13342  20556149.3574   20556145.4354
        57.0004         50.0004
  21419021.0554  -11723088.51743  -9093292.47242  21419021.3054   21419016.8354
        56.0004         48.0004
 04  6 17 16 46  0.0000000  0  9G29G26G 6G16G 3G18G15G21G22
  23996722.5384    5955816.52243   4660642.98442  23996723.2094   23996722.6304
        45.0004         40.0004
  22602998.7244   11249329.04643   8772306.66542  22603000.5664   22602999.6114
        50.0004         43.0004
  22175075.1114   17039028.53943  13277788.26842  22175076.2284   22175074.2174
        52.0004         45.0004
  23758445.0554    -416519.54943   -319795.51142  23758445.7734   23758444.9434
        45.0004         39.0004
  23805759.9114   -6644571.14243  -5115399.55942  23805759.9884   23805760.1314
        44.0004         37.0004
  20429285.7194   -4504262.35343  -3502307.29042  20429286.9874   20429282.8834
        56.0004         51.0004
  21953015.6074  -11066837.69343  -8611549.98342  21953016.5224   21953014.9524
        52.0004         45.0004
  20555993.2244   -2927328.79944  -2273770.57042  20555994.2504   20555990.0364
        57.0004         50.0004
  21412721.2444  -11756194.63743  -9119089.43242  21412721.5014   21412716.9894
        56.0004         48.0004
 04  6 17 16 46 20.0000000  0  9G29G26G 6G16G 3G18G15G21G22
  24007148.1874    6010608.09043   4703337.66642  24007150.9014   24007148.8014
        45.0004         40.0004
  22612101.9984   11297165.97643   8809582.17042  22612103.4394   22612101.9014
        50.0004         43.0004
  22186698.1154   17100108.63243  13325383.10642  22186699.5774   22186697.7914
        52.0004         45.0004
  23762842.7034    -393413.42543   -301790.77842  23762842.7564   23762842.0144
        45.0004         39.0004
  23794249.0144   -6705064.04943  -5162536.86742  23794249.9304   23794250.3404
        44.0004         37.0004
  20429718.2634   -4501989.41243  -3500536.16642  20429719.4014   20429715.7444
        56.0004         51.0004
  21944712.1134  -11110473.10243  -8645551.58342  21944713.1154   21944710.7414
        52.0004         45.0004
  20555859.3114   -2928032.48544  -2274318.89542  20555860.5324   20555856.1584
        57.0004         50.0004
  21406452.0154  -11789139.56243  -9144760.78142  21406452.5254   21406447.9524
        56.0004         48.0004
 04  6 17 16 46 40.0000000  0  9G29G26G 6G16G 3G18G15G21G22
  24017603.5744    6065548.10243   4746148.01542  24017605.0844   24017603.6724
        45.0004         40.0004
  22621248.9214   11345234.93543   8847038.48342  22621250.6924   22621249.0904
        50.0004         43.0004
  22198346.8204   17161323.11643  13373082.66342  22198348.8774   22198346.4804
        52.0004         45.0004
  23767272.8954    -370126.58743   -283645.23242  23767274.3154   23767273.5214
        44.0004         39.0004
  23782758.8114   -6765445.04443  -5209586.96542  23782759.4994   23782757.6154
        44.0004         37.0004
  20430181.7754   -4499553.39343  -3498637.97342  20430183.0274   20430179.3754
        56.0004         51.0004
  21936415.9694  -11154068.83743  -8679522.27342  21936416.6864   21936415.0984
        52.0004         45.0004
  20555745.8234   -2928629.35744  -2274783.99342  20555746.5994   20555742.7914
        57.0004         50.0004
  21400212.4714  -11821928.54543  -9170310.62042  21400212.8664   21400208.4724
        56.0004         48.0004
 04  6 17 16 47  0.0000000  0  9G29G26G 6G16G 3G18G15G21G22
  24028087.1164    6120637.78443   4789075.00042  24028088.5044   24028087.7224
        45.0004         40.0004
  22630440.1964   11393536.92743   8884676.36142  22630441.1614   22630441.6714
        49.0004         42.0004
  22210021.2514   17222673.19143  13420887.87342  22210023.0624   22210021.3144
        52.0004         45.0004
  23771739.8244    -346657.78943   -265357.89442  23771739.7284   23771739.8474
        45.0004         39.0004
  23771290.3194   -6825711.46743  -5256547.79042  23771291.8824   23771290.7444
        45.0004         37.0004
  20430676.7794   -4496952.67943  -3496611.44642  20430678.0604   20430674.1164
        56.0004         51.0004
  21928127.9844  -11197622.72543  -8713460.34942  21928128.3964   21928127.1074
        52.0004         45.0004
  20555652.8834   -2929116.95144  -2275163.94242  20555653.8434   20555649.6334
        57.0004         50.0004
  21394003.0954  -11854559.69343  -9195737.47142  21394003.4374   21393998.8714
        56.0004         48.0004
 04  6 17 16 47 20.0000000  0  9G29G26G 6G16G 3G18G15G21G22
  24038598.3574    6175875.55943   4832117.38442  24038600.7544   24038597.8124
        45.0004         40.0004
  22639675.8294   11442070.52243   8922494.71442  22639677.2924   22639676.5294
        49.0004         43.0004
  22221721.5804   17284157.45643  13468797.65042  22221721.9834   22221720.9554
        52.0004         45.0004
  23776239.7854    -323008.47143   -246929.88742  23776241.3894   23776238.4344
        46.0004         39.0004
  23759843.0754   -6885863.29743  -5303419.30642  23759844.7594   23759843.5534
        44.0004         38.0004
  20431202.5914   -4494188.26743  -3494457.36042  20431204.2484   20431200.2454
        56.0004         51.0004
  21919847.9004  -11241135.47843  -8747366.37542  21919847.8034   21919847.3944
        52.0004         45.0004
  20555580.7794   -2929496.16544  -2275459.43942  20555581.8544   20555577.7274
        57.0004         50.0004
  21387823.3904  -11887033.86643  -9221042.00442  21387823.5804   21387818.9564
        56.0004         48.0004
 04  6 17 16 47 40.0000000  0  9G29G26G 6G16G 3G18G15G21G22
  24049137.1434    6231257.63943   4875272.21342  24049138.3114   24049138.9864
        46.0004         40.0004
  22648955.0704   11490831.83443   8960490.51342  22648957.0344   22648954.7404
        50.0004         43.0004
  22233446.3944   17345772.17543  13516809.08142  22233447.7154   22233445.7454
        52.0004         45.0004
  23780773.6174    -299182.38743   -228364.14942  23780775.4044   23780773.4824
        45.0004         40.0004
  23748417.9624   -6945903.05143  -5350203.50242  23748419.6054   23748418.7794
        44.0004         37.0004
  20431759.3274   -4491263.73143  -3492178.50142  20431760.4114   20431756.7704
        56.0004         51.0004
  21911574.7384  -11284609.89643  -8781242.52542  21911575.7794   21911573.9004
        52.0004         45.0004
  20555528.6894   -2929769.87644  -2275672.72142  20555529.8504   20555525.3594
        57.0004         50.0004
  21381673.0324  -11919354.09843  -9246226.58242  21381673.2284   21381668.7074
        56.0004         48.0004
 04  6 17 16 48  0.0000000  0  9G29G26G 6G16G 3G18G15G21G22
  24059704.3114    6286789.61743   4918543.84642  24059705.4274   24059705.0594
        45.0004         40.0004
  22658278.6344   11539826.43243   8998668.10242  22658280.0764   22658277.3414
        50.0004         43.0004
  22245197.5334   17407523.21243  13564926.73342  22245199.1294   22245196.8504
        52.0004         45.0004
  23785342.5754    -275173.87143   -209656.25542  23785342.2264   23785341.9644
        45.0004         39.0004
  23737015.9944   -7005823.51543  -5396894.75242  23737015.5784   23737017.2514
        43.0004         37.0004
  20432347.4584   -4488172.93243  -3489770.08942  20432348.6154   20432344.9854
        56.0004         51.0004
  21903310.2584  -11328039.29143  -8815083.58842  21903311.4504   21903309.8024
        52.0004         45.0004
  20555498.1484   -2929931.02044  -2275798.29142  20555498.6794   20555495.1944
        57.0004         50.0004
  21375553.0054  -11951514.03044  -9271286.25242  21375553.6054   21375549.0124
        57.0004         48.0004
 04  6 17 16 48 20.0000000  0  9G29G26G 6G16G 3G18G15G21G22
  24070299.4494    6342466.88943   4961928.68442  24070301.3284   24070300.6374
        44.0004         40.0004
  22667645.5924   11589049.55543   9037023.76042  22667647.4614   22667646.7144
        50.0004         42.0004
  22256973.3094   17469405.65343  13613146.77842  22256974.8974   22256972.9704
        52.0004         45.0004
  23789944.5504    -250987.56843   -190809.82642  23789945.6694   23789945.3864
        45.0004         39.0004
  23725636.2634   -7065627.92043  -5443495.56542  23725637.2924   23725636.3764
        44.0004         38.0004
  20432966.2934   -4484920.41643  -3487235.66642  20432967.8554   20432963.7874
        56.0004         51.0004
  21895053.9574  -11371427.27243  -8848892.38842  21895054.7864   21895053.1744
        52.0004         45.0004
  20555488.0874   -2929983.48544  -2275839.17742  20555489.0934   20555485.1184
        57.0004         50.0004
  21369462.9794  -11983517.58243  -9296224.07042  21369463.2954   21369458.8814
        56.0004         49.0004
 04  6 17 16 48 40.0000000  0  9G29G26G 6G16G 3G18G15G21G22
  24080921.8724    6398286.86043   5005424.71742  24080923.0484   24080922.0744
        44.0004         39.0004
  22677055.1314   11638498.71443   9075555.55442  22677058.2574   22677055.9094
        49.0004         42.0004
  22268773.8464   17531417.21443  13661467.43942  22268774.2804   22268773.3924
        52.0004         45.0004
  23794580.8414    -226625.83443   -171826.70542  23794582.5074   23794581.5634
        45.0004         39.0004
  23714276.7494   -7125317.31843  -5490006.76642  23714278.1874   23714276.7314
        44.0004         37.0004
  20433615.6744   -4481508.07843  -3484576.70642  20433616.8234   20433613.1514
        56.0004         51.0004
  21886805.0904  -11414775.42843  -8882670.15542  21886806.1054   21886804.3184
        52.0004         45.0004
  20555498.5534   -2929928.74944  -2275796.52942  20555499.2604   20555495.4544
        57.0004         50.0004
  21363402.3844  -12015366.63144  -9321041.49342  21363402.5084   21363397.9514
        57.0004         49.0004
 04  6 17 16 49  0.0000000  0  9G29G26G 6G16G 3G18G15G21G22
  24091571.5384    6454252.37443   5049034.17242  24091573.8264   24091571.3004
        45.0004         40.0004
  22686508.2324   11688176.55743   9114265.54742  22686510.2584   22686508.4804
        49.0004         42.0004
  22280599.2594   17593560.85043  13709891.01142  22280600.1084   22280598.4944
        51.0004         45.0004
  23799250.5114    -202085.71443   -152704.57742  23799251.3024   23799249.7024
        45.0004         39.0004
  23702941.1874   -7184887.43243  -5536425.01342  23702943.1704   23702941.4854
        45.0004         37.0004
  20434296.0844   -4477932.76743  -3481790.75442  20434297.4214   20434293.5264
        56.0004         51.0004
  21878564.6684  -11458080.09643  -8916414.04042  21878565.3354   21878562.9334
        52.0004         45.0004
  20555529.9304   -2929763.15344  -2275667.49542  20555530.9794   20555526.9994
        57.0004         50.0004
  21357371.6404  -12047057.69044  -9345735.80242  21357372.4574   21357367.5114
        57.0004         49.0004
 04  6 17 16 49 20.0000000  0  9G29G26G 6G16G 3G18G15G21G22
  24102249.2954    6510361.41043   5092755.46442  24102250.2114   24102249.9064
        45.0004         40.0004
  22696005.1474   11738081.18043   9153152.24342  22696007.1044   22696006.0634
        49.0004         42.0004
  22292449.5954   17655834.70543  13758416.04942  22292451.2014   22292448.8044
        51.0004         45.0004
  23803954.0934    -177369.24643   -133445.03742  23803955.3954   23803953.5214
        46.0004         39.0004
  23691627.6934   -7244338.79243  -5582750.72542  23691628.9464   23691627.0394
        43.0004         37.0004
  20435007.0684   -4474196.31543  -3478879.23842  20435008.3564   20435004.4994
        56.0004         51.0004
  21870331.9334  -11501342.30243  -8950124.83542  21870333.0154   21870330.9744
        52.0004         45.0004
  20555582.4494   -2929487.73044  -2275452.88742  20555583.6004   20555579.4024
        57.0004         50.0004
  21351371.0014  -12078591.88344  -9370307.88342  21351371.3884   21351366.7084
        57.0004         49.0004
 04  6 17 16 49 40.0000000  0  9G29G26G 6G16G 3G18G15G21G22
  24112953.5484    6566612.92843   5136587.77542  24112954.7844   24112952.5544
        45.0004         40.0004
  22705545.0814   11788211.47643   9192214.77942  22705546.9554   22705544.0004
        49.0004         42.0004
  22304324.4994   17718237.72143  13807041.73242  22304326.1644   22304323.6264
        52.0004         45.0004
  23808690.4574    -152477.30043   -114048.75742  23808693.0144   23808691.0024
        45.0004         39.0004
  23680337.4364   -7303670.76243  -5628983.41142  23680338.1854   23680337.6564
        44.0004         38.0004
  20435748.8784   -4470298.93043  -3475842.32042  20435750.0694   20435746.0474
        56.0004         51.0004
  21862107.6844  -11544561.87343  -8983802.40842  21862108.2904   21862106.4884
        52.0004         45.0004
  20555655.7444   -2929102.37244  -2275152.61442  20555656.6424   20555652.6204
        57.0004         50.0004
  21345400.0224  -12109969.58244  -9394758.02042  21345400.3184   21345395.8474
        57.0004         49.0004
 04  6 17 16 50  0.0000000  0  9G29G26G 6G16G 3G18G15G21G22
  24123685.0984    6623008.82043   5180532.59242  24123686.5254   24123685.7734
        45.0004         40.0004
  22715127.6684   11838569.08143   9231454.44842  22715129.3954   22715127.9684
        49.0004         42.0004
  22316224.7004   17780771.85643  13855769.58342  22316226.5304   22316223.8484
        52.0004         45.0004
  23813461.3964    -127407.98543    -94514.25742  23813463.0684   23813461.7584
        46.0004         40.0004
  23669070.3164   -7362880.28443  -5675120.67842  23669071.1574   23669070.0294
        44.0004         38.0004
  20436521.4334   -4466238.61643  -3472678.43842  20436522.7704   20436518.7314
        56.0004         51.0004
  21853891.6704  -11587736.10743  -9017444.64842  21853892.6024   21853890.9144
        52.0004         45.0004
  20555750.4684   -2928604.29344  -2274764.50342  20555751.5854   20555747.6844
        57.0004         50.0004
  21339459.2144  -12141188.32844  -9419084.29742  21339459.4264   21339454.9954
        57.0004         49.0004
 04  6 17 16 50 20.0000000  0  9G29G26G 6G16G 3G18G15G21G22
  24134443.5714    6679544.38843   5224586.23142  24134443.9204   24134444.2274
        45.0004         39.0004
  22724752.4074   11889149.28443   9270867.55442  22724754.5344   22724752.3214
        49.0004         43.0004
  22328148.1484   17843432.49443  13904596.02242  22328150.0114   22328147.8864
        51.0004         44.0004
  23818264.7154    -102166.02343    -74845.23642  23818266.2344   23818265.1884
        45.0004         39.0004
  23657825.1794   -7421970.53043  -5721165.00142  23657827.1464   23657826.0124
        45.0004         38.0004
  20437324.2144   -4462019.93043  -3469391.15242  20437325.4864   20437321.5314
        56.0004         51.0004
  21845684.0354  -11630868.79043  -9051054.51242  21845684.1364   21845682.7134
        52.0004         46.0004
  20555866.0454   -2927997.32444  -2274291.54742  20555867.0944   20555863.1004
        57.0004         50.0004
  21333548.0004  -12172252.12944  -9443289.84142  21333548.2974   21333543.7444
        57.0004         49.0004
 04  6 17 16 50 40.0000000  0  9G29G26G 6G16G 3G18G15G21G22
  24145228.2754    6736219.73643   5268748.79442  24145229.5004   24145229.1894
        44.0004         39.0004
  22734420.6414   11939952.30043   9310454.30042  22734421.7164   22734419.1284
        50.0004         43.0004
  22340096.1184   17906219.53443  13953520.93942  22340096.8154   22340096.0374
        51.0004         44.0004
  23823101.3364     -76751.09643    -55041.43542  23823102.5434   23823101.1684
        45.0004         39.0004
  23646603.9204   -7480939.81343  -5767115.06642  23646605.6824   23646605.7004
        45.0004         38.0004
  20438157.3644   -4457642.10343  -3465979.86042  20438158.4454   20438154.5764
        56.0004         51.0004
  21837484.2654  -11673958.73543  -9084631.07742  21837484.6734   21837482.9784
        52.0004         45.0004
  20556002.4574   -2927280.10844  -2273732.68142  20556003.5534   20555999.7514
        57.0004         50.0004
  21327666.4714  -12203160.08144  -9467373.94142  21327666.6604   21327662.1004
        57.0004         49.0004
 04  6 17 16 51  0.0000000  0  9G29G26G 6G16G 3G18G15G21G22
  24156040.9964    6793038.39243   5313023.03942  24156041.9874   24156041.7754
        45.0004         39.0004
  22744130.4324   11990981.51743   9350217.30142  22744131.9224   22744131.3204
        49.0004         42.0004
  22352068.9604   17969136.82943  14002547.35842  22352070.1834   22352068.4264
        51.0004         44.0004
  23827971.2314     -51159.74943    -35100.16842  23827972.5454   23827970.1054
        45.0004         39.0004
  23635406.3484   -7539783.23643  -5812967.06342  23635407.3454   23635406.1384
        44.0004         38.0004
  20439021.4964   -4453101.29043  -3462441.56642  20439022.7854   20439018.6474
        56.0004         51.0004
  21829293.2464  -11717001.49443  -9118170.86942  21829293.5914   21829292.4414
        52.0004         45.0004
  20556160.9424   -2926448.42044  -2273084.61642  20556161.9714   20556157.8634
        57.0004         50.0004
  21321815.2644  -12233907.94844  -9491333.30142  21321815.8974   21321811.2494
        57.0004         49.0004
 04  6 17 16 51 20.0000000  0  9G29G26G 6G16G 3G18G15G21G22
  24166878.3624    6849991.14543   5357401.76842  24166878.8784   24166877.8664
        44.0004         39.0004
  22753882.3284   12042227.66143   9390149.32642  22753884.8634   22753883.0664
        49.0004         42.0004
  22364065.0484   18032175.45743  14051668.33442  22364066.4134   22364065.2854
        51.0004         44.0004
  23832873.1744     -25401.03143    -15028.49342  23832874.7444   23832873.8964
        46.0004         39.0004
  23624231.4474   -7598508.41243  -5858726.91442  23624232.5254   23624230.0254
        44.0004         38.0004
  20439914.7614   -4448406.45443  -3458783.25342  20439916.2104   20439912.0694
        56.0004         51.0004
  21821109.9764  -11760005.18743  -9151680.22442  21821110.8944   21821109.3244
        52.0004         45.0004
  20556339.4254   -2925510.28044  -2272353.60242  20556340.4464   20556336.4074
        57.0004         50.0004
  21315992.7794  -12264504.21744  -9515174.53642  21315993.2984   21315988.7464
        57.0004         49.0004
 04  6 17 16 51 40.0000000  0  9G29G26G 6G16G 3G18G15G21G22
  24177743.2594    6907084.98643   5401890.43542  24177745.0964   24177744.7144
        45.0004         39.0004
  22763676.8214   12093697.64343   9430255.76842  22763678.9764   22763677.4294
        49.0004         42.0004
  22376085.3394   18095342.02243  14100888.98142  22376086.7634   22376085.8854
        51.0004         44.0004
  23837807.5304        532.03243      5179.04642  23837808.7054   23837808.3434
        45.0004         39.0004
  23613080.5164   -7657106.87543  -5904388.02342  23613081.5964   23613081.0324
        44.0004         38.0004
  20440838.9784   -4443550.18443  -3454999.14642  20440840.2904   20440836.1684
        56.0004         51.0004
  21812935.4814  -11802961.82443  -9185152.90842  21812936.9554   21812935.1424
        52.0004         45.0004
  20556539.6494   -2924457.51644  -2271533.27042  20556540.9654   20556536.7504
        57.0004         50.0004
  21310200.9114  -12294941.20444  -9538891.65242  21310201.3904   21310196.7794
        57.0004         49.0004
 04  6 17 16 52  0.0000000  0  9G29G26G 6G16G 3G18G15G21G22
  24188634.2084    6964316.98843   5446486.75742  24188634.2914   24188633.9954
        45.0004         39.0004
  22773513.6034   12145388.59443   9470534.41942  22773515.8694   22773512.9994
        49.0004         42.0004
  22388129.3204   18158634.22543  14150207.54542  22388130.3714   22388129.7444
        51.0004         44.0004
  23842775.8394      26636.57643     25520.19442  23842776.9234   23842774.0414
        46.0004         39.0004
  23601953.9274   -7715580.06343  -5949951.52442  23601954.9294   23601954.8714
        44.0004         38.0004
  20441793.2504   -4438534.90643  -3451091.13942  20441794.7124   20441790.5454
        56.0004         51.0004
  21804769.5644  -11845873.33543  -9218590.43342  21804770.2914   21804768.1654
        52.0004         45.0004
  20556761.4214   -2923292.29844  -2270625.31042  20556762.6524   20556758.5894
        57.0004         50.0004
  21304438.9274  -12325221.02844  -9562486.30542  21304439.1204   21304434.8704
        57.0004         49.0004
 04  6 17 16 52 20.0000000  0  9G29G26G 6G16G 3G18G15G21G22
  24199551.1114    7021684.07643   5491188.34242  24199552.7664   24199551.4934
        46.0004         39.0004
  22783391.4224   12197297.30543   9510982.72742  22783392.1744   22783392.0484
        49.0004         42.0004
  22400196.7594   18222048.85243  14199621.49642  22400198.2744   22400196.1814
        51.0004         44.0004
  23847774.6364      52909.67843     45992.68442  23847777.1134   23847775.2934
        45.0004         39.0004
  23590850.5344   -7773929.61343  -5995418.66942  23590851.1094   23590851.1874
        45.0004         38.0004
  20442777.4014   -4433363.18243  -3447061.22842  20442778.7224   20442774.7064
        56.0004         51.0004
  21796612.2364  -11888741.70543  -9251994.33742  21796612.7054   21796611.4304
        52.0004         45.0004
  20557004.0894   -2922016.57044  -2269631.24142  20557005.2874   20557001.2084
        57.0004         50.0004
  21298706.2454  -12355346.16244  -9585960.41642  21298706.6524   21298701.9914
        57.0004         49.0004
 04  6 17 16 52 40.0000000  0  9G29G26G 6G16G 3G18G15G21G22
  24210493.7974    7079188.00943   5535996.55942  24210495.5064   24210493.1714
        45.0004         39.0004
  22793311.1414   12249425.29243   9551601.90842  22793312.1284   22793310.5514
        49.0004         43.0004
  22412287.8164   18285587.66143  14249132.21042  22412289.9824   22412287.9444
        51.0004         44.0004
  23852807.2954      79353.17443     66597.96342  23852808.5314   23852807.6994
        45.0004         39.0004
  23579770.5694   -7832152.34643  -6040787.00942  23579772.2804   23579771.4264
        44.0004         39.0004
  20443791.6974   -4428033.14843  -3442907.95842  20443792.9944   20443788.9934
        56.0004         51.0004
  21788463.0584  -11931564.31343  -9285362.59042  21788463.6734   21788461.7014
        52.0004         45.0004
  20557268.5084   -2920627.65944  -2268548.97642  20557269.5214   20557265.3114
        57.0004         50.0004
  21293003.4654  -12385314.19944  -9609312.11942  21293004.2064   21292999.0494
        57.0004         49.0004
 04  6 17 16 53  0.0000000  0  9G29G26G 6G16G 3G18G15G21G22
  24221461.9354    7136826.39843   5580909.56442  24221463.5114   24221462.5954
        45.0004         39.0004
  22803272.2394   12301770.37543   9592390.24242  22803273.4874   22803271.0014
        49.0004         43.0004
  22424401.9864   18349248.22243  14298737.80242  22424402.7044   22424401.7754
        50.0004         44.0004
  23857870.9914     105964.74543     87334.20742  23857873.2914   23857869.8014
        46.0004         39.0004
  23568715.0874   -7890249.02243  -6086057.12342  23568715.4784   23568716.2984
        45.0004         39.0004
  20444835.8554   -4422546.50743  -3438632.65742  20444837.3354   20444833.3514
        56.0004         51.0004
  21780322.9184  -11974342.36943  -9318696.12142  21780323.7674   21780322.5214
        52.0004         46.0004
  20557554.2084   -2919126.76344  -2267379.44642  20557555.0514   20557550.9784
        57.0004         50.0004
  21287330.3004  -12415126.66544  -9632542.59342  21287330.4734   21287325.8044
        57.0004         49.0004
 04  6 17 16 53 20.0000000  0 10G14G29G26G 6G16G 3G18G15G21G22
  24683886.4194   -4880864.08453  -3779909.72052  24683888.2964   24683887.3224
        44.0004         36.0004
  24232455.9994    7194601.24743   5625928.90542  24232458.3884   24232455.9004
        45.0004         39.0004
  22813274.7474   12354334.25243   9633349.06842  22813277.0674   22813274.9184
        49.0004         42.0004
  22436539.9074   18413032.97343  14348440.15942  22436541.9654   22436540.2644
        50.0004         44.0004
  23862966.8814     132746.34743    108202.94342  23862969.8064   23862966.5064
        45.0004         39.0004
  23557684.3224   -7948216.40143  -6131226.47842  23557684.6334   23557684.2354
        45.0004         38.0004
  20445910.0574   -4416901.18943  -3434233.71042  20445911.3114   20445907.5254
        56.0004         51.0004
  21772191.7214  -12017072.96243  -9351992.66642  21772192.0754   21772191.0514
        52.0004         46.0004
  20557861.4954   -2917511.09144  -2266120.48242  20557862.7184   20557858.8224
        57.0004         50.0004
  21281687.3504  -12444781.08244  -9655649.91342  21281687.7234   21281683.2104
        57.0004         49.0004
 04  6 17 16 53 40.0000000  0 10G14G29G26G 6G16G 3G18G15G21G22
  24669487.8914   -4956530.55143  -3838870.55942  24669489.8104   24669489.1404
        43.0004         36.0004
  24243474.3494    7252502.72943   5671046.89842  24243474.7814   24243473.6624
        45.0004         39.0004
  22823316.6464   12407107.00143   9674470.65742  22823318.3314   22823316.5614
        49.0004         42.0004
  22448699.5504   18476931.98243  14398231.54642  22448700.4864   22448698.9664
        50.0004         44.0004
  23868094.5094     159688.02643    129196.41342  23868095.7834   23868094.5734
        45.0004         39.0004
  23546676.0574   -8006062.84343  -6176301.60542  23546677.4484   23546676.7444
        45.0004         39.0004
  20447012.8254   -4411106.66943  -3429718.50242  20447013.8074   20447010.1444
        56.0004         51.0004
  21764067.4674  -12059765.03243  -9385259.19542  21764068.1574   21764066.4714
        52.0004         46.0004
  20558189.0774   -2915789.56244  -2264779.03542  20558189.9284   20558186.3194
        57.0004         50.0004
  21276072.6694  -12474286.66444  -9678641.26042  21276072.8554   21276068.4514
        57.0004         49.0004
 04  6 17 16 54  0.0000000  0 10G14G29G26G 6G16G 3G18G15G21G22
  24655089.4094   -5032192.76243  -3897828.09042  24655092.8244   24655088.1554
        43.0004         36.0004
  24254519.1254    7310543.62243   5716273.52942  24254521.0964   24254520.1024
        45.0004         39.0004
  22833401.4324   12460101.60043   9715765.11742  22833402.6194   22833400.4764
        49.0004         42.0004
  22460883.3384   18540957.91943  14448121.85242  22460884.9274   22460884.4214
        50.0004         44.0004
  23873254.1674     186802.85243    150324.79742  23873255.4444   23873255.3794
        45.0004         39.0004
  23535694.4424   -8063773.83643  -6221271.18942  23535695.9544   23535693.7824
        46.0004         39.0004
  20448146.3574   -4405149.48043  -3425076.53342  20448147.6514   20448143.8414
        56.0004         51.0004
  21755953.5544  -12102404.62143  -9418484.83842  21755954.3124   21755952.6494
        52.0004         46.0004
  20558539.5844   -2913948.05244  -2263344.09342  20558540.4554   20558536.5234
        57.0004         50.0004
  21270488.9324  -12503629.63644  -9701505.89442  21270489.3214   21270484.9624
        57.0004         49.0004
 04  6 17 16 54 20.0000000  0 10G14G29G26G 6G16G 3G18G15G21G22
  24640691.0964   -5107858.61943  -3956788.45042  24640691.8654   24640690.7424
        41.0004         36.0004
  24265588.6504    7368714.44343   5761601.40242  24265589.9974   24265589.7204
        45.0004         39.0004
  22843526.9324   12513308.23143   9757224.80242  22843527.6314   22843527.8954
        49.0004         42.0004
  22473089.5774   18605101.60343  14498103.89342  22473091.0794   22473089.1794
        50.0004         44.0004
  23878445.4944     214081.47143    171580.81442  23878447.5094   23878445.0674
        45.0004         39.0004
  23524736.5184   -8121357.40643  -6266141.47942  23524739.4834   23524737.0654
        46.0004         39.0004
  20449309.2364   -4399038.75343  -3420314.92842  20449310.5724   20449306.5074
        56.0004         51.0004
  21747847.7824  -12145000.20443  -9451676.18342  21747848.5774   21747846.8354
        53.0004         46.0004
  20558911.1804   -2911995.22544  -2261822.41042  20558912.2774   20558908.4284
        57.0004         50.0004
  21264934.4404  -12532818.77844  -9724250.66342  21264934.9234   21264929.9244
        57.0004         49.0004
 04  6 17 16 54 40.0000000  0 10G14G29G26G 6G16G 3G18G15G21G22
  24626293.2634   -5183519.40443  -4015744.88942  24626293.0304   24626293.5244
        41.0004         36.0004
  24276684.1664    7427022.45043   5807036.16842  24276686.4544   24276684.7784
        45.0004         39.0004
  22853693.1794   12566734.30243   9798855.48542  22853694.9984   22853693.0854
        49.0004         42.0004
  22485319.3144   18669370.32343  14548183.36942  22485320.9894   22485319.2294
        50.0004         44.0004
  23883667.9784     241531.02343    192970.03342  23883669.0544   23883668.8484
        45.0004         39.0004
  23513804.7744   -8178804.75943  -6310905.63042  23513808.4474   23513804.9424
        45.0004         39.0004
  20450502.6794   -4392766.92143  -3415427.78142  20450503.8694   20450499.9914
        56.0004         51.0004
  21739752.0384  -12187543.44443  -9484826.74342  21739752.7424   21739750.7224
        53.0004         46.0004
  20559305.5584   -2909922.69744  -2260207.45342  20559306.5054   20559302.7474
        57.0004         50.0004
  21259410.5854  -12561846.20844  -9746869.42442  21259411.0914   21259405.9504
        57.0004         49.0004
 04  6 17 16 55  0.0000000  0 10G14G29G26G 6G16G 3G18G15G21G22
  24611895.7704   -5259180.72543  -4074701.72542  24611897.8884   24611895.7804
        43.0004         36.0004
  24287804.3254    7485460.59043   5852572.33642  24287805.9724   24287804.7154
        44.0004         39.0004
  22863899.9884   12620372.50543   9840651.45142  22863902.9654   22863899.1144
        48.0004         42.0004
  22497571.9714   18733757.14143  14598354.86842  22497572.9414   22497571.9954
        50.0004         44.0004
  23888923.5104     269144.48543    214486.96342  23888924.2924   23888923.1444
        45.0004         39.0004
  23502897.4844   -8236121.54343  -6355568.02742  23502898.4234   23502898.6694
        46.0004         39.0004
  20451725.5674   -4386340.77843  -3410420.39942  20451726.6404   20451722.7464
        56.0004         51.0004
  21731665.1254  -12230040.41843  -9517941.26042  21731665.7644   21731663.8574
        53.0004         46.0004
  20559721.4874   -2907736.61644  -2258504.02042  20559722.3174   20559718.5054
        57.0004         50.0004
  21253916.3954  -12590718.51744  -9769367.31442  21253916.5244   21253912.0364
        57.0004         49.0004
 04  6 17 16 55 20.0000000  0 10G14G29G26G 6G16G 3G18G15G21G22
  24597496.3924   -5334847.63043  -4133662.89642  24597496.9064   24597497.2634
        43.0004         36.0004
  24298948.8974    7544022.43043   5898204.87042  24298950.9954   24298949.7484
        45.0004         39.0004
  22874146.4264   12674216.27843   9882607.61442  22874146.5584   22874145.6304
        49.0004         42.0004
  22509845.4924   18798255.63843  14648613.39742  22509846.5884   22509845.3674
        50.0004         43.0004
  23894207.9834     296915.32843    236126.53142  23894209.8244   23894208.5234
        46.0004         39.0004
  23492014.6444   -8293312.89143  -6400132.70042  23492014.9684   23492014.0584
        46.0004         39.0004
  20452976.5354   -4379766.45743  -3405297.54742  20452977.7674   20452973.8104
        56.0004         51.0004
  21723585.9204  -12272496.68743  -9551024.04742  21723586.1034   21723585.5694
        52.0004         46.0004
  20560158.0644   -2905442.51244  -2256716.40642  20560158.9454   20560155.1364
        57.0004         50.0004
  21248450.5624  -12619441.32344  -9791748.70042  21248451.0264   21248446.3404
        57.0004         49.0004
 04  6 17 16 55 40.0000000  0 10G14G29G26G 6G16G 3G18G15G21G22
  24583098.4664   -5410508.29643  -4192619.24042  24583099.1904   24583099.7004
        42.0004         36.0004
  24310118.4074    7602717.95543   5943941.59742  24310120.0574   24310117.9254
        45.0004         39.0004
  22884433.8134   12728275.59643   9924731.72542  22884435.8374   22884433.9394
        49.0004         42.0004
  22522142.5564   18862875.82443  14698966.74042  22522143.8544   22522142.3164
        50.0004         43.0004
  23899524.9104     324853.91443    257896.80742  23899525.9804   23899523.7624
        46.0004         39.0004
  23481156.8884   -8350367.23043  -6444590.60342  23481159.6194   23481157.3734
        46.0004         39.0004
  20454257.7224   -4373033.58143  -3400051.15442  20454258.8384   20454255.0754
        56.0004         51.0004
  21715516.5974  -12314901.13343  -9584066.46342  21715517.9004   21715515.3984
        52.0004         46.0004
  20560617.2474   -2903029.21044  -2254835.91442  20560618.4774   20560614.2744
        57.0004         50.0004
  21243015.3394  -12648003.83844  -9814005.18842  21243015.7334   21243011.1164
        57.0004         49.0004
 04  6 17 16 56  0.0000000  0 10G14G29G26G 6G16G 3G18G15G21G22
  24568700.6694   -5486169.04143  -4251575.61342  24568700.9594   24568702.0074
        43.0004         36.0004
  24321311.4004    7661539.50243   5989776.55042  24321313.7664   24321311.3604
        46.0004         39.0004
  22894760.4144   12782542.77843   9967017.80642  22894760.2574   22894760.5544
        48.0004         42.0004
  22534461.0084   18927610.06143  14749408.96242  22534462.4434   22534460.0254
        50.0004         43.0004
  23904871.7354     352952.48343    279791.75642  23904873.1554   23904871.8944
        46.0004         39.0004
  23470324.8354   -8407290.61143  -6488946.45942  23470326.6064   23470325.9264
        46.0004         40.0004
  20455567.6984   -4366149.43343  -3394686.88342  20455569.0614   20455565.1734
        56.0004         51.0004
  21707455.9974  -12357260.35043  -9617073.63242  21707456.3544   21707455.4894
        52.0004         46.0004
  20561097.9794   -2900503.36844  -2252867.73042  20561099.0374   20561095.0564
        57.0004         50.0004
  21237609.1594  -12676413.02644  -9836142.20042  21237609.7254   21237604.6694
        57.0004         49.0004
 04  6 17 16 56 20.0000000  0 10G14G29G26G 6G16G 3G18G15G21G22
  24554304.7994   -5561821.65843  -4310525.65142  24554306.0964   24554308.3374
        44.0004         36.0004
  24332530.4694    7720493.77043   6035714.91842  24332530.7514   24332530.8334
        45.0004         39.0004
  22905127.6534   12837024.33843  10009470.94642  22905130.2194   22905127.7344
        49.0004         42.0004
  22546802.5794   18992465.26243  14799945.45042  22546803.9834   22546801.5794
        50.0004         43.0004
  23910250.4474     381217.76243    301816.59842  23910251.8964   23910250.5004
        46.0004         39.0004
  23459519.2554   -8464074.93943  -6533193.96742  23459520.2034   23459520.4234
        47.0004         40.0004
  20456907.9614   -4359106.60243  -3389198.96142  20456909.3724   20456905.2244
        56.0004         51.0004
  21699405.3324  -12399566.60843  -9650039.52942  21699405.6704   21699404.9584
        52.0004         46.0004
  20561601.5744   -2897857.30144  -2250805.85842  20561602.5844   20561598.3784
        57.0004         50.0004
  21232233.5924  -12704661.53244  -9858153.99842  21232234.1864   21232229.3764
        57.0004         49.0004
 04  6 17 16 56 40.0000000  0 10G14G29G26G 6G16G 3G18G15G21G22
  24539909.1464   -5637472.70243  -4369474.45342  24539910.3704   24539908.9084
        43.0004         37.0004
  24343772.8314    7779572.81743   6081750.50542  24343774.3694   24343772.0624
        45.0004         39.0004
  22915534.1964   12891712.21343  10052084.84042  22915534.1624   22915533.5734
        48.0004         42.0004
  22559165.5104   19057433.42343  14850569.94242  22559166.6254   22559166.3294
        50.0004         43.0004
  23915659.2834     409641.73943    323965.11442  23915659.3674   23915659.8614
        46.0004         39.0004
  23448738.7754   -8520726.82843  -6577338.27342  23448740.0674   23448739.1944
        46.0004         40.0004
  20458276.7484   -4351912.97543  -3383593.54242  20458278.1614   20458274.3824
        56.0004         51.0004
  21691363.4204  -12441826.97443  -9682969.67042  21691364.4584   21691362.4644
        53.0004         46.0004
  20562126.5294   -2895098.15744  -2248655.87742  20562127.6694   20562123.6544
        57.0004         50.0004
  21226887.3574  -12732756.90644  -9880046.48342  21226887.6064   21226882.9604
        57.0004         49.0004
 04  6 17 16 57  0.0000000  0 10G14G29G26G 6G16G 3G18G15G21G22
  24525514.4164   -5713119.29843  -4428419.80742  24525517.2554   24525514.0564
        42.0004         37.0004
  24355039.1594    7838777.79843   6127884.21642  24355041.0764   24355039.1424
        44.0004         39.0004
  22925980.5224   12946607.64143  10094860.49042  22925982.2674   22925980.6644
        48.0004         42.0004
  22571550.6394   19122515.89343  14901283.52042  22571552.4604   22571550.7104
        50.0004         43.0004
  23921099.1124     438225.58543    346238.19442  23921100.4104   23921099.4074
        46.0004         39.0004
  23437984.2654   -8577243.51543  -6621377.22642  23437985.4464   23437984.3034
        47.0004         40.0004
  20459674.7764   -4344567.00743  -3377869.41442  20459676.1684   20459672.1404
        56.0004         51.0004
  21683330.7234  -12484038.91243  -9715862.07442  21683331.6474   21683329.5724
        53.0004         46.0004
  20562673.6034   -2892223.31644  -2246415.74442  20562674.8614   20562670.5144
        57.0004         50.0004
  21221570.5954  -12760697.01244  -9901817.97542  21221571.0434   21221566.1434
        57.0004         49.0004
 04  6 17 16 57 20.0000000  0 10G14G29G26G 6G16G 3G18G15G21G22
  24511120.0124   -5788761.13143  -4487361.44142  24511121.8654   24511119.2984
        42.0004         37.0004
  24366329.6174    7898107.49143   6174115.08742  24366330.7024   24366329.9094
        45.0004         39.0004
  22936466.3244   13001709.15243  10137796.71042  22936468.5284   22936466.4764
        48.0004         41.0004
  22583957.0084   19187711.52843  14952085.27242  22583958.7484   22583956.4364
        50.0004         43.0004
  23926568.6074     466968.18043    368634.97642  23926569.8484   23926568.9354
        46.0004         40.0004
  23427254.9574   -8633624.79843  -6665310.66842  23427256.3234   23427255.6444
        47.0004         40.0004
  20461101.4894   -4337069.64243  -3372027.30942  20461102.7094   20461098.9024
        56.0004         51.0004
  21675307.0884  -12526202.76643  -9748717.00842  21675308.1794   21675306.0834
        53.0004         46.0004
  20563242.6864   -2889233.41044  -2244085.94842  20563243.5944   20563239.7374
        57.0004         50.0004
  21216282.9904  -12788482.33044  -9923468.85342  21216283.3274   21216278.8334
        57.0004         49.0004
 04  6 17 16 57 40.0000000  0 10G14G29G26G 6G16G 3G18G15G21G22
  24496726.3464   -5864395.21943  -4546297.01642  24496727.6624   24496727.8204
        42.0004         37.0004
  24377643.3964    7957563.12543   6220444.10342  24377645.5794   24377644.4184
        45.0004         39.0004
  22946991.3954   13057018.03343  10180894.51042  22946993.5824   22946990.6734
        48.0004         41.0004
  22596384.9244   19253021.54143  15002976.13542  22596386.6904   22596385.4154
        50.0004         43.0004
  23932068.3864     495870.89743    391156.52442  23932069.3464   23932067.4294
        47.0004         39.0004
  23416552.2374   -8689867.75743  -6709136.32142  23416554.3014   23416553.6934
        47.0004         40.0004
  20462557.4474   -4329418.94443  -3366065.72742  20462558.7684   20462554.7264
        56.0004         51.0004
  21667293.1384  -12568316.25443  -9781532.69742  21667293.8614   21667292.2864
        53.0004         46.0004
  20563834.0124   -2886125.71744  -2241664.37342  20563835.2284   20563830.9324
        57.0004         50.0004
  21211025.5694  -12816110.96644  -9944997.64442  21211025.9374   21211020.9334
        57.0004         49.0004
 04  6 17 16 58  0.0000000  0 10G14G29G26G 6G16G 3G18G15G21G22
  24482334.1704   -5940022.15643  -4605227.01942  24482336.4134   24482334.8994
        41.0004         37.0004
  24388980.6894    8017142.88443   6266869.84742  24388982.3054   24388980.2384
        46.0004         39.0004
  22957555.4754   13112532.32743  10224152.38542  22957557.8684   22957554.6424
        49.0004         42.0004
  22608834.4564   19318444.32143  15053954.88342  22608836.2244   22608834.4114
        49.0004         43.0004
  23937598.4024     524931.82443    413801.36142  23937599.9384   23937598.0164
        47.0004         40.0004
  23405876.1804   -8745972.91343  -6752854.60642  23405877.6204   23405875.5094
        47.0004         40.0004
  20464042.1174   -4321616.53843  -3359985.93042  20464043.3434   20464039.5024
        56.0004         51.0004
  21659288.7354  -12610380.14343  -9814309.73742  21659288.7354   21659288.1564
        52.0004         46.0004
  20564447.5394   -2882901.44344  -2239151.95442  20564448.6654   20564444.7064
        57.0004         50.0004
  21205797.4384  -12843584.09144  -9966405.25542  21205798.0934   21205793.1574
        57.0004         49.0004
 04  6 17 16 58 20.0000000  0 10G14G29G26G 6G16G 3G18G15G21G22
  24467944.0084   -6015644.47343  -4664153.40042  24467946.0374   24467947.0034
        45.0004         37.0004
  24400341.9364    8076842.54343   6313389.03142  24400343.3964   24400342.4054
        44.0004         39.0004
  22968157.7104   13168247.62843  10267566.89142  22968159.1404   22968158.1754
        48.0004         42.0004
  22621304.6864   19383975.66643  15105018.22642  22621306.5674   22621306.7054
        50.0004         43.0004
  23943157.7674     554146.82743    436566.25942  23943158.2854   23943158.6264
        47.0004         39.0004
  23395225.1124   -8801942.90943  -6796467.56842  23395228.1824   23395225.4394
        47.0004         40.0004
  20465555.0084   -4313666.25243  -3353790.90642  20465556.1684   20465552.4564
        56.0004         51.0004
  21651293.2304  -12652397.56143  -9847050.56842  21651293.9434   21651292.7834
        53.0004         46.0004
  20565082.6594   -2879563.86044  -2236551.24542  20565083.8804   20565079.8134
        57.0004         50.0004
  21200598.4094  -12870905.48443  -9987694.63342  21200598.6394   21200594.1734
        56.0004         49.0004
 04  6 17 16 58 40.0000000  0 10G14G29G26G 6G16G 3G18G15G21G22
  24453556.3684   -6091254.16143  -4723069.94042  24453557.3254   24453558.5444
        43.0004         37.0004
  24411725.6104    8136668.77343   6360006.83342  24411728.1094   24411725.8894
        44.0004         38.0004
  22978799.4584   13224170.37243  10311143.03642  22978801.5894   22978798.1544
        48.0004         42.0004
  22633796.9084   19449622.08343  15156171.23642  22633798.6324   22633796.3704
        50.0004         43.0004
  23948747.2494     583522.38243    459456.25042  23948748.6734   23948747.3774
        47.0004         39.0004
  23384601.7214   -8857769.69243  -6839968.93242  23384603.7734   23384602.8634
        47.0004         40.0004
  20467097.3544   -4305561.18243  -3347475.26842  20467098.8394   20467094.8354
        56.0004         51.0004
  21643307.7354  -12694361.08643  -9879749.40642  21643308.4634   21643307.1984
        53.0004         46.0004
  20565740.9474   -2876105.24144  -2233856.22642  20565741.9334   20565738.0334
        57.0004         50.0004
  21195429.5284  -12898067.76843 -10008860.03142  21195430.0384   21195425.1614
        56.0004         49.0004
 04  6 17 16 59  0.0000000  0 10G14G29G26G 6G16G 3G18G15G21G22
  24439170.2464   -6166853.38843  -4781978.32742  24439171.5834   24439171.5594
        44.0004         37.0004
  24423133.8084    8196617.85743   6406720.35742  24423134.7084   24423134.8594
        44.0004         38.0004
  22989479.8844   13280296.95243  10354878.01242  22989482.3164   22989479.7984
        48.0004         42.0004
  22646310.0544   19515380.12043  15207411.22042  22646311.6664   22646310.1134
        50.0004         43.0004
  23954367.7484     613054.99743    482468.64542  23954369.3504   23954368.4624
        46.0004         40.0004
  23374005.4404   -8913455.47843  -6883360.41942  23374007.3114   23374005.2254
        47.0004         40.0004
  20468668.4644   -4297304.49643  -3341041.48542  20468669.8174   20468665.8734
        56.0004         51.0004
  21635332.2994  -12736273.20343  -9912408.17742  21635332.7234   21635331.1644
        53.0004         46.0004
  20566421.5844   -2872528.00144  -2231068.77042  20566422.7314   20566418.5614
        57.0004         50.0004
  21190290.5464  -12925073.71844 -10029903.60842  21190291.0054   21190286.0314
        57.0004         49.0004
 04  6 17 16 59 20.0000000  0 10G14G29G26G 6G16G 3G18G15G21G22
  24424784.8574   -6242444.68843  -4840880.54042  24424785.5184   24424785.1044
        43.0004         37.0004
  24434563.8284    8256685.63843   6453526.36142  24434565.5584   24434564.5344
        44.0004         38.0004
  23000198.2974   13336623.03343  10398768.44242  23000200.5104   23000196.1764
        48.0004         42.0004
  22658844.1774   19581245.65343  15258734.96942  22658845.9414   22658844.6254
        49.0004         43.0004
  23960017.6244     642740.50243    505600.15642  23960018.6074   23960018.1634
        46.0004         40.0004
  23363434.8424   -8969002.87143  -6926644.08442  23363436.1724   23363433.8884
        47.0004         40.0004
  20470267.9024   -4288900.03743  -3334492.56342  20470268.9034   20470265.1494
        56.0004         51.0004
  21627365.3364  -12778136.99643  -9945029.29542  21627366.5304   21627364.8614
        53.0004         46.0004
  20567124.2584   -2868835.29144  -2228191.34442  20567125.3274   20567121.2374
        57.0004         50.0004
  21185180.5634  -12951926.98043 -10050828.21342  21185181.2484   21185176.1554
        56.0004         49.0004
 04  6 17 16 59 40.0000000  0 10G14G29G26G 6G16G 3G18G15G21G22
  24410402.3534   -6318026.12643  -4899775.06542  24410405.2484   24410405.2794
        46.0004         38.0004
  24446017.7974    8316872.49943   6500425.15442  24446019.3164   24446018.3084
        44.0004         39.0004
  23010954.8544   13393148.89543  10442814.52942  23010956.9124   23010956.1664
        48.0004         41.0004
  22671398.5744   19647219.01743  15310142.72642  22671401.3254   22671397.0804
        50.0004         43.0004
  23965694.7824     672579.11343    528850.97042  23965695.8794   23965695.6384
        46.0004         39.0004
  23352891.1374   -9024410.10743  -6969818.52842  23352890.7654   23352889.7404
        48.0004         40.0004
  20471895.3374   -4280347.11243  -3327827.95242  20471896.5784   20471892.8884
        56.0004         51.0004
  21619408.5254  -12819951.08343  -9977611.67942  21619409.6324   21619407.5344
        53.0004         46.0004
  20567849.1824   -2865026.06944  -2225223.12642  20567850.2514   20567846.2264
        57.0004         50.0004
  21180099.6414  -12978626.53143 -10071633.03942  21180100.0704   21180095.3784
        56.0004         49.0004
 04  6 17 17  0  0.0000000  0 10G14G29G26G 6G16G 3G18G15G21G22
  24396023.3964   -6393594.95943  -4958659.78142  24396025.3774   24396024.3164
        44.0004         37.0004
  24457493.9394    8377179.91743   6547417.89042  24457496.8614   24457495.8334
        44.0004         39.0004
  23021749.6184   13449875.93643  10487017.39742  23021751.3544   23021749.0514
        48.0004         41.0004
  22683973.4264   19713301.91943  15361635.85442  22683975.4334   22683973.5304
        49.0004         43.0004
  23971402.3944     702572.54743    552222.43642  23971404.2164   23971403.8444
        47.0004         39.0004
  23342375.0144   -9079674.28443  -7012881.49942  23342376.0544   23342375.5324
        47.0004         40.0004
  20473551.5884   -4271643.85043  -3321046.19242  20473552.9874   20473549.0184
        56.0004         51.0004
  21611461.6474  -12861712.84243 -10010153.28042  21611462.1164   21611460.3694
        53.0004         46.0004
  20568596.6804   -2861097.58444  -2222161.97342  20568597.7964   20568594.2624
        57.0004         50.0004
  21175048.4714  -13005170.16343 -10092316.37142  21175049.0194   21175044.3684
        56.0004         49.0004
 04  6 17 17  0 20.0000000  0 10G14G29G26G 6G16G 3G18G15G21G22
  24381645.5364   -6469148.82343  -5017532.82442  24381647.2464   24381645.3334
        43.0004         38.0004
  24468993.6364    8437608.29243   6594504.89542  24468994.6724   24468994.2034
        45.0004         39.0004
  23032582.9594   13506804.57143  10531377.34242  23032585.2904   23032582.0554
        48.0004         41.0004
  22696569.7294   19779494.92943  15413214.77242  22696571.4314   22696570.6134
        49.0004         43.0004
  23977139.9874     732721.33543    575714.94842  23977140.7154   23977138.6024
        47.0004         39.0004
  23331886.0514   -9134793.28743  -7055831.36342  23331886.2684   23331886.9544
        48.0004         41.0004
  20475236.5004   -4262789.33843  -3314146.57642  20475237.9314   20475233.9444
        56.0004         51.0004
  21603524.9314  -12903420.74343 -10042652.92042  21603526.2884   21603524.4884
        53.0004         46.0004
  20569367.2344   -2857048.43344  -2219006.79642  20569368.4174   20569364.2274
        57.0004         50.0004
  21170027.4574  -13031556.78743 -10112877.36042  21170027.8044   21170022.9044
        56.0004         49.0004
 04  6 17 17  0 40.0000000  0 10G14G29G26G 6G16G 3G18G15G21G22
  24367269.5484   -6544691.88143  -5076397.44342  24367271.8624   24367270.6274
        44.0004         38.0004
  24480513.7124    8498152.22743   6641681.94042  24480516.4854   24480514.5204
        43.0004         38.0004
  23043453.3474   13563928.85443  10575889.76642  23043456.1334   23043453.4264
        48.0004         41.0004
  22709185.7894   19845792.33543  15464875.04142  22709187.2804   22709186.2014
        49.0004         43.0004
  23982905.3084     763019.70843    599324.02742  23982905.8664   23982906.7424
        46.0004         39.0004
  23321424.1084   -9189771.35843  -7098671.37442  23321425.1484   23321425.8994
        48.0004         41.0004
  20476949.2574   -4253788.87143  -3307133.23042  20476950.5704   20476946.7234
        56.0004         51.0004
  21595597.5684  -12945079.36243 -10075114.16242  21595598.2224   21595596.7364
        53.0004         46.0004
  20570160.0004   -2852882.66644  -2215760.74942  20570161.2354   20570157.0894
        57.0004         50.0004
  21165035.1494  -13057791.22443 -10133319.76042  21165035.7734   21165030.8184
        56.0004         49.0004
 04  6 17 17  1  0.0000000  0 10G14G29G26G 6G16G 3G18G15G21G22
  24352898.3054   -6620219.88643  -5135250.34242  24352901.6814   24352897.8394
        45.0004         38.0004
  24492057.5654    8558814.30043   6688951.03642  24492058.8414   24492058.1784
        44.0004         38.0004
  23054361.6024   13621251.75443  10620556.92842  23054362.9084   23054361.9544
        48.0004         41.0004
  22721822.1514   19912197.08843  15516618.95542  22721823.0824   22721822.1964
        49.0004         43.0004
  23988699.7734     793470.57043    623051.91142  23988701.1304   23988699.1854
        46.0004         39.0004
  23310989.7034   -9244604.07943  -7141398.14842  23310991.5244   23310990.5874
        48.0004         41.0004
  20478690.5614   -4244639.42443  -3300003.79642  20478691.6544   20478687.5974
        56.0004         51.0004
  21587680.2574  -12986684.77443 -10107533.94442  21587681.0954   21587679.2934
        53.0004         46.0004
  20570975.3924   -2848597.15044  -2212421.38942  20570976.5854   20570972.7134
        57.0004         50.0004
  21160072.4614  -13083870.18943 -10153641.01442  21160073.1384   21160068.1084
        56.0004         49.0004
 04  6 17 17  1 20.0000000  0 10G14G29G26G 6G16G 3G18G15G21G22
  24338527.8134   -6695733.31443  -5194091.88942  24338529.0134   24338527.6694
        44.0004         38.0004
  24503623.0534    8619592.73143   6736310.81442  24503625.2054   24503623.4224
        44.0004         38.0004
  23065307.0504   13678771.08543  10665377.14842  23065308.9354   23065306.6694
        48.0004         41.0004
  22734478.6084   19978707.23243  15568444.99042  22734481.7514   22734479.1544
        49.0004         43.0004
  23994522.6514     824071.85743    646897.01942  23994523.3704   23994524.2734
        46.0004         39.0004
  23300582.9054   -9299291.89943  -7184012.00942  23300582.9184   23300583.1824
        48.0004         41.0004
  20480459.5644   -4235342.45643  -3292759.40842  20480460.6744   20480457.1224
        56.0004         51.0004
  21579772.8584  -13028237.98843 -10139913.04842  21579773.2494   21579771.7604
        53.0004         46.0004
  20571813.6114   -2844192.71944  -2208989.37142  20571814.7324   20571810.6414
        57.0004         50.0004
  21155139.0684  -13109794.89143 -10173842.06242  21155139.4574   21155134.7754
        56.0004         49.0004
 04  6 17 17  1 40.0000000  0 10G14G29G26G 6G16G 3G18G15G21G22
  24324159.9164   -6771232.59443  -5252922.41942  24324161.1714   24324161.0834
        45.0004         38.0004
  24515211.5494    8680485.15143   6783759.39442  24515212.8064   24515212.6674
        43.0004         38.0004
  23076288.7614   13736484.47643  10710348.58242  23076290.6764   23076290.9554
        48.0004         41.0004
  22747154.8464   20045320.64043  15620351.49442  22747156.8684   22747154.0554
        49.0004         43.0004
  24000374.6434     854821.35343    670857.61342  24000374.6194   24000374.6004
        46.0004         39.0004
  23290203.5904   -9353835.71843  -7226513.65842  23290204.3364   23290204.3464
        48.0004         41.0004
  20482256.5374   -4225899.72443  -3285401.43342  20482257.7214   20482253.9694
        56.0004         51.0004
  21571875.5064  -13069740.11243 -10172252.34242  21571875.4474   21571874.5204
        53.0004         46.0004
  20572674.1174   -2839670.54244  -2205465.60242  20572675.5594   20572671.1084
        57.0004         50.0004
  21150234.7984  -13135566.88143 -10193924.11542  21150235.4064   21150230.6644
        56.0004         49.0004
 04  6 17 17  2  0.0000000  0 10G14G29G26G 6G16G 3G18G15G21G22
  24309797.3274   -6846712.27043  -5311737.65942  24309798.4574   24309798.8054
        45.0004         38.0004
  24526821.2914    8741495.82543   6831300.14242  24526824.3724   24526822.8854
        44.0004         38.0004
  23087309.5394   13794395.99143  10755474.40042  23087312.5774   23087309.9494
        47.0004         41.0004
  22759851.5824   20112041.58143  15672341.78842  22759852.2764   22759851.8614
        49.0004         43.0004
  24006256.0574     885723.38643    694937.07342  24006256.8354   24006255.3034
        47.0004         39.0004
  23279852.4894   -9408229.84843  -7268898.67342  23279853.4584   23279852.8274
        48.0004         41.0004
  20484081.9164   -4216306.80543  -3277926.42842  20484083.2384   20484079.0824
        56.0004         51.0004
  21563988.4094  -13111185.91343 -10204547.75642  21563989.2394   21563988.0384
        53.0004         46.0004
  20573558.2024   -2835025.10844  -2201845.79042  20573559.4184   20573555.1274
        57.0004         50.0004
  21145360.5694  -13161181.31243 -10213883.39542  21145361.0204   21145356.0894
        56.0004         49.0004
 04  6 17 17  2 20.0000000  0 10G14G29G26G 6G16G 3G18G15G21G22
  24295436.2234   -6922179.50843  -5370543.22242  24295436.7944   24295436.2904
        44.0004         38.0004
  24538451.6264    8802615.80543   6878926.05142  24538453.0084   24538452.5254
        44.0004         38.0004
  23098366.1454   13852496.69943  10800747.64342  23098368.5194   23098365.2124
        48.0004         41.0004
  22772567.0094   20178861.24543  15724409.01242  22772570.8304   22772566.0574
        49.0004         43.0004
  24012162.9684     916769.14643    719128.52742  24012162.6394   24012163.0794
        46.0004         39.0004
  23269528.2144   -9462481.64743  -7311172.77842  23269528.7164   23269528.2344
        47.0004         41.0004
  20485934.3334   -4206572.17543  -3270341.00442  20485935.4654   20485931.6244
        56.0004         51.0004
  21556110.8514  -13152583.22643 -10236805.37642  21556111.2694   21556109.9354
        53.0004         46.0004
  20574464.0584   -2830264.72044  -2198136.40142  20574464.9764   20574461.1684
        57.0004         50.0004
  21140514.5964  -13186646.41943 -10233726.31842  21140514.8404   21140510.2314
        56.0004         49.0004
 04  6 17 17  2 40.0000000  0 10G14G29G26G 6G16G 3G18G15G21G22
  24281078.8694   -6997625.16543  -5429331.96542  24281080.6994   24281078.7874
        45.0004         38.0004
  24550105.2474    8863853.02143   6926643.32142  24550107.2354   24550106.2354
        44.0004         38.0004
  23109460.1064   13910794.17543  10846174.22042  23109462.6104   23109460.5954
        48.0004         42.0004
  22785302.5844   20245787.24543  15776559.08542  22785304.8074   22785302.2784
        49.0004         43.0004
  24018099.8544     947966.11443    743437.81742  24018100.3194   24018102.1174
        46.0004         39.0004
  23259233.9424   -9516581.93543  -7353328.81842  23259235.3294   23259233.1024
        48.0004         41.0004
  20487815.2984   -4196687.79143  -3262638.88642  20487816.5094   20487812.6954
        56.0004         51.0004
  21548243.8374  -13193923.28743 -10269018.39442  21548244.5724   21548242.2944
        53.0004         46.0004
  20575393.5224   -2825380.18944  -2194330.28042  20575394.5494   20575390.6004
        57.0004         50.0004
  21135698.8084  -13211953.86043 -10253446.38342  21135699.4524   21135694.5454
        56.0004         49.0004
 04  6 17 17  3  0.0000000  0 10G14G29G26G 6G16G 3G18G15G21G22
  24266726.2224   -7073053.47743  -5488107.20142  24266728.3504   24266726.3204
        45.0004         38.0004
  24561778.9504    8925201.30343   6974447.12942  24561780.2424   24561778.8304
        44.0004         38.0004
  23120589.8184   13969282.51243  10891749.49742  23120591.8574   23120588.8594
        48.0004         42.0004
  22798057.2814   20312814.04643  15828787.72342  22798058.7764   22798058.6654
        49.0004         43.0004
  24024064.6474     979308.42943    767860.34842  24024065.6784   24024065.8944
        46.0004         39.0004
  23248966.6934   -9570535.15943  -7395370.26842  23248966.9424   23248967.4714
        48.0004         41.0004
  20489723.6304   -4186659.10243  -3254824.32642  20489725.1264   20489721.0314
        56.0004         51.0004
  21540387.4874  -13235210.81543 -10301190.47342  21540387.6184   21540386.0304
        53.0004         47.0004
  20576345.7354   -2820376.63444  -2190431.41342  20576346.7674   20576342.7374
        57.0004         50.0004
  21130912.0094  -13237108.83643 -10273047.64942  21130912.5934   21130907.3474
        56.0004         49.0004
 04  6 17 17  3 20.0000000  0 10G14G29G26G 6G16G 3G18G15G21G22
  24252375.4194   -7148462.50143  -5546867.41342  24252376.7244   24252375.3174
        44.0004         39.0004
  24573474.4254    8986661.23843   7022337.94342  24573476.1564   24573474.9564
        44.0004         38.0004
  23131756.1494   14027961.82043  10937473.59542  23131758.5394   23131756.6504
        47.0004         41.0004
  22810831.4714   20379941.90543  15881095.08842  22810832.6354   22810830.8814
        50.0004         43.0004
  24030056.1944    1010796.60843    792396.53842  24030057.0934   24030056.4504
        46.0004         39.0004
  23238727.8604   -9624339.33243  -7437295.57442  23238727.5154   23238728.6974
        48.0004         41.0004
  20491659.7914   -4176485.50043  -3246896.84442  20491660.8914   20491657.2124
        56.0004         51.0004
  21532540.7094  -13276444.29243 -10333320.43642  21532541.7864   21532539.8814
        53.0004         46.0004
  20577320.9494   -2815252.56644  -2186438.64042  20577321.7684   20577318.0254
        57.0004         50.0004
  21126154.3894  -13262110.31843 -10292529.30542  21126154.8354   21126150.0654
        56.0004         49.0004
 04  6 17 17  3 40.0000000  0 10G14G29G26G 6G16G 3G18G15G21G22
  24238030.4304   -7223847.84543  -5605609.16642  24238031.6284   24238031.4874
        46.0004         38.0004
  24585191.6714    9048235.56043   7070317.88942  24585193.2394   24585192.1104
        43.0004         38.0004
  23142958.9154   14086834.90043  10983348.68642  23142961.1264   23142959.2034
        47.0004         41.0004
  22823625.3854   20447173.72543  15933483.47542  22823627.0664   22823624.6924
        49.0004         43.0004
  24036076.2674    1042433.47943    817048.59242  24036077.5524   24036076.6114
        46.0004         39.0004
  23228518.4944   -9677990.23243  -7479101.44742  23228519.8514   23228519.0064
        47.0004         41.0004
  20493623.9094   -4166163.58943  -3238853.79842  20493625.0224   20493621.3834
        56.0004         51.0004
  21524705.2434  -13317619.85243 -10365405.27142  21524706.0614   21524703.8824
        53.0004         46.0004
  20578319.5904   -2810004.23044  -2182349.03342  20578320.4984   20578316.6884
        57.0004         50.0004
  21121426.5054  -13286954.89243 -10311888.69442  21121426.9734   21121422.3364
        56.0004         49.0004
 04  6 17 17  4  0.0000000  0 10G14G29G26G 6G16G 3G18G15G21G22
  24223688.7224   -7299215.16943  -5664336.88242  24223691.0014   24223688.4064
        46.0004         38.0004
  24596929.9464    9109917.01243   7118381.30242  24596931.9054   24596930.9574
        43.0004         38.0004
  23154197.9154   14145894.36643  11029368.99042  23154200.0764   23154198.2574
        47.0004         41.0004
  22836437.6704   20514502.33643  15985947.27942  22836438.5754   22836437.3954
        49.0004         43.0004
  24042124.0374    1074211.78943    841810.84542  24042123.9594   24042123.9454
        47.0004         39.0004
  23218337.2504   -9731493.67543  -7520792.41342  23218339.2454   23218336.1194
        47.0004         41.0004
  20495615.0494   -4155700.05443  -3230700.39442  20495616.0334   20495612.4974
        56.0004         50.0004
  21516879.9414  -13358743.56143 -10397449.70142  21516880.4084   21516878.9174
        53.0004         47.0004
  20579340.7264   -2804637.58444  -2178167.23642  20579342.1304   20579337.8614
        57.0004         50.0004
  21116727.2684  -13311648.99643 -10331130.83342  21116727.8314   21116723.2124
        56.0004         49.0004
